[[{"header":{"parameterUnit":"m.s-1","parameterCategory":1,"la1":30.6,"la2":29.2853,"lo1":-89.7004,"lo2":-87.6739,"dx":0.0162,"dy":0.0183,"nx":112,"ny":82,"refTime":"2022-11-05T00:00:00:Z","depth":0,"parameterNumber":2,"parameterNumberName":"U-component_of_WINDS"},"data":[0.0,0.0,0.0,0.0,0.0,0.0,0.0,0.0,0.0,0.0,0.0,0.0,0.0,0.0,0.0,0.0,0.0,0.0,0.0,0.0,0.0,0.0,0.0,0.0,0.0,0.0,0.0,0.0,0.0,0.0,0.0,0.0,0.0,0.0,0.0,0.0,0.0,0.0,0.0,0.0,0.0,0.0,0.0,0.0,0.0,0.0,0.0,0.0,0.0,0.0,0.0,0.0,0.0,0.0,0.0,0.0,0.0,0.0,0.0,0.0,0.0,0.0,0.0,0.0,0.0,0.0,0.0,0.0,0.0,0.0,0.0,0.0,0.0,0.0,0.0,0.0,0.0,0.0,0.0,0.0,0.0,0.0,0.0,0.0,0.0,0.0,0.0,0.0,0.0,0.0,2.1845,2.3461,2.449,2.5067,2.5067,2.5067,2.3853,2.0993,0.0,0.0,0.0,0.0,0.0,0.0,0.0,0.0,0.0,0.0,0.0,0.0,0.0,0.0,0.0,0.0,0.0,0.0,0.0,0.0,0.0,0.0,0.0,0.0,0.0,0.0,0.0,0.0,0.0,0.0,0.0,0.0,0.0,0.0,0.0,0.0,0.0,0.0,0.0,0.0,0.0,0.0,0.0,0.0,0.0,0.0,0.0,0.0,0.0,0.0,0.0,0.0,0.0,0.0,0.0,0.0,0.0,0.0,0.0,0.0,0.0,0.0,0.0,0.0,0.0,0.0,0.0,0.0,0.0,0.0,0.0,0.0,0.0,0.0,0.0,0.0,0.0,0.0,0.0,0.0,0.0,0.0,0.0,0.0,0.0,0.0,0.0,0.0,0.0,0.0,0.0,0.0,0.0,0.0,0.0,0.0,0.0,0.0,0.0,0.0,0.0,0.0,0.0,0.0,2.1583,2.5569,2.6147,2.6248,2.6248,2.6248,2.4865,2.1583,0.0,0.0,0.0,0.0,0.0,0.0,0.0,0.0,0.0,0.0,0.0,0.0,0.0,0.0,0.0,0.0,0.0,0.0,0.0,0.0,0.0,0.0,0.0,0.0,0.0,0.0,0.0,0.0,0.0,0.0,0.0,0.0,0.0,0.0,0.0,0.0,0.0,0.0,0.0,0.0,0.0,0.0,0.0,0.0,0.0,0.0,0.0,0.0,0.0,0.0,0.0,0.0,0.0,0.0,0.0,0.0,0.0,0.0,0.0,0.0,0.0,0.0,0.0,0.0,0.0,0.0,0.0,0.0,0.0,0.0,0.0,0.0,0.0,0.0,0.0,0.0,0.0,0.0,0.0,0.0,0.0,0.0,0.0,0.0,0.0,0.0,0.0,0.0,0.0,0.0,0.0,0.0,0.0,0.0,0.0,0.0,0.0,0.0,0.0,0.0,0.0,0.0,0.0,2.1049,2.3231,2.6274,2.6551,2.6499,2.6499,2.6499,2.5066,2.1708,2.0439,0.0,0.0,0.0,0.0,0.0,0.0,0.0,0.0,0.0,0.0,0.0,0.0,0.0,0.0,0.0,0.0,0.0,0.0,0.0,0.0,0.0,0.0,0.0,0.0,0.0,0.0,0.0,0.0,0.0,0.0,0.0,0.0,0.0,0.0,0.0,0.0,0.0,0.0,0.0,0.0,0.0,0.0,0.0,0.0,0.0,0.0,0.0,0.0,0.0,0.0,0.0,0.0,0.0,0.0,0.0,0.0,0.0,0.0,0.0,0.0,0.0,0.0,0.0,0.0,0.0,0.0,0.0,0.0,0.0,0.0,0.0,0.0,0.0,0.0,0.0,0.0,0.0,0.0,0.0,0.0,0.0,0.0,0.0,0.0,0.0,0.0,0.0,0.0,0.0,0.0,0.0,0.0,0.0,0.0,0.0,0.0,0.0,0.0,0.0,0.0,0.0,0.0,2.3675,2.5221,2.6553,2.6585,2.6499,2.6499,2.6499,2.5066,2.1708,2.0439,0.0,0.0,0.0,0.0,0.0,0.0,0.0,0.0,0.0,0.0,0.0,0.0,0.0,0.0,0.0,0.0,0.0,0.0,0.0,0.0,0.0,0.0,0.0,0.0,0.0,0.0,0.0,0.0,0.0,0.0,0.0,0.0,0.0,0.0,0.0,0.0,0.0,0.0,0.0,0.0,0.0,0.0,0.0,0.0,0.0,0.0,0.0,0.0,0.0,0.0,0.0,0.0,0.0,0.0,0.0,0.0,0.0,0.0,0.0,0.0,0.0,0.0,0.0,0.0,0.0,0.0,0.0,0.0,0.0,0.0,0.0,0.0,0.0,0.0,0.0,0.0,0.0,0.0,0.0,0.0,0.0,0.0,0.0,0.0,0.0,0.0,0.0,0.0,0.0,0.0,0.0,0.0,0.0,0.0,0.0,0.0,0.0,0.0,0.0,0.0,0.0,0.0,2.4469,2.6765,2.6714,2.6585,2.6499,2.6499,2.6499,2.5066,2.1708,2.0439,0.0,0.0,0.0,0.0,0.0,0.0,0.0,0.0,0.0,0.0,0.0,0.0,0.0,0.0,0.0,0.0,0.0,0.0,0.0,0.0,0.0,0.0,0.0,0.0,0.0,0.0,0.0,0.0,0.0,0.0,0.0,0.0,0.0,0.0,0.0,0.0,0.0,0.0,0.0,0.0,0.0,0.0,0.0,0.0,0.0,0.0,0.0,0.0,0.0,0.0,0.0,0.0,0.0,0.0,0.0,0.0,0.0,0.0,0.0,0.0,0.0,0.0,0.0,0.0,0.0,0.0,0.0,0.0,0.0,0.0,0.0,0.0,0.0,0.0,0.0,0.0,0.0,0.0,0.0,0.0,0.0,0.0,0.0,0.0,0.0,0.0,0.0,0.0,0.0,0.0,0.0,0.0,0.0,0.0,0.0,0.0,0.0,0.0,0.0,0.0,0.0,0.0,2.4041,2.6404,2.7473,2.7744,2.7868,2.7868,2.7754,2.6114,2.2423,0.0,0.0,0.0,0.0,0.0,0.0,0.0,0.0,0.0,0.0,0.0,0.0,0.0,0.0,0.0,0.0,0.0,0.0,0.0,0.0,0.0,0.0,0.0,0.0,0.0,0.0,0.0,0.0,0.0,0.0,0.0,0.0,0.0,0.0,0.0,0.0,0.0,0.0,0.0,0.0,0.0,0.0,0.0,0.0,0.0,0.0,0.0,0.0,0.0,0.0,0.0,0.0,0.0,0.0,0.0,0.0,0.0,0.0,0.0,0.0,0.0,0.0,0.0,0.0,0.0,0.0,0.0,0.0,0.0,0.0,0.0,0.0,0.0,0.0,0.0,0.0,0.0,0.0,0.0,0.0,0.0,0.0,0.0,0.0,0.0,0.0,0.0,0.0,0.0,0.0,0.0,0.0,0.0,0.0,0.0,0.0,0.0,0.0,0.0,0.0,0.0,0.0,2.1641,2.4652,2.7016,2.8247,2.8571,2.8703,2.8703,2.8515,2.6748,2.2869,0.0,0.0,0.0,0.0,0.0,0.0,0.0,0.0,0.0,0.0,0.0,0.0,0.0,0.0,0.0,0.0,0.0,0.0,0.0,0.0,0.0,0.0,0.0,0.0,0.0,0.0,0.0,0.0,0.0,0.0,0.0,0.0,0.0,0.0,0.0,0.0,0.0,0.0,0.0,0.0,0.0,0.0,0.0,0.0,0.0,0.0,0.0,0.0,0.0,0.0,0.0,0.0,0.0,0.0,0.0,0.0,0.0,0.0,0.0,0.0,0.0,0.0,0.0,0.0,0.0,0.0,0.0,0.0,0.0,0.0,0.0,0.0,0.0,0.0,0.0,0.0,0.0,0.0,0.0,0.0,0.0,0.0,0.0,0.0,0.0,0.0,0.0,0.0,0.0,0.0,0.0,0.0,0.0,0.0,0.0,0.0,0.0,0.0,0.0,0.0,0.0,0.0,2.3012,2.6593,2.8999,2.8999,2.8846,2.8721,2.8721,2.8558,2.6765,0.0,0.0,0.0,0.0,0.0,0.0,0.0,0.0,0.0,0.0,0.0,0.0,0.0,0.0,0.0,0.0,0.0,0.0,0.0,0.0,0.0,0.0,0.0,0.0,0.0,0.0,0.0,0.0,0.0,0.0,0.0,0.0,0.0,0.0,0.0,0.0,0.0,0.0,0.0,0.0,0.0,0.0,0.0,0.0,0.0,0.0,0.0,0.0,0.0,0.0,0.0,0.0,0.0,0.0,0.0,0.0,0.0,0.0,0.0,0.0,0.0,0.0,0.0,0.0,0.0,0.0,0.0,0.0,0.0,0.0,0.0,0.0,0.0,0.0,0.0,0.0,0.0,0.0,0.0,0.0,0.0,0.0,0.0,0.0,0.0,0.0,0.0,0.0,0.0,0.0,0.0,0.0,0.0,0.0,0.0,0.0,0.0,0.0,0.0,0.0,0.0,0.0,0.0,2.3066,2.7039,2.9785,2.9785,3.0113,3.031,3.031,3.0012,2.7993,2.3739,0.0,0.0,0.0,0.0,0.0,0.0,0.0,0.0,0.0,0.0,0.0,0.0,0.0,0.0,0.0,0.0,0.0,0.0,0.0,0.0,0.0,0.0,0.0,0.0,0.0,0.0,0.0,0.0,0.0,0.0,0.0,0.0,0.0,0.0,0.0,0.0,0.0,0.0,0.0,0.0,0.0,0.0,0.0,0.0,0.0,0.0,0.0,0.0,0.0,0.0,0.0,0.0,0.0,0.0,0.0,0.0,0.0,0.0,0.0,0.0,0.0,0.0,0.0,0.0,0.0,0.0,0.0,0.0,0.0,0.0,0.0,0.0,0.0,0.0,0.0,0.0,0.0,0.0,0.0,0.0,0.0,0.0,0.0,0.0,0.0,0.0,0.0,0.0,0.0,0.0,0.0,0.0,0.0,0.0,0.0,0.0,0.0,0.0,0.0,0.0,0.0,0.0,2.3405,2.7585,3.0458,3.0458,3.079,3.0992,3.0992,3.0691,2.9011,2.5454,0.0,0.0,0.0,0.0,0.0,0.0,0.0,0.0,0.0,0.0,0.0,0.0,0.0,0.0,0.0,0.0,0.0,0.0,0.0,0.0,0.0,0.0,0.0,0.0,0.0,0.0,0.0,0.0,0.0,0.0,0.0,0.0,0.0,0.0,0.0,0.0,0.0,0.0,0.0,0.0,0.0,0.0,0.0,0.0,0.0,0.0,0.0,0.0,0.0,0.0,0.0,0.0,0.0,0.0,0.0,0.0,0.0,0.0,0.0,0.0,0.0,0.0,0.0,0.0,0.0,0.0,0.0,0.0,0.0,0.0,0.0,0.0,0.0,0.0,0.0,0.0,0.0,0.0,0.0,0.0,0.0,0.0,0.0,0.0,0.0,0.0,0.0,0.0,0.0,0.0,0.0,0.0,0.0,0.0,0.0,0.0,0.0,0.0,0.0,0.0,0.0,0.0,2.4018,2.8177,3.0992,3.0992,3.0992,3.0992,3.0992,3.083,2.9751,2.7546,0.0,0.0,0.0,0.0,0.0,0.0,0.0,0.0,0.0,0.0,0.0,0.0,0.0,0.0,0.0,0.0,0.0,0.0,0.0,0.0,0.0,0.0,0.0,0.0,0.0,0.0,0.0,0.0,0.0,0.0,0.0,0.0,0.0,0.0,0.0,0.0,0.0,0.0,0.0,0.0,0.0,0.0,0.0,0.0,0.0,0.0,0.0,0.0,0.0,0.0,0.0,0.0,0.0,0.0,0.0,0.0,0.0,0.0,0.0,0.0,1.7303,1.5117,0.0,0.0,0.0,0.0,0.0,0.0,0.0,0.0,0.0,0.0,0.0,0.0,0.0,0.0,0.0,0.0,0.0,0.0,0.0,0.0,0.0,0.0,0.0,0.0,0.0,0.0,0.0,0.0,0.0,0.0,0.0,0.0,0.0,0.0,0.0,0.0,0.0,0.0,0.0,0.0,2.4663,2.8429,3.0992,3.0992,3.0992,3.0992,3.0992,3.083,2.9751,2.7546,2.6149,0.0,0.0,0.0,0.0,0.0,0.0,0.0,0.0,0.0,0.0,0.0,0.0,0.0,0.0,0.0,0.0,0.0,0.0,0.0,0.0,0.0,0.0,0.0,0.0,0.0,0.0,0.0,0.0,0.0,0.0,0.0,0.0,0.0,0.0,0.0,0.0,0.0,0.0,0.0,0.0,0.0,0.0,0.0,0.0,0.0,0.0,0.0,0.0,0.0,0.0,0.0,0.0,0.0,0.0,0.0,0.0,0.0,0.0,0.0,1.9734,1.8375,0.0,0.0,0.0,0.0,0.0,0.0,0.0,0.0,0.0,0.0,0.0,0.0,0.0,0.0,0.0,0.0,0.0,0.0,0.0,0.0,0.0,0.0,0.0,0.0,0.0,0.0,0.0,0.0,0.0,0.0,0.0,0.0,0.0,0.0,0.0,0.0,0.0,0.0,0.0,0.0,2.5223,2.9144,3.1829,3.1829,3.1548,3.1373,3.1373,3.1062,3.0347,2.9203,2.766,0.0,0.0,0.0,0.0,0.0,0.0,0.0,0.0,0.0,0.0,0.0,0.0,0.0,0.0,0.0,0.0,0.0,0.0,0.0,0.0,0.0,0.0,0.0,0.0,0.0,0.0,0.0,0.0,0.0,0.0,0.0,0.0,0.0,0.0,0.0,0.0,0.0,0.0,0.0,0.0,0.0,0.0,0.0,0.0,0.0,0.0,0.0,0.0,0.0,0.0,0.0,0.0,0.0,2.1956,2.2322,2.1904,2.2348,2.3327,2.4555,2.2178,2.2047,2.3249,1.9812,0.0,0.0,0.0,0.0,0.0,0.0,0.0,0.0,0.0,0.0,0.0,0.0,0.0,0.0,0.0,0.0,0.0,0.0,0.0,0.0,0.0,0.0,0.0,0.0,2.6399,2.6912,2.4988,0.0,0.0,0.0,0.0,0.0,0.0,0.0,0.0,0.0,0.0,0.0,2.6367,3.0163,3.2698,3.2698,3.2235,3.1954,3.1954,3.1548,3.1306,3.1306,2.943,2.7901,0.0,0.0,0.0,0.0,0.0,0.0,0.0,0.0,0.0,0.0,0.0,0.0,0.0,0.0,0.0,0.0,0.0,0.0,0.0,0.0,0.0,0.0,0.0,0.0,0.0,0.0,0.0,0.0,0.0,0.0,0.0,0.0,1.7486,1.7721,0.0,0.0,0.0,0.0,0.0,0.0,0.0,0.0,0.0,0.0,0.0,0.0,0.0,2.0477,2.1184,2.3265,2.4311,2.4338,2.5939,2.6654,2.6618,2.6681,2.6837,2.702,2.6654,0.0,2.4678,2.3629,0.0,0.0,0.0,0.0,0.0,0.0,0.0,0.0,0.0,0.0,0.0,0.0,0.0,0.0,0.0,0.0,0.0,0.0,0.0,0.0,0.0,0.0,2.9343,2.9954,3.0286,3.0364,0.0,2.6347,2.2987,2.27,2.2256,2.1342,0.0,0.0,0.0,0.0,0.0,0.0,2.9187,3.1392,3.2698,3.2698,3.262,3.2568,3.2568,3.2515,3.2483,3.2483,3.2176,3.1021,2.8846,2.7486,0.0,0.0,0.0,0.0,0.0,0.0,0.0,0.0,0.0,0.0,0.0,0.0,0.0,0.0,0.0,0.0,0.0,0.0,0.0,0.0,0.0,0.0,0.0,0.0,0.0,0.0,0.0,0.0,0.0,1.6551,1.8349,1.8976,1.7837,1.6581,0.0,0.0,0.0,0.0,0.0,0.0,0.0,0.0,0.0,2.2649,2.2977,2.3669,2.4868,2.5887,2.6399,2.6425,2.7497,2.802,2.802,2.836,2.8516,2.8516,2.8516,2.8115,2.7252,2.5369,2.3695,2.2204,0.0,0.0,0.0,0.0,2.1185,2.1551,2.317,2.3707,2.3564,2.2937,0.0,0.0,0.0,0.0,0.0,0.0,0.0,2.3954,0.0,0.0,2.9457,3.0686,3.1235,3.1451,3.1451,2.9928,2.8072,2.6425,2.5652,2.432,2.1263,2.2322,0.0,0.0,0.0,2.8813,3.0398,3.2385,3.3666,3.3666,3.3398,3.3215,3.3215,3.2881,3.2698,3.2698,3.2215,3.1672,3.1159,2.8838,2.6586,0.0,0.0,0.0,0.0,0.0,0.0,0.0,0.0,0.0,0.0,0.0,0.0,0.0,0.0,0.0,0.0,0.0,0.0,0.0,0.0,0.0,0.0,0.0,0.0,0.0,0.0,0.0,0.0,1.7987,1.9473,2.0152,1.963,1.8569,0.0,0.0,0.0,0.0,0.0,0.0,2.1969,2.2259,2.3393,2.5578,2.5631,2.6295,2.7715,2.7742,2.782,2.7977,2.8429,2.8638,2.8638,2.9083,2.9292,2.9292,2.9292,2.9292,2.9135,2.6964,2.5918,2.55,2.4218,2.3617,2.3629,2.4607,2.479,2.4842,2.7167,2.7706,2.7269,2.6546,2.5997,2.5238,2.3108,0.0,0.0,0.0,0.0,2.5678,2.7846,2.883,2.9588,3.0895,3.1634,3.2052,3.2052,3.2261,3.1888,0.0,2.9144,2.7742,2.4293,2.5495,0.0,2.4835,2.7863,3.0746,3.196,3.343,3.445,3.4607,3.4136,3.3796,3.3796,3.3378,3.3117,3.3117,3.2485,3.2403,3.3097,3.0605,2.8813,2.7977,0.0,0.0,0.0,0.0,0.0,0.0,0.0,0.0,0.0,0.0,0.0,0.0,0.0,0.0,0.0,0.0,0.0,0.0,0.0,0.0,0.0,0.0,0.0,0.0,0.0,0.0,0.0,0.0,0.0,2.1472,2.1864,0.0,0.0,0.0,0.0,2.1237,2.1368,2.2414,2.4667,2.4809,2.5604,2.7324,2.7359,2.7689,2.8351,2.8351,2.8638,2.9214,2.924,2.924,2.9266,2.9292,2.9292,2.9292,2.9292,2.9292,2.9292,2.9135,2.8412,2.7376,2.7281,2.6948,2.6546,2.7115,2.7663,2.8246,2.8952,2.9188,2.924,2.9701,2.8717,2.735,2.7203,2.6059,0.0,0.0,2.7732,2.8586,3.0346,3.1216,3.1641,3.1745,3.2208,3.2646,3.2646,3.2235,3.1954,0.0,3.2457,3.1862,2.9988,0.0,3.004,3.0495,3.0783,3.194,3.4737,3.4685,3.4607,3.5182,3.4711,3.4345,3.4345,3.4319,3.4319,3.4319,3.4277,3.4277,3.4319,3.3651,3.1834,2.8712,2.786,0.0,0.0,0.0,0.0,0.0,0.0,0.0,0.0,0.0,0.0,0.0,0.0,0.0,0.0,0.0,0.0,0.0,0.0,0.0,0.0,0.0,0.0,0.0,0.0,0.0,0.0,0.0,0.0,2.2151,2.2923,0.0,2.1891,2.2807,2.3553,2.3748,2.4753,2.5903,2.7121,2.7174,2.7644,2.8621,2.8647,2.8752,2.8978,2.8978,2.9083,2.9292,2.9666,2.9805,2.9831,3.0215,3.0391,3.0391,3.0391,3.0391,3.0391,3.0391,2.9928,2.9161,2.9161,2.9283,2.9501,2.9666,2.9876,3.0103,3.0312,3.0391,3.0443,3.0607,3.0268,2.9745,2.9745,2.9588,2.9492,3.01,3.0693,3.1306,3.1934,3.2228,3.2385,3.2385,3.2829,3.3294,3.3294,3.3378,3.3561,3.3744,3.3195,3.2385,3.1354,3.213,3.2548,3.166,3.2463,3.3561,3.458,3.4868,3.5051,3.5286,3.5417,3.5495,3.5495,3.5495,3.5495,3.5495,3.4316,3.3895,3.4517,3.2796,3.1326,3.0129,2.9588,2.6916,0.0,0.0,0.0,0.0,0.0,0.0,0.0,0.0,0.0,0.0,0.0,0.0,0.0,0.0,0.0,0.0,0.0,0.0,0.0,0.0,0.0,0.0,0.0,0.0,0.0,2.1172,2.3066,2.27,2.4047,2.4517,2.3396,2.482,2.584,2.584,2.7053,2.7994,2.8377,2.8586,2.8874,2.9292,2.9292,2.9397,2.9562,2.9562,2.9666,2.9868,3.0241,3.0406,3.0406,3.0817,3.0992,3.0992,3.0992,3.0992,3.0992,3.0992,3.0764,3.0406,3.0406,3.066,3.0992,3.0992,3.0992,3.0992,3.0992,3.0992,3.1044,3.1209,3.1287,3.1313,3.1496,3.1836,3.2104,3.2104,3.2411,3.2698,3.2698,3.2855,3.2986,3.2986,3.343,3.3875,3.3875,3.4136,3.4397,3.4397,3.3796,3.3143,3.2757,3.3639,3.3953,3.26,3.3561,3.4397,3.4397,3.4737,3.5077,3.5286,3.5443,3.5521,3.5521,3.5365,3.5338,3.5521,3.3834,3.3187,3.4031,3.1872,3.0509,3.017,2.9534,2.7252,2.3203,0.0,0.0,0.0,0.0,0.0,0.0,0.0,0.0,0.0,0.0,0.0,0.0,0.0,0.0,0.0,0.0,0.0,0.0,0.0,0.0,0.0,0.0,0.0,2.0817,2.2231,2.3301,2.3301,2.5328,2.63,2.5175,2.6556,2.7516,2.7516,2.8098,2.8429,2.8455,2.9004,2.9318,2.9344,2.9344,2.9588,3.0127,3.0127,3.0406,3.0992,3.1018,3.1018,3.1044,3.1044,3.1044,3.1044,3.1044,3.1044,3.1044,3.1044,3.1044,3.1044,3.1018,3.1018,3.1018,3.1018,3.1044,3.1044,3.1044,3.1044,3.113,3.1641,3.1823,3.1928,3.2515,3.2698,3.2744,3.2744,3.2744,3.2751,3.2751,3.3189,3.3613,3.3613,3.4005,3.4397,3.4397,3.4397,3.4397,3.4397,3.4397,3.4397,3.4424,3.4397,3.4214,3.3738,3.4084,0.0,3.4397,3.4424,3.4633,3.5208,3.4763,3.4424,3.4424,3.3953,3.3875,3.4382,3.2988,3.2385,3.2932,3.1171,2.9706,2.8722,2.7744,2.6534,2.5032,0.0,0.0,0.0,0.0,0.0,0.0,0.0,0.0,0.0,0.0,0.0,0.0,0.0,0.0,0.0,0.0,0.0,0.0,0.0,0.0,0.0,2.0609,2.21,2.1956,2.414,2.5735,2.5735,2.6661,2.7167,2.6827,2.7628,2.815,2.815,2.8717,2.9222,2.9596,2.9779,3.0066,3.0521,3.0547,3.0581,3.0738,3.0738,3.0843,3.1018,3.1373,3.1582,3.1608,3.2045,3.2228,3.2228,3.2228,3.2228,3.2228,3.2228,3.2228,3.215,3.1332,3.1235,3.1582,3.1582,3.1862,3.2228,3.2228,3.2228,3.2254,3.2411,3.2463,3.2489,3.2646,3.3032,3.3352,3.3352,3.3613,3.3927,3.3927,3.4058,3.4162,3.4162,3.4293,3.4397,3.4397,3.4397,3.4397,3.4397,3.4397,3.4528,3.4972,3.4685,3.4502,3.4789,3.458,3.4397,3.4397,3.4763,3.4946,3.4685,3.4894,3.5051,3.5051,3.492,3.4774,3.4634,3.3536,3.2679,3.2157,3.056,2.9418,2.8787,2.712,2.6086,0.0,0.0,0.0,0.0,0.0,0.0,0.0,0.0,0.0,0.0,0.0,0.0,0.0,0.0,0.0,0.0,0.0,0.0,0.0,0.0,0.0,0.0,2.2884,2.4207,2.4218,2.5631,2.6781,2.7,2.7298,2.7611,2.7846,2.8194,2.8508,2.8769,2.9301,2.9753,3.0074,3.0354,3.0634,3.0992,3.0992,3.1123,3.132,3.1339,3.147,3.1724,3.2045,3.2182,3.2182,3.2542,3.2698,3.2698,3.2698,3.2698,3.2698,3.2698,3.2698,0.0,0.0,0.0,0.0,0.0,3.2411,3.2698,3.2698,3.2698,3.2725,3.2986,3.3064,3.3117,3.3326,3.3666,3.3927,3.3927,3.4162,3.4397,3.4397,3.4397,3.4397,3.4397,3.4397,3.4397,3.4397,3.4607,3.4763,3.4763,3.4946,0.0,3.5574,3.5155,3.4894,3.5234,3.5182,3.5025,3.4816,3.5286,3.56,3.5495,3.5809,3.6123,3.6358,3.6149,0.0,0.0,0.0,3.2795,3.1205,3.0263,0.0,0.0,0.0,0.0,0.0,0.0,0.0,0.0,2.4649,2.4246,0.0,0.0,0.0,0.0,0.0,0.0,0.0,0.0,0.0,0.0,0.0,0.0,0.0,0.0,0.0,0.0,2.5264,2.6703,2.6781,2.6781,2.6964,2.7438,2.7542,2.7794,2.8351,2.8508,2.8821,2.9344,2.9884,3.0205,3.0205,3.0712,0.0,0.0,0.0,3.1365,3.1902,3.1902,3.2182,3.2698,3.2751,3.2803,3.2803,3.2855,3.2881,3.2881,3.2881,3.2881,3.2881,3.2881,3.2881,3.2881,3.2849,3.2803,3.2803,3.2855,3.2881,3.2881,3.2881,0.0,0.0,3.3509,3.3692,3.377,3.4267,3.4397,3.4397,3.4397,3.4397,3.4397,3.4397,3.4397,3.4397,3.4397,3.445,3.4502,3.4502,3.4972,3.5391,3.5391,3.5783,3.6149,3.6279,3.5809,3.5417,3.5469,3.5887,3.6044,3.5652,3.6018,3.6488,3.6959,0.0,0.0,3.7769,3.7299,3.7156,3.7526,3.508,3.2644,3.0458,3.036,3.036,3.036,3.036,3.0752,3.1604,3.1604,3.1604,3.1495,2.678,2.5733,0.0,0.0,0.0,0.0,0.0,0.0,0.0,0.0,0.0,0.0,0.0,0.0,0.0,0.0,0.0,2.4428,2.5788,2.686,2.7271,2.735,2.7376,2.7506,2.7941,2.8272,2.8377,2.9248,2.9831,2.9936,3.0503,3.0817,3.0817,3.094,3.1209,3.1615,3.1641,3.1921,3.2515,3.2542,3.2568,3.2698,3.3195,0.0,3.343,3.3875,3.4058,3.4058,3.4058,3.4058,3.4058,3.4058,3.4058,3.4031,3.3587,3.343,3.3483,3.3901,3.4058,3.4058,3.4058,3.4058,3.4084,3.4214,3.4241,3.4267,3.4371,3.4397,0.0,3.4397,3.4397,3.4397,3.4397,3.4397,3.4397,3.4397,3.4763,3.5129,3.5129,3.5547,3.594,3.594,3.6044,3.641,3.7377,3.6671,3.6123,3.6593,3.675,3.6959,3.7351,3.7482,3.7403,3.7037,3.7011,3.7063,3.7168,3.7063,3.6539,3.5474,3.3307,3.1838,3.1345,3.132,3.132,3.132,3.132,3.1407,3.1604,3.1604,3.1604,3.1582,3.0556,3.0316,0.0,0.0,0.0,0.0,0.0,0.0,0.0,0.0,0.0,0.0,0.0,2.0832,2.2871,0.0,2.457,2.6007,2.6739,2.7288,2.7863,2.7941,2.7941,2.7941,2.822,2.8612,2.9196,2.9779,3.0231,3.0511,3.0817,3.0992,3.0992,3.1261,3.1529,3.1797,3.2104,3.2522,3.3143,3.3143,3.3294,3.3535,3.3849,3.4005,3.4005,3.4267,3.4397,3.4397,3.4397,3.4397,3.4397,3.4397,3.4397,3.4371,3.411,3.4005,3.4031,3.4293,3.4397,3.4397,3.4397,3.4397,3.4397,3.4397,3.4397,3.4397,3.4397,3.4397,3.4397,3.4397,3.4397,3.4476,3.4763,3.4842,3.492,3.5182,3.5495,3.5704,3.5704,3.6384,3.7011,3.7011,3.7456,3.7952,3.8266,3.7795,3.7612,3.8214,3.8318,3.8423,3.871,3.8762,3.8736,3.871,3.871,3.8817,3.9128,3.8628,3.7492,3.5624,3.4481,3.3635,3.3071,3.3044,3.3044,3.3044,3.3044,3.3044,3.3044,3.3044,3.3044,3.3044,3.2831,3.2569,0.0,0.0,0.0,0.0,0.0,0.0,0.0,1.8411,1.9482,2.1446,2.2204,2.3106,2.5108,2.5489,2.5944,2.7281,2.7611,2.7846,2.8324,2.8508,2.8612,2.8717,2.8743,2.9091,2.9996,3.0205,3.0484,3.0966,3.1097,3.1156,3.1156,3.1686,3.2052,3.2137,3.262,3.3143,3.3744,3.3764,3.3979,3.4397,3.4397,3.4397,3.4397,3.4397,3.4397,3.4397,3.4397,3.4397,3.4397,3.4397,3.4397,3.4397,3.4397,3.4397,3.4397,3.4397,3.4397,3.4397,3.4397,3.4397,3.4397,3.4397,3.4397,3.4397,3.4397,3.4476,3.458,3.458,3.4659,3.4842,3.5338,3.5443,3.5574,3.5992,3.6201,3.6279,3.6279,3.7142,3.79,3.79,3.8658,3.9155,3.8789,3.871,3.8867,3.9364,3.9442,3.9468,3.9599,3.9599,3.9782,4.02,4.0228,4.0437,4.0932,3.993,3.8499,3.6657,3.6121,3.5495,3.456,3.4312,3.425,3.425,3.425,3.425,3.425,3.431,3.4354,3.4354,3.4076,3.3726,1.8034,1.6881,1.6256,1.7747,1.8221,1.9279,0.0,2.3162,2.3275,2.5568,2.6091,2.6337,2.7089,2.7219,2.7281,2.7464,2.7941,2.8324,2.8377,2.8848,2.9397,2.9839,2.9892,2.9944,3.01,3.0581,3.094,3.0992,3.1425,3.1719,3.1719,3.228,3.2829,3.3378,3.3456,3.3744,3.4293,3.4319,3.4345,3.4397,3.4397,3.4397,3.4397,3.4397,3.4397,3.4397,3.4397,3.4397,3.4397,3.4397,3.4397,3.4397,3.4397,3.4397,3.4397,3.4397,3.4397,3.4397,3.4397,3.4397,3.4397,3.4397,3.4397,3.4397,3.4397,3.4763,3.5208,3.5208,3.5547,3.594,3.5992,3.6018,3.6044,3.6096,3.6515,3.6907,3.6907,3.7429,3.79,3.79,3.8004,3.8214,3.8632,3.871,3.8713,3.8789,3.8815,3.8974,3.9547,3.9599,3.9601,3.9677,3.9703,3.973,3.9758,3.8733,3.7967,3.7717,3.5866,3.4723,3.4592,3.3737,3.3251,3.3251,3.3251,3.3251,3.3251,3.3688,3.3879,3.3879,3.4245,3.4376,2.0515,2.0204,1.9953,2.0691,2.1392,2.2263,2.3758,2.4281,2.4787,2.6094,2.6801,2.7203,2.7364,2.744,2.7611,2.7968,2.8246,2.8638,2.9301,2.9596,2.9962,3.0555,3.0634,3.0634,3.0634,3.0843,3.0992,3.0992,3.1503,3.1797,3.1797,3.2725,3.3326,3.3587,3.3901,3.4162,3.4397,3.4397,3.4397,3.4397,3.4397,3.4397,3.4397,3.4397,3.4397,3.4397,3.4397,3.4397,3.4397,3.4397,3.4397,3.4397,3.4397,3.4397,3.4397,3.4397,3.4397,3.4397,3.4397,3.4397,3.4397,3.4397,3.4633,3.492,3.492,3.5312,3.5757,3.5757,3.594,3.6175,3.6541,3.6619,3.6724,3.7063,3.7351,3.7534,3.7534,3.7978,3.837,3.837,3.8658,3.8867,3.8736,3.871,3.8606,3.8292,3.8815,3.9311,3.9573,3.9599,3.9599,3.9599,3.9599,3.9091,3.7792,3.7245,3.644,3.5186,3.4491,3.4137,3.4137,3.3993,3.3923,3.3923,3.3923,3.3923,3.3923,3.4119,3.436,3.4622,3.4528,3.479,2.1683,2.2182,2.256,2.2712,2.37,2.4614,2.4438,2.5095,2.5884,2.6343,2.6971,2.739,2.7264,2.7503,2.7838,2.8187,2.8543,2.9055,2.9897,3.0121,3.0399,3.0947,3.0898,3.0958,3.1209,3.1235,3.1235,3.1235,3.1895,3.2313,3.2313,3.3273,3.3822,3.3822,3.4188,3.4397,3.4397,3.4397,3.4397,3.4397,3.4397,3.4397,3.4397,3.4397,3.4397,3.4397,3.4397,3.4397,3.4397,3.4397,3.4397,3.4397,3.4397,3.4502,3.4659,3.4659,3.4528,3.4424,3.458,3.4659,3.4659,3.4816,3.5155,3.5521,3.5521,3.5913,3.6358,3.6358,3.6462,3.6698,3.7142,3.7246,3.7351,3.7795,3.79,3.79,3.79,3.8214,3.8475,3.8475,3.8841,3.8998,3.853,3.8475,3.8344,3.7978,3.8606,3.9128,3.9128,3.9128,3.9128,3.9128,3.9259,3.8688,3.7122,3.6821,3.6084,3.451,3.416,3.4033,3.4033,3.4087,3.4157,3.4288,3.4288,3.4288,3.4288,3.4441,3.4594,3.4818,3.4594,3.4906,2.0893,2.1507,2.2433,2.2945,2.4482,2.5892,2.6072,2.655,2.6994,2.7213,2.7289,2.7264,2.7045,2.7755,2.8256,2.7875,2.8908,2.9766,2.9792,3.0134,3.0533,3.0936,3.0653,3.0765,3.168,3.1771,3.1771,3.1771,3.2861,3.3555,3.3555,3.4058,3.4371,3.4371,3.4397,3.4397,3.4397,3.4397,3.4397,3.4397,3.4397,3.4397,3.4397,3.4397,3.4397,3.4397,3.4397,3.4397,3.4397,3.4397,3.4397,3.4397,3.4397,3.4763,3.526,3.526,3.4894,3.4476,3.5077,3.526,3.5365,3.5887,3.607,3.607,3.607,3.6488,3.6985,3.6985,3.7403,3.7848,3.7874,3.7874,3.7874,3.79,3.79,3.79,3.79,3.7926,3.7926,3.7926,3.7952,3.7952,3.7926,3.7926,3.7926,3.79,3.7926,3.7952,3.7952,3.7952,3.7952,3.7952,3.8423,3.8713,3.8642,3.8151,3.7816,3.7767,3.5752,3.4586,3.4586,3.3657,3.336,3.3814,3.3814,3.3814,3.3814,3.4294,3.4266,3.3857,3.4288,3.4507,2.1719,2.2849,2.412,2.4801,2.5634,2.6358,2.6511,2.6672,2.6807,2.6773,2.696,2.7045,2.6858,2.7464,2.8091,2.8336,2.9072,2.9744,3.0148,3.0436,3.0603,3.0596,3.1028,3.1415,3.1597,3.1597,3.1811,3.2365,3.3143,3.3587,3.3587,3.411,3.4397,3.4397,3.4397,3.4397,3.4397,3.4397,3.4397,3.4397,3.4397,3.4397,3.4397,3.4397,3.4397,3.4397,3.4397,3.4633,3.4999,3.4999,3.5208,3.5521,3.5521,3.5652,3.5835,3.5835,3.5704,3.5547,3.5757,3.5835,3.5861,3.6044,3.6384,3.6698,3.6698,3.7116,3.7612,3.7612,3.7743,3.79,3.79,3.79,3.79,3.79,3.79,3.79,3.79,3.79,3.79,3.79,3.79,3.79,3.79,3.79,3.79,3.79,3.79,3.79,3.79,3.8214,3.8449,3.8449,3.8972,3.8685,3.7245,3.6922,3.6213,3.4797,3.4323,3.407,3.407,3.4049,3.4119,3.4272,3.4245,3.4245,3.4245,3.4419,3.4572,3.4731,3.4906,3.5168,2.2884,2.3988,2.5025,2.5887,2.6307,2.6551,2.6662,2.6645,2.6611,2.6585,2.6578,2.6552,2.6342,2.7121,2.7924,2.8158,2.9203,3.0075,3.0266,3.0516,3.0682,3.0695,3.108,3.1525,3.1977,3.2002,3.2297,3.2966,3.3392,3.371,3.3875,3.4152,3.4335,3.4397,3.4397,3.4397,3.4397,3.4397,3.4397,3.4397,3.4397,3.4502,3.4711,3.4711,3.4816,3.4999,3.4999,3.5234,3.5574,3.5574,3.5783,3.6096,3.6096,3.6227,3.6436,3.6436,3.6567,3.6724,3.6488,3.6436,3.6462,3.6671,3.7011,3.7325,3.7325,3.7586,3.79,3.79,3.79,3.79,3.79,3.79,3.79,3.79,3.79,3.79,3.79,3.79,3.79,3.79,3.79,3.79,3.79,3.824,3.8527,3.8527,3.8684,3.8658,3.824,3.8684,3.9,3.9,3.9523,3.9155,3.7339,3.7002,3.6114,3.4307,3.4125,3.4054,3.4054,3.4332,3.4572,3.4747,3.4747,3.4747,3.4747,3.4747,3.4812,3.4971,3.4971,3.5321,2.4214,2.4842,2.5143,2.6223,2.6499,2.6533,2.6645,2.6602,2.6508,2.6586,2.6189,2.5776,2.5519,2.6765,2.7701,2.7314,2.9271,3.0677,3.0164,3.0394,3.0747,3.1136,3.0916,3.1291,3.2746,3.291,3.3117,3.3578,3.3695,3.3915,3.4356,3.4189,3.4168,3.4397,3.4397,3.4397,3.4397,3.4397,3.4397,3.4397,3.4424,3.4737,3.5286,3.5338,3.5626,3.6096,3.6096,3.6123,3.6149,3.6149,3.6175,3.6201,3.6201,3.6541,3.7063,3.7063,3.7403,3.7821,3.7246,3.7063,3.7142,3.7717,3.79,3.79,3.79,3.79,3.79,3.79,3.79,3.79,3.79,3.79,3.79,3.79,3.79,3.79,3.79,3.79,3.79,3.79,3.7926,3.7952,3.7978,3.8893,3.9599,3.9599,4.0069,3.9993,3.8893,3.9285,3.9627,3.9627,4.0049,3.9918,3.8843,3.8188,3.7317,3.6177,3.5102,3.4507,3.4507,3.4507,3.4703,3.5168,3.5168,3.5168,3.5168,3.5168,3.4971,3.4528,3.455,3.5102,2.4415,2.541,2.6147,2.6424,2.6499,2.6516,2.6551,2.6533,2.629,2.546,2.5183,2.4806,2.3913,2.5459,2.6821,2.6718,2.8604,3.0033,2.9901,3.0413,3.0826,3.0767,3.1681,3.2393,3.2652,3.3059,3.3394,3.3646,3.388,3.4042,3.4168,3.3937,3.4,3.4397,3.4251,3.4251,3.4397,3.4397,3.4397,3.4397,3.4868,3.5155,3.5312,3.5704,3.5966,3.6096,3.6096,3.6358,3.6776,3.6776,3.7037,3.7456,3.7456,3.7534,3.7665,3.7665,3.7769,3.7874,3.7717,3.7665,3.7691,3.7848,3.79,3.79,3.79,3.79,3.79,3.79,3.79,3.79,3.79,3.79,3.79,3.79,3.79,3.79,3.79,3.79,3.79,3.79,3.8214,3.8658,3.9102,3.9416,3.9599,3.9599,4.0069,4.015,3.9468,3.9836,4.02,4.02,3.9977,3.937,3.8233,3.7192,3.615,3.5013,3.4652,3.4507,3.4507,3.4507,3.455,3.4659,3.4659,3.4659,3.4659,3.4659,3.4818,3.5037,3.543,3.5961,2.5184,2.6005,2.6499,2.6499,2.6499,2.6373,2.5879,2.5753,2.536,2.3988,2.3712,2.3361,2.2246,2.4271,2.603,2.5804,2.8222,3.0156,3.0156,3.0707,3.1155,3.1286,3.207,3.2654,3.2798,3.3166,3.3407,3.3428,3.3581,3.3751,3.3915,3.3789,3.3873,3.4251,3.423,3.4293,3.4397,3.4397,3.4528,3.4789,3.5129,3.5547,3.607,3.6358,3.6645,3.6907,3.6907,3.709,3.7403,3.7403,3.7586,3.79,3.79,3.79,3.79,3.79,3.79,3.79,3.79,3.79,3.79,3.79,3.79,3.79,3.79,3.79,3.79,3.79,3.79,3.79,3.79,3.79,3.79,3.79,3.79,3.79,3.79,3.8083,3.8344,3.8606,3.8893,3.9285,3.986,4.015,4.0357,4.0357,4.0827,4.0984,4.0435,4.0594,4.0776,4.0776,4.0538,3.9879,3.8742,3.7477,3.629,3.5135,3.4596,3.4339,3.4339,3.4451,3.4594,3.479,3.479,3.4928,3.5146,3.5004,3.5186,3.5664,3.5946,3.6554,2.6072,2.6499,2.6499,2.6499,2.6499,2.6197,2.5067,2.4741,2.4189,2.2433,2.2006,2.1669,2.0666,2.304,2.5084,2.4842,2.7878,3.0337,3.0563,3.106,3.1587,3.2139,3.2269,3.2516,3.304,3.3261,3.3304,3.3111,3.309,3.3261,3.3641,3.3641,3.3747,3.4047,3.4251,3.4356,3.4356,3.4476,3.4768,3.5243,3.5443,3.6044,3.7011,3.709,3.7403,3.79,3.79,3.79,3.79,3.79,3.79,3.79,3.79,3.79,3.79,3.79,3.79,3.79,3.79,3.79,3.79,3.79,3.79,3.79,3.79,3.79,3.79,3.79,3.79,3.79,3.79,3.79,3.79,3.79,3.79,3.7926,3.8004,3.8449,3.8998,3.9599,3.973,3.9886,4.0411,4.0933,4.1299,4.1299,4.1742,4.1873,4.1326,4.1249,4.1249,4.1249,4.1097,4.0542,3.9416,3.8087,3.6834,3.5717,3.4752,3.4257,3.4257,3.4547,3.4906,3.5299,3.5242,3.5504,3.6034,3.572,3.5854,3.6393,3.6488,3.7231,2.6172,2.6499,2.6499,2.6499,2.6499,2.6197,2.5067,2.4465,2.3527,2.1407,2.0577,2.0024,1.9422,2.1253,2.3286,2.4591,2.6899,2.9026,3.0412,3.106,3.1587,3.2139,3.2641,3.2989,3.309,3.3133,3.3133,3.309,3.309,3.3197,3.3428,3.3304,3.339,3.3768,3.4021,3.4173,3.4173,3.4809,3.5075,3.4986,3.6143,3.6802,3.7011,3.7508,3.7795,3.79,3.79,3.79,3.79,3.79,3.79,3.79,3.79,3.79,3.79,3.79,3.79,3.79,3.79,3.79,3.79,3.79,3.79,3.79,3.79,3.79,3.79,3.79,3.79,3.79,3.79,3.79,3.79,3.79,3.79,3.8031,3.8475,3.9024,3.9625,4.015,4.0254,4.0437,4.1038,4.1221,4.1299,4.1299,4.1402,4.1353,4.0997,4.0972,4.0972,4.0972,4.0134,3.9104,3.7952,3.6965,3.5932,3.4819,3.489,3.4995,3.4995,3.5496,3.5787,3.5874,3.5591,3.5683,3.6181,3.61,3.6523,3.7376,3.8043,3.8722,2.6197,2.6499,2.6499,2.6499,2.6499,2.6047,2.4315,2.3512,2.2422,1.9924,1.9158,1.8794,1.8279,2.0213,2.2246,2.3336,2.6088,2.8599,3.0005,3.1135,3.2039,3.2591,3.2914,3.309,3.309,3.309,3.309,3.309,3.309,3.3133,3.324,3.3261,3.3386,3.3704,3.3831,3.4049,3.4358,3.4856,3.5314,3.5775,3.6478,3.7033,3.7482,3.7632,3.7785,3.79,3.79,3.79,3.79,3.79,3.79,3.79,3.79,3.79,3.79,3.79,3.79,3.79,3.79,3.79,3.79,3.79,3.79,3.79,3.79,3.79,3.79,3.79,3.79,3.79,3.79,3.8109,3.8318,3.8318,3.8553,3.8945,3.947,3.981,4.0176,4.075,4.0855,4.0934,4.107,4.1097,4.1047,4.0896,4.0871,4.082,4.0694,4.0567,4.0313,3.9879,3.9313,3.8603,3.7669,3.6658,3.5882,3.5417,3.5222,3.5113,3.5195,3.5607,3.6062,3.6557,3.6428,3.6572,3.7043,3.6858,3.7092,3.7696,3.81,3.8505,2.6223,2.6499,2.6499,2.6499,2.6499,2.5904,2.3622,2.2608,2.1393,1.8744,1.8003,1.7777,1.7613,1.9447,2.1292,2.2307,2.5243,2.7971,2.9553,3.0984,3.2164,3.3014,3.309,3.309,3.309,3.309,3.309,3.309,3.309,3.309,3.309,3.3261,3.3428,3.3641,3.3743,3.4024,3.451,3.5024,3.5653,3.6467,3.6687,3.7157,3.7808,3.7598,3.767,3.79,3.79,3.79,3.79,3.79,3.79,3.79,3.79,3.79,3.79,3.79,3.79,3.79,3.79,3.79,3.79,3.79,3.79,3.79,3.79,3.79,3.7926,3.8057,3.8083,3.8109,3.824,3.8579,3.8893,3.8893,3.934,3.9886,4.0306,4.0489,4.0724,4.1144,4.1198,4.1122,4.0871,4.082,4.0744,4.0516,4.0517,4.0491,4.0415,4.0236,3.9646,3.852,3.8652,3.8401,3.7343,3.6566,3.608,3.5961,3.5443,3.524,3.5435,3.5803,3.6392,3.7242,3.7095,3.7202,3.7668,3.7329,3.7361,3.7668,3.7774,3.7964,2.6323,2.6499,2.6499,2.6499,2.6499,2.5904,2.3622,2.2307,2.0916,1.8681,1.7389,1.6963,1.7953,1.8744,2.0061,2.2619,2.4199,2.6197,2.9352,3.0357,3.1336,3.2914,3.309,3.309,3.309,3.309,3.309,3.309,3.309,3.309,3.309,3.3111,3.3219,3.3407,3.3915,3.4172,3.4223,3.5708,3.6296,3.5989,3.6962,3.7453,3.7528,3.7505,3.767,3.79,3.79,3.79,3.79,3.79,3.79,3.79,3.79,3.79,3.79,3.79,3.79,3.79,3.79,3.79,3.79,3.79,3.79,3.79,3.79,3.79,3.8004,3.8501,3.8632,3.8739,3.9311,3.9494,3.952,3.952,3.9939,4.0332,4.0385,4.0829,4.1171,4.0971,4.0946,4.0846,4.0567,4.0516,4.0516,4.0517,4.0517,4.0389,4.0185,4.0134,3.9304,3.7297,3.8217,3.8132,3.596,3.6305,3.6199,3.5152,3.5431,3.5839,3.6276,3.6732,3.7221,3.7731,3.7023,3.6887,3.7349,3.6897,3.6918,3.7349,3.7731,3.7922,2.6172,2.6499,2.6499,2.6499,2.6223,2.5477,2.3537,2.202,2.0477,1.8581,1.7289,1.6862,1.8003,1.8103,1.8932,2.1694,2.306,2.4474,2.6515,2.8405,2.996,3.1004,3.1683,3.2361,3.304,3.309,3.309,3.309,3.309,3.309,3.309,3.309,3.3284,3.3676,3.3903,3.4309,3.4989,3.5783,3.6256,3.6379,3.6794,3.7178,3.7482,3.7155,3.7248,3.7644,3.7644,3.7644,3.7667,3.7831,3.79,3.79,3.79,3.79,3.79,3.79,3.79,3.79,3.79,3.79,3.79,3.79,3.8135,3.8318,3.8004,3.8135,3.8423,3.8658,3.8972,3.9311,3.9547,3.986,4.015,4.0515,4.0776,4.0908,4.0759,4.0865,4.0972,4.0719,4.0669,4.0567,4.0313,4.0262,4.0185,4.0057,4.0032,3.998,3.9852,3.948,3.8613,3.7059,3.7385,3.7028,3.5259,3.5532,3.5627,3.5253,3.5615,3.594,3.6206,3.6394,3.6708,3.7189,3.6874,3.681,3.6997,3.681,3.6759,3.6866,3.7024,3.7064,2.5854,2.6373,2.6499,2.6499,2.6055,2.5159,2.3471,2.1845,2.0214,1.8555,1.7289,1.6812,1.7777,1.7777,1.8366,2.0628,2.2056,2.3371,2.4816,2.7,2.8775,2.9679,3.0608,3.1537,3.2512,3.2914,3.309,3.309,3.309,3.309,3.309,3.3266,3.3517,3.3897,3.4223,3.4728,3.5483,3.5911,3.6305,3.6592,3.6662,3.6898,3.7248,3.6875,3.6968,3.739,3.7459,3.7459,3.7413,3.7667,3.7739,3.7667,3.7762,3.7739,3.7667,3.7762,3.7739,3.7644,3.7644,3.7716,3.7788,3.7875,3.821,3.8543,3.8265,3.8543,3.8998,3.9181,3.9651,4.0097,4.0097,4.031,4.0651,4.1094,4.1097,4.1023,4.082,4.0795,4.0694,4.0415,4.0364,4.0287,4.0032,3.9981,3.9904,3.9723,3.9848,3.9793,3.9429,3.9053,3.83,3.6929,3.6782,3.6243,3.4905,3.5092,3.53,3.5397,3.5603,3.5842,3.6101,3.6121,3.6328,3.6804,3.666,3.6597,3.6597,3.6453,3.632,3.6259,3.6259,3.6279,2.546,2.6047,2.6499,2.6499,2.6055,2.5159,2.3471,2.1845,2.0214,1.8555,1.7289,1.6687,1.7286,1.7827,1.8555,1.9635,2.1217,2.3075,2.5285,2.6582,2.7939,2.9603,3.0281,3.0834,3.1381,3.2437,3.309,3.309,3.309,3.309,3.309,3.3596,3.3897,3.3897,3.4929,3.5483,3.5508,3.629,3.6592,3.6405,3.6617,3.6686,3.6709,3.6686,3.6851,3.7108,3.739,3.7366,3.7108,3.739,3.7366,3.7132,3.7413,3.7343,3.7132,3.7413,3.7343,3.7108,3.7108,3.7271,3.7562,3.7822,3.8073,3.8368,3.8694,3.9165,3.9703,4.0228,4.0827,4.1273,4.1273,4.1097,4.0895,4.0921,4.0694,4.0517,4.0517,4.0517,4.0415,4.016,4.0109,4.0032,3.9749,3.9697,3.9697,3.9697,4.0149,4.0026,3.8776,3.907,3.8648,3.6692,3.6491,3.6037,3.4907,3.5169,3.5387,3.5387,3.5387,3.5593,3.6101,3.6121,3.6328,3.6804,3.6349,3.6121,3.6121,3.5635,3.5407,3.5407,3.5407,3.5666,2.3763,2.433,2.4682,2.428,2.3778,2.3125,2.2221,2.074,1.9271,1.8368,1.7289,1.6687,1.7286,1.7537,1.8492,2.1078,2.1956,2.2935,2.4791,2.6666,2.8047,2.8574,3.0809,3.2386,3.2562,3.2889,3.309,3.309,3.309,3.3266,3.3621,3.4173,3.4427,3.4427,3.5132,3.5707,3.613,3.6351,3.6452,3.6405,3.6452,3.657,3.6686,3.657,3.6617,3.6826,3.6922,3.6922,3.6851,3.7108,3.7178,3.7108,3.7178,3.7178,3.7108,3.7178,3.7155,3.7108,3.7108,3.7155,3.7304,3.7751,3.8234,3.8743,3.921,3.9462,3.9714,4.0281,4.0616,4.077,4.077,4.0669,4.0618,4.0618,4.0542,4.044,4.0262,4.0236,4.016,3.9903,3.9826,3.98,3.9723,3.9998,4.0249,4.0249,4.07,4.0598,3.933,3.8897,3.8131,3.6669,3.6066,3.5588,3.5241,3.5335,3.5387,3.5387,3.5387,3.5449,3.5614,3.5614,3.5676,3.5852,3.5676,3.5614,3.5614,3.5469,3.5387,3.5387,3.5387,3.5635,2.2468,2.3236,2.3562,2.3195,2.2694,2.2121,2.1356,2.0062,1.8782,1.8053,1.7138,1.66,1.6999,1.74,1.8366,2.0425,2.1454,2.2633,2.454,2.6364,2.7871,2.8925,3.106,3.2537,3.2742,3.2964,3.309,3.309,3.3291,3.3567,3.3872,3.4603,3.5004,3.5004,3.5531,3.6006,3.6405,3.6405,3.6405,3.6405,3.6405,3.6476,3.6593,3.6452,3.6476,3.6593,3.6662,3.6662,0.0,3.6851,3.6898,3.6851,3.6922,3.6898,3.6851,3.6922,3.6898,3.6854,3.7082,3.718,3.7404,3.8049,3.866,3.9193,3.9549,3.9777,4.003,4.0389,4.0517,4.0517,4.0517,4.0415,4.0338,4.0338,4.0262,4.016,3.9981,3.9955,3.9904,3.9723,3.9697,3.9747,3.9973,4.03,4.0575,4.0775,4.0875,4.0462,3.9192,3.8436,3.7495,3.6226,3.5682,3.5387,3.5387,3.5387,3.5387,3.5387,3.5387,3.5387,3.5387,3.5387,3.5387,3.5387,3.5387,3.5387,3.5387,3.5387,3.5469,3.5656,3.5656,3.6018,0.0,2.2433,2.2869,2.2869,2.2493,2.1845,2.0804,1.9736,0.0,1.7613,1.6923,1.6536,1.6651,1.7515,1.8279,1.8505,2.0313,2.2447,2.4666,2.6055,2.7832,3.0457,3.121,3.1712,3.2215,3.2788,3.309,3.309,3.3617,3.3922,3.3947,3.4954,3.5508,3.5558,3.613,3.6405,3.6405,3.6405,3.6405,3.6405,3.6405,3.6405,3.6405,3.6405,3.6405,3.6405,3.6617,3.657,3.6405,3.6617,3.657,3.6428,3.6592,3.657,3.6428,3.6592,3.6595,3.6531,3.7034,3.738,3.7777,3.8617,3.9271,3.9697,3.9697,4.0057,4.044,4.044,4.044,4.044,4.044,4.0262,4.0083,4.0083,3.9878,3.9697,3.9697,3.9697,3.9697,3.9747,3.9747,3.9923,4.0449,4.0575,4.0749,4.117,4.0737,3.9874,3.8498,3.771,3.6794,3.5541,3.5387,3.5387,3.5387,3.5387,3.5387,3.5387,3.5387,3.5387,3.5387,3.5387,3.5387,3.5387,3.5387,3.5387,3.5387,3.5428,3.5656,3.6121,3.6142,3.6639,1.8895,0.0,2.0576,2.0576,2.0489,2.0199,0.0,1.887,1.8204,1.7537,1.6923,1.6876,1.818,1.8292,1.902,2.154,2.2759,2.4196,2.6389,2.8768,3.0829,3.2336,3.2612,3.2763,3.2889,3.3014,3.309,3.309,3.3617,3.4073,3.4477,3.5132,3.5707,3.618,3.6331,3.6405,3.6405,3.6405,3.6405,3.6405,3.6405,3.6405,3.6405,3.6405,3.6405,3.6405,3.6452,3.6428,3.6405,3.6452,3.6428,3.6405,3.6452,3.6428,3.6405,3.6452,3.6705,3.7034,3.716,3.7511,3.8013,3.8693,3.9271,3.9697,3.9697,3.98,3.9903,3.9903,3.9903,3.9903,3.9903,3.9852,3.98,3.98,3.9749,3.9697,3.9697,3.9697,3.9823,4.0249,4.0325,4.0474,4.1026,4.148,4.1507,4.0644,4.0741,4.0109,3.7851,3.7424,3.6794,3.5541,3.5387,3.5387,3.5387,3.5387,3.5387,3.5387,3.5387,3.5387,3.5387,3.5387,3.5387,3.5387,3.5387,3.5387,3.5387,3.5738,3.5997,3.6121,3.6473,3.6949,1.7677,1.8807,1.9811,1.9811,1.9811,1.966,1.9133,1.8393,1.7677,1.7099,1.6737,1.6851,1.8053,1.9058,2.0213,2.1744,2.3979,2.6306,2.8499,3.0778,3.2411,3.3014,3.309,3.309,3.309,3.309,3.309,3.309,3.3822,3.4377,3.4678,3.5456,3.6056,3.6405,3.6405,3.6405,3.6405,3.6405,3.6405,3.6405,3.6405,3.6405,3.6405,3.6405,3.6405,3.6405,3.6405,3.6405,3.6405,3.6405,3.6405,3.6405,3.6405,3.6405,3.6405,3.6405,3.6733,3.7235,3.7462,3.809,3.8843,3.917,3.9472,3.9697,3.9697,3.9697,3.9697,3.9697,3.9697,3.9697,3.9697,3.9697,3.9697,3.9697,3.9697,3.9697,3.9697,3.9898,4.0149,4.0424,4.07,4.1051,4.163,4.1494,4.116,4.0728,3.9906,3.8869,3.7467,3.6794,3.6166,3.5479,3.5387,3.5387,3.5387,3.5387,3.5387,3.5387,3.5387,3.5387,3.5387,3.5387,3.5387,3.5387,3.5593,3.5697,3.5718,3.6204,3.6535,3.6763,3.7011,3.7363,1.7336,1.8756,1.9987,1.9723,1.9811,1.9786,1.9133,1.8304,1.7487,1.6887,1.6751,1.7099,1.8191,2.01,2.1557,2.1672,2.4974,2.8273,3.0412,3.2089,3.309,3.309,3.309,3.309,3.309,3.309,3.314,3.3215,3.4148,3.4728,3.4828,3.5828,3.6405,3.6405,3.6405,3.6405,3.6405,3.6405,3.6405,3.6405,3.6405,3.6405,3.6405,3.6405,3.6405,3.6405,3.6405,0.0,3.6405,3.6405,3.6405,3.6405,3.6405,3.6405,3.6405,3.6505,3.6859,3.7387,3.804,3.8894,3.9697,3.9697,3.9697,3.9697,3.9697,3.9697,3.9697,3.9697,3.9697,3.9697,3.9697,3.9697,3.9697,3.9697,3.9697,3.9722,3.9798,4.0199,4.0549,4.0727,4.1127,4.163,4.221,4.1265,4.0514,4.077,3.881,3.7248,3.7037,3.6074,3.5387,3.5387,3.5387,3.5387,3.5387,3.5387,3.5387,3.5387,3.5387,3.5387,3.5387,3.5387,3.5428,3.549,3.5914,3.6142,3.6225,3.668,3.7115,3.7488,3.757,3.7819,1.7802,1.961,2.0891,1.9497,1.9836,2.0289,1.9233,1.8882,1.8594,1.8042,1.7953,1.8982,2.2372,2.2171,2.2562,2.5778,2.762,2.9258,3.1035,3.2336,3.309,3.309,3.309,3.309,3.309,3.309,3.3291,3.3746,3.4327,3.4904,3.5357,3.6031,3.6405,3.6405,3.6405,3.6405,3.6405,3.6405,3.6405,3.6405,3.6405,3.6405,3.6405,3.6405,3.6405,3.6405,0.0,3.6405,3.6405,3.6405,3.6405,3.6405,3.6405,3.6405,3.6455,3.6909,3.7436,3.804,3.9069,3.9546,3.9697,3.9697,3.9697,3.9697,3.9697,3.9697,3.9697,3.9697,3.9697,3.9697,3.9697,3.9697,3.9697,3.9697,3.9697,3.9823,4.03,4.0424,4.0802,4.1758,4.2009,4.2235,4.2788,4.1829,4.066,3.9656,3.8238,3.6915,3.5828,3.551,3.5387,3.5387,3.5387,3.5387,3.5387,3.5387,3.5387,3.5387,3.5387,3.5387,3.5387,3.5387,3.5604,3.5966,3.608,3.6308,3.6701,3.7156,3.7425,3.7508,3.7902,3.8109,1.7138,1.8694,2.0099,1.9962,2.1418,2.2774,2.2257,2.1666,2.0964,2.0162,1.9987,2.0715,2.3085,2.3879,2.5569,2.9748,3.0331,3.0733,3.2135,3.2763,3.309,3.309,3.309,3.309,3.309,3.309,3.3316,3.3847,3.4377,3.4929,3.5458,3.6056,3.6405,3.6405,3.6405,3.6405,3.6405,3.6405,3.6405,3.6405,3.6405,3.6405,3.6405,3.6405,3.6405,3.6405,0.0,3.6405,3.6405,3.6405,3.6405,3.6405,3.6405,3.6581,3.6934,3.7788,3.8291,3.8592,3.9421,3.9697,3.9697,3.9697,3.9697,3.9697,3.9697,3.9697,3.9697,3.9697,3.9697,3.9697,3.9697,3.9697,3.9697,3.9697,3.9923,4.0199,4.045,4.0978,4.1582,4.2085,4.2411,4.2713,4.2964,4.1358,3.9861,3.9275,3.7519,3.6074,3.5479,3.5387,3.5387,3.5387,3.5387,3.5387,3.5387,3.5387,3.5387,3.5387,3.5387,3.5387,3.5387,3.5387,3.5614,3.6101,3.6349,3.6722,3.7177,3.7632,3.786,3.7881,3.8088,3.8191,1.7027,1.8217,1.9685,2.0778,2.2487,2.4014,2.4666,2.3822,2.2794,2.2372,2.2372,2.2824,2.4048,2.6113,2.8762,3.216,3.2064,3.1938,3.2964,3.309,3.309,3.309,3.309,3.309,3.309,3.309,3.3366,3.4048,3.4452,3.5004,3.5682,3.6155,3.6405,3.6405,3.6405,3.6405,3.6405,3.6405,3.6405,3.6405,3.6405,3.6405,3.6405,3.6405,3.6405,3.6405,3.6405,3.6405,3.6405,3.6405,3.6405,3.6406,3.6556,3.7009,3.7713,3.8567,3.8969,3.9145,3.9546,3.9697,3.9697,3.9697,3.9697,3.9697,3.9697,3.9697,3.9697,3.9697,3.9697,3.9697,3.9697,3.9697,3.9722,3.9848,4.0199,4.0549,4.0852,4.1582,4.2263,4.2336,4.2713,4.3014,4.3014,4.1129,3.9539,3.9246,3.73,3.5736,3.5448,3.5387,3.5387,3.5387,3.5387,3.5387,3.5387,3.5387,3.5387,3.5387,3.5387,3.5387,3.5387,3.5387,3.5656,3.6266,3.6618,3.7094,3.7653,3.8005,3.8191,3.8191,3.8191,3.8191,1.8556,1.9685,2.0842,2.192,2.1583,2.1672,2.4214,2.3537,2.2784,2.4264,2.4958,2.5812,2.7444,2.9553,3.1155,3.1482,3.1863,3.2365,3.3014,3.309,3.309,3.309,3.309,3.309,3.309,3.309,3.352,3.4552,3.4678,3.5177,3.6281,3.638,3.6405,3.6405,3.6405,3.6405,3.6405,3.6405,3.6405,3.6405,3.6405,3.6405,3.6405,3.6405,3.6405,3.6405,3.6405,3.6405,3.6405,3.6405,3.6405,3.6455,3.6959,3.7813,3.8793,3.8869,3.922,3.9647,3.9672,3.9697,3.9697,3.9697,3.9697,3.9697,3.9697,3.9697,3.9697,3.9697,3.9697,3.9697,3.9697,3.9697,3.9823,4.0299,4.0449,4.0802,4.1833,4.2135,4.2363,4.2838,4.2989,4.3014,4.3014,4.1866,4.0582,3.9363,3.8059,3.6755,3.5541,3.5387,3.5387,3.5387,3.5387,3.5387,3.5387,3.5387,3.5387,3.5387,3.5387,3.5387,3.5387,3.5387,3.5852,3.6742,3.6784,3.7239,3.8129,3.8171,3.8191,3.8191,3.8191,3.8191,1.7877,1.9321,2.0867,2.1633,2.2272,2.3376,2.5787,2.6113,2.6171,2.715,2.7526,2.7953,2.8976,3.0979,3.2315,3.1964,3.2365,3.2839,3.3065,3.309,3.309,3.309,3.309,3.309,3.309,3.3416,3.3897,3.4653,3.5029,3.5531,3.6355,3.6405,3.6405,3.6405,3.6405,3.6405,3.6405,3.6405,3.6405,3.6405,3.6405,3.6405,3.6405,3.6405,3.6405,3.6405,3.6405,3.6405,3.6405,3.6405,3.6582,3.6984,3.7889,3.8517,3.8944,3.9271,3.9547,3.9697,3.9697,3.9697,3.9697,3.9697,3.9697,3.9697,3.9697,3.9697,3.9697,3.9697,3.9697,3.9697,3.9697,3.9948,4.0249,4.0449,4.1028,4.1683,4.2112,4.2462,4.2763,4.2964,4.3014,4.3014,4.3014,4.1952,4.0668,3.9393,3.8119,3.6824,3.5572,3.5387,3.5387,3.5387,3.5387,3.5387,3.5387,3.5387,3.5387,3.5387,3.5387,3.5387,3.5387,3.5676,3.6142,3.6784,3.7094,3.755,3.8191,3.8191,3.8191,3.8191,3.8191,3.8191,1.848,1.9635,2.1073,2.2046,2.3,2.4356,2.6758,2.7462,2.7946,2.9183,2.9434,2.9659,3.0432,3.1658,3.2466,3.224,3.2713,3.309,3.309,3.309,3.309,3.309,3.309,3.309,3.309,3.3571,3.4123,3.4653,3.5182,3.5757,3.638,3.6405,3.6405,3.6405,3.6405,3.6405,3.6405,3.6405,3.6405,3.6405,3.6405,3.6405,3.6405,3.6405,3.6405,3.6405,3.6405,3.6505,3.6658,3.6658,3.7085,3.7813,3.8592,3.8994,3.9195,3.9546,3.9697,3.9697,3.9697,3.9697,3.9697,3.9697,3.9697,3.9697,3.9697,3.9697,3.9697,3.9697,3.9697,3.9747,3.9898,4.0198,4.0601,4.0953,4.1632,4.2263,4.2439,4.2738,4.3014,4.3014,4.3014,4.3014,4.3014,4.2263,4.1129,3.9451,3.8477,3.7278,3.5634,3.5387,3.5387,3.5387,3.5387,3.5387,3.5387,3.5387,3.5387,3.5387,3.5387,3.5387,3.5387,3.5728,3.6183,3.6784,3.7115,3.757,3.8191,3.8191,3.8191,3.8191,3.8191,3.8191,2.0763,2.0929,2.1648,2.3531,2.3562,2.3873,2.6666,2.6884,2.7304,3.0055,3.0613,3.0939,3.1993,3.1763,3.1587,3.2093,3.2713,3.309,3.309,3.309,3.309,3.309,3.309,3.309,3.3115,3.3596,3.4148,3.4678,3.523,3.5757,3.638,3.6405,3.6405,3.6405,3.6405,3.6405,3.6405,3.6405,3.6405,3.6405,3.6405,3.6405,3.6405,3.6405,3.6405,3.6405,3.6405,3.6708,3.721,3.721,3.7889,3.8894,3.8894,3.9245,3.9697,3.9697,3.9697,3.9697,3.9697,3.9697,3.9697,3.9697,3.9697,3.9697,3.9697,3.9697,3.9697,3.9697,3.9697,3.9823,4.0375,4.0499,4.0802,4.1934,4.2213,4.2336,4.2889,4.3014,4.3014,4.3014,4.3014,4.3014,4.3014,4.3014,4.2121,3.9569,3.9187,3.8268,3.5726,3.5387,3.5387,3.5387,3.5387,3.5387,3.5387,3.5387,3.5387,3.5387,3.5387,3.5387,3.5387,3.5387,3.5852,3.6784,3.6804,3.726,3.8191,3.8191,3.8191,3.8191,3.8191,3.8191,1.897,2.0711,2.257,2.2769,2.5017,2.7383,2.8229,2.8304,2.8875,3.126,3.2064,3.2315,3.2219,3.2416,3.2512,3.224,3.2713,3.309,3.309,3.309,3.309,3.309,3.309,3.3266,3.3621,3.4148,3.4678,3.5207,3.5805,3.6205,3.6405,3.6405,3.6405,3.6405,3.6405,3.6405,3.6405,3.6405,3.6405,3.6405,3.6405,3.6405,3.6405,3.6405,3.6405,3.6405,3.6405,3.6708,3.7261,3.8065,3.8592,3.8944,3.9321,3.9546,3.9697,3.9697,3.9697,3.9697,3.9697,3.9697,3.9697,3.9697,3.9697,3.9697,3.9697,3.9697,3.9697,3.9697,3.9697,3.9898,4.0826,4.1076,4.1252,4.2009,4.2487,4.2813,4.2964,4.3014,4.3014,4.3014,4.3014,4.3014,4.3014,4.3014,4.2121,3.9569,3.9187,3.8268,3.5726,3.5387,3.5387,3.5387,3.5387,3.5387,3.5387,3.5387,3.5387,3.5387,3.5387,3.5387,3.5387,3.5697,3.6183,3.6784,3.7115,3.7591,3.8191,3.8191,3.8191,3.8191,3.8191,3.8191,2.1278,2.304,2.4769,2.5176,2.6774,2.8555,2.9634,3.0061,3.0588,3.1918,3.2491,3.2692,3.2566,3.2641,3.2692,3.2566,3.2842,3.309,3.309,3.309,3.309,3.309,3.309,3.3316,3.3847,3.4377,3.4929,3.5458,3.6056,3.6405,3.6405,3.6405,3.6405,3.6405,3.6405,3.6405,3.6405,3.6405,3.6405,3.6405,3.6405,3.6405,3.6405,3.6405,3.6405,3.643,3.6859,3.7361,3.7939,3.8843,3.922,3.9245,3.9572,3.9697,3.9697,3.9697,3.9697,3.9697,3.9697,3.9697,3.9697,3.9697,3.9697,3.9697,3.9697,3.9697,3.9747,3.9948,4.0023,4.0275,4.1379,4.1656,4.1806,4.2386,4.2763,4.3014,4.3014,4.3014,4.3014,4.3014,4.3014,4.2821,4.2319,4.2234,4.1386,3.8833,3.7999,3.7149,3.5603,3.5387,3.5387,3.5387,3.5387,3.5387,3.5387,3.5387,3.5387,3.5387,3.5387,3.5387,3.5387,3.5656,3.6142,3.6784,3.7074,3.7529,3.8191,3.8191,3.8191,3.8191,3.8191,3.8191,2.5494,2.6444,2.7361,2.9139,2.8618,2.8341,3.0884,3.1888,3.229,3.229,3.229,3.2466,3.3014,3.2641,3.2466,3.3014,3.309,3.309,3.309,3.309,3.309,3.309,3.309,3.3341,3.3922,3.4402,3.4954,3.5533,3.6081,3.6405,3.6405,3.6405,3.6405,3.6405,3.6405,3.6405,3.6405,3.6405,3.6405,3.6405,3.6405,3.6405,3.6405,3.6405,3.643,3.6531,3.7538,3.8341,3.8944,3.9497,3.9697,3.9697,3.9697,3.9697,3.9697,3.9697,3.9697,3.9697,3.9697,3.9697,3.9697,3.9697,3.9697,3.9697,3.9697,3.9697,3.9798,4.035,4.0499,4.0777,4.1884,4.2213,4.2363,4.2864,4.3014,4.3014,4.3014,4.3014,4.3014,4.3014,4.3014,4.2597,4.1329,4.11,4.0239,3.7678,3.6206,3.5387,3.5387,3.5387,3.5387,3.5387,3.5387,3.5387,3.5387,3.5387,3.5387,3.5387,3.5387,3.5387,3.5387,3.5387,3.5852,3.6784,3.6804,3.726,3.8191,3.8191,3.8191,3.8191,3.8191,3.8191,2.1848,2.423,2.6824,2.762,2.9195,3.0783,3.1813,3.2466,3.2914,3.2914,3.2914,3.2964,3.3065,3.2989,3.2964,3.309,3.309,3.309,3.309,3.309,3.309,3.309,3.309,3.3492,3.4427,3.4628,3.5127,3.613,3.6331,3.6405,3.6405,3.6405,3.6405,3.6405,3.6405,3.6405,3.6405,3.6405,3.6405,3.6405,3.6405,3.6405,3.6405,3.6405,3.6632,3.706,3.7713,3.8341,3.8944,3.9497,3.9697,3.9697,3.9697,3.9697,3.9697,3.9697,3.9697,3.9697,3.9697,3.9697,3.9697,3.9697,3.9697,3.9697,3.9697,3.9697,3.9798,4.035,4.0499,4.0777,4.1884,4.2213,4.2363,4.2864,4.3014,4.3014,4.3014,4.3014,4.3014,4.3014,4.3014,4.2597,4.1329,4.11,4.0239,3.7678,3.6206,3.5387,3.5387,3.5387,3.5387,3.5387,3.5387,3.5387,3.5387,3.5387,3.5387,3.5387,3.5387,3.5387,3.5387,3.5387,3.5852,3.6784,3.6804,3.726,3.8191,3.8191,3.8191,3.8191,3.8191,3.8191,2.2954,2.5141,2.7185,2.8549,3.0077,3.1414,3.2068,3.2582,3.2939,3.3068,3.309,3.309,3.309,3.309,3.309,3.309,3.309,3.309,3.309,3.309,3.309,3.309,3.3341,3.3796,3.4628,3.4929,3.5454,3.6331,3.6405,3.6405,3.6405,3.6405,3.6405,3.6405,3.6405,3.6405,3.6405,3.6405,3.6405,3.6405,3.6405,3.6405,3.6405,3.6405,3.6833,3.7588,3.7889,3.8492,3.9295,3.9572,3.9697,3.9697,3.9697,3.9697,3.9697,3.9697,3.9697,3.9697,3.9697,3.9697,3.9697,3.9697,3.9697,3.9697,3.9697,3.9697,3.9873,4.065,4.0876,4.1127,4.2286,4.2587,4.2637,4.2939,4.3014,4.3014,4.3014,4.3014,4.3014,4.3014,4.2513,4.1696,4.0413,3.9187,3.794,3.6603,3.5828,3.5387,3.5387,3.5387,3.5387,3.5387,3.5387,3.5387,3.5387,3.5387,3.5387,3.5387,3.5387,3.549,3.5749,3.5749,3.608,3.6784,3.7032,3.7488,3.8191,3.8191,3.8191,3.8191,3.8191,3.8191,2.4463,2.6231,2.7738,3.0156,3.0943,3.1381,3.2173,3.2568,3.2831,3.3047,3.309,3.309,3.309,3.309,3.309,3.309,3.309,3.309,3.309,3.309,3.309,3.309,3.3571,3.4123,3.4653,3.5182,3.5757,3.6331,3.6405,3.6405,3.6405,3.6405,3.6405,3.6405,3.6405,3.6405,3.6405,3.6405,3.6405,3.6405,3.6405,3.6455,3.6556,3.6556,3.7085,3.8015,3.8115,3.8743,3.9697,3.9697,3.9697,3.9697,3.9697,3.9697,3.9697,3.9697,3.9697,3.9697,3.9697,3.9697,3.9697,3.9697,3.9697,3.9697,3.9697,3.9747,4.0049,4.1026,4.1378,4.1679,4.271,4.3014,4.3014,4.3014,4.3014,4.3014,4.3014,4.3014,4.2905,4.2709,4.1472,4.0123,3.9039,3.6937,3.5387,3.5387,3.5387,3.5387,3.5387,3.5387,3.5387,3.5387,3.5387,3.5387,3.5387,3.5387,3.5387,3.5387,3.5387,3.5593,3.6101,3.6183,3.6453,3.6908,3.7301,3.7715,3.8191,3.8191,3.8191,3.8191,3.8191,3.8191,2.0539,2.3593,2.7354,3.0527,3.1315,3.1642,3.2717,3.3018,3.3047,3.309,3.309,3.309,3.309,3.309,3.309,3.309,3.309,3.309,3.309,3.309,3.309,3.309,3.3571,3.4123,3.4653,3.5182,3.5757,3.6331,3.6405,3.6405,3.6405,3.6405,3.6405,3.6405,3.6405,3.6405,3.6405,3.6405,3.6405,3.6405,3.6405,3.6632,3.711,3.711,3.7412,3.804,3.8567,3.9145,3.9697,3.9697,3.9697,3.9697,3.9697,3.9697,3.9697,3.9697,3.9697,3.9697,3.9697,3.9697,3.9697,3.9697,3.9697,3.9697,3.9697,4.0023,4.0499,4.1152,4.1681,4.221,4.2838,4.3014,4.3014,4.3014,4.3014,4.3014,4.3014,4.3014,4.2681,4.1558,3.9428,3.7738,3.7558,3.6359,3.5387,3.5387,3.5387,3.5387,3.5387,3.5387,3.5387,3.5387,3.5387,3.5387,3.5387,3.5387,3.5387,3.5387,3.5387,3.5593,3.6101,3.6494,3.6929,3.7384,3.7467,3.7715,3.8191,3.8191,3.8191,3.8191,3.8191,3.8191,2.1393,2.4271,2.7278,3.0577,3.1304,3.1543,3.2817,3.2982,3.2918,3.3068,3.309,3.309,3.309,3.309,3.309,3.309,3.309,3.309,3.309,3.309,3.309,3.309,3.3847,3.4427,3.4678,3.5504,3.613,3.638,3.6405,3.6405,3.6405,3.6405,3.6405,3.6405,3.6405,3.6405,3.6405,3.6405,3.6405,3.6405,3.6405,3.6683,3.721,3.7513,3.7965,3.8542,3.8793,3.9195,3.9697,3.9697,3.9697,3.9697,3.9697,3.9697,3.9697,3.9697,3.9697,3.9697,3.9697,3.9697,3.9697,3.9697,3.9898,4.0149,4.0149,4.0524,4.1076,4.163,4.2009,4.2338,4.2864,4.3014,4.3014,4.3014,4.3014,4.2793,4.2093,4.1952,4.1358,3.934,3.8067,3.7067,3.6359,3.5767,3.5387,3.5387,3.5387,3.5387,3.5387,3.5387,3.5387,3.5387,3.5387,3.5387,3.5387,3.5387,3.5387,3.5387,3.5387,3.5718,3.6473,3.6701,3.7136,3.786,3.7881,3.7984,3.8191,3.8191,3.8191,3.8191,3.8191,3.8191,2.1554,2.3844,2.5921,2.9648,3.0538,3.0982,3.2696,3.2939,3.2853,3.3047,3.309,3.309,3.309,3.309,3.309,3.309,3.309,3.309,3.309,3.309,3.314,3.3291,3.4148,3.4753,3.4904,3.5828,3.6405,3.6405,3.6405,3.6405,3.6405,3.6405,3.6405,3.6405,3.6405,3.6405,3.6405,3.6405,3.6405,3.6405,3.6556,3.6884,3.7412,3.7965,3.8542,3.9095,3.9095,3.9346,3.9697,3.9697,3.9697,3.9697,3.9697,3.9697,3.9697,3.9697,3.9697,3.9697,3.9697,3.9697,3.9722,3.9848,4.0174,4.0524,4.065,4.1076,4.1549,4.1679,4.182,4.1935,4.2023,4.2037,4.2037,4.2037,4.2037,4.1866,4.1243,4.0587,3.9545,3.7648,3.7037,3.6511,3.5572,3.5387,3.5387,3.5387,3.5387,3.5387,3.5387,3.5387,3.5387,3.5387,3.5387,3.5387,3.5387,3.5387,3.5387,3.5387,3.5511,3.5956,3.6763,3.6908,3.7363,3.8171,3.8191,3.8191,3.8191,3.8191,3.8191,3.8191,3.8191,3.8191,1.8607,2.0112,2.2175,2.7042,2.8656,2.9715,3.2487,3.309,3.3068,3.309,3.309,3.309,3.309,3.309,3.309,3.309,3.309,3.309,3.309,3.309,3.3291,3.3796,3.4374,3.4904,3.5408,3.6031,3.6405,3.6405,3.6405,3.6405,3.6405,3.6405,3.6405,3.6405,3.6405,3.6405,3.6405,3.6405,3.6405,3.6405,3.6909,3.7437,3.799,3.8592,3.9145,3.9647,3.9647,3.9672,3.9697,3.9697,3.9697,3.9697,3.9697,3.9697,3.9697,3.9697,3.9697,3.9697,3.9697,3.9697,3.9772,4.03,4.0474,4.0575,4.1102,4.1681,4.1916,4.0727,4.0752,4.088,3.9715,3.9393,3.9393,3.9393,3.9393,3.9715,4.087,3.9193,3.7459,3.7339,3.6328,3.5479,3.5418,3.5387,3.5387,3.5387,3.5387,3.5387,3.5387,3.5387,3.5387,3.5387,3.5387,3.5387,3.5387,3.5387,3.5387,3.5387,3.58,3.6287,3.6784,3.7218,3.7695,3.8171,3.8191,3.8191,3.8191,3.8191,3.8191,3.8191,3.8191,3.8191,1.8318,1.9547,2.108,2.4992,2.72,2.8831,3.0602,3.2085,3.309,3.309,3.309,3.309,3.309,3.309,3.309,3.309,3.309,3.309,3.309,3.309,3.3316,3.3847,3.4352,3.4904,3.5433,3.6031,3.6405,3.6405,3.6405,3.6405,3.6405,3.6405,3.6405,3.6405,3.6405,3.6405,3.6405,3.6405,3.6557,3.6909,3.711,3.7688,3.8592,3.8793,3.9195,3.9697,3.9697,3.9697,3.9697,3.9697,3.9697,3.962,3.8842,3.853,3.8475,3.7713,3.7447,3.7447,3.7447,3.7634,3.8075,3.9075,3.9827,4.0547,4.1563,4.1709,4.1403,4.0925,4.0358,3.9773,3.9304,3.9187,3.9187,3.9187,3.8595,3.8119,3.8543,3.7947,3.7067,3.6237,3.5705,3.5387,3.5387,3.5387,3.5387,3.5387,3.5387,3.5387,3.5387,3.5387,3.5387,3.5387,3.5387,3.5387,3.5387,3.5387,3.5511,3.5821,3.6018,3.6453,3.7218,3.7405,3.7715,3.8171,3.8191,3.8191,3.8191,3.8191,3.8191,3.8191,3.8191,3.8191,1.7339,1.8418,1.9836,2.3361,2.5035,2.6614,2.9654,3.1014,3.1943,3.2914,3.309,3.309,3.309,3.309,3.309,3.309,3.309,3.309,3.309,3.309,3.3366,3.4098,3.4477,3.4979,3.5732,3.6155,3.6405,3.6405,3.6405,0.0,3.6405,3.6405,3.6405,3.6405,3.6405,3.6405,3.6405,3.6581,3.6859,3.7186,3.7587,3.8165,3.8894,3.9095,3.9371,3.9697,3.9697,3.9697,3.9697,3.9697,3.9697,3.9594,3.8372,3.7897,3.7764,3.6619,3.6185,3.6208,3.6392,3.664,3.7095,3.8276,3.9116,3.985,4.0862,4.084,4.0355,3.9949,3.9216,3.8477,3.8029,3.791,3.791,3.791,3.7278,3.6664,3.6664,3.6664,3.642,3.5572,3.5387,3.5387,3.5387,3.5387,3.5387,3.5387,3.5387,3.5387,3.5387,3.5387,3.5387,3.5387,3.5387,3.5387,3.5387,3.5531,3.5759,3.6101,3.6411,3.6846,3.7467,3.7653,3.7881,3.8171,3.8191,3.8191,3.8191,3.8191,3.8191,3.8191,3.8191,3.8191,0.0,0.0,0.0,2.1992,2.2106,2.3009,2.9634,2.9871,2.9507,3.2416,3.2989,3.3014,3.309,3.309,3.309,3.309,3.309,3.309,3.309,3.309,3.3517,3.4577,3.4703,3.5152,3.6281,3.6405,3.6405,3.6405,3.6405,3.6405,3.6405,3.6405,3.6405,3.6405,3.6405,3.6405,3.643,3.6934,3.7235,3.7261,3.8366,3.8894,3.8944,3.9472,3.9697,3.9697,3.9697,3.9697,3.9697,3.9697,3.9671,3.9517,3.8319,3.7844,3.766,3.6511,3.6104,3.6145,3.6644,3.6799,3.701,3.7994,3.8366,3.8457,3.9049,3.9157,3.8892,3.767,3.7278,3.6946,3.5705,3.5387,3.5387,3.5387,3.5387,3.5387,3.5387,3.5387,3.5387,3.5387,3.5387,3.5387,3.5387,3.5387,3.5387,3.5387,3.5387,3.5387,3.5387,3.5387,3.5387,3.5387,3.5387,3.5407,3.5407,3.5852,3.6121,3.6142,3.6991,3.7508,3.7508,3.7943,3.8191,3.8191,3.8191,3.8191,3.8191,3.8191,3.8191,3.8191,3.8191,3.8191,1.5653,0.0,0.0,0.0,0.0,0.0,2.4214,2.5377,2.6832,3.0055,3.0357,3.0683,3.2713,3.309,3.309,3.309,3.309,3.309,3.309,3.309,3.3517,3.4577,3.4703,3.5152,3.6281,3.6405,3.6405,0.0,3.6405,3.6405,3.6405,3.6405,3.6405,3.6405,3.6405,3.6606,3.6984,3.7135,3.7612,3.8441,3.8743,3.9095,3.9471,3.9622,3.9697,3.9697,3.9697,3.9697,3.9697,3.9697,3.9206,3.8267,3.7126,3.6181,3.53,3.4127,3.3678,3.3742,3.4211,3.4573,3.5104,3.6619,3.7333,3.7821,3.8876,3.8566,3.776,3.7399,3.6633,3.5828,3.5479,3.5387,3.5387,3.5387,3.5387,3.5387,3.5387,3.5387,3.5387,3.5387,3.5387,3.5387,3.5387,3.5387,3.5387,3.5387,3.5387,3.5387,3.5387,3.5387,3.5387,3.5387,3.5387,3.5531,3.5894,3.6039,3.639,3.7074,3.7343,3.7653,3.7984,3.8109,3.8191,3.8191,3.8191,3.8191,3.8191,3.8191,3.8191,3.8191,3.8191,3.8191,1.6024,1.626,1.6751,1.7791,0.0,0.0,2.3552,2.4559,2.5945,3.0281,3.0909,3.116,3.2813,3.309,3.309,3.309,3.309,3.309,3.309,3.309,3.3416,3.4274,3.4552,3.5029,3.5931,3.6256,3.6405,3.6405,3.6405,3.6405,3.6405,3.6405,3.6405,3.6405,3.6405,3.6658,3.721,3.7412,3.799,3.8894,3.912,3.9396,3.9697,3.918,3.8947,3.8947,3.8947,3.8685,3.8267,3.8764,3.8554,3.7737,3.6127,3.5085,3.4401,3.3371,3.2996,3.3099,3.377,3.4164,3.4574,3.5737,3.6267,3.6664,3.7369,3.7119,3.6511,3.6511,3.5982,3.5387,3.5387,3.5387,3.5387,3.5387,3.5387,3.5387,3.5387,3.5387,3.5387,3.5387,3.5387,3.5387,3.5387,3.5387,3.5387,3.5387,3.5387,3.5387,3.5387,3.5552,3.5614,3.5407,3.5738,3.6039,3.6101,3.6473,3.6908,3.7467,3.7674,3.7902,3.8171,3.8191,3.8191,3.8191,3.8191,3.8191,3.8191,3.8191,3.8191,3.8191,3.8191,3.8191,1.6671,1.6726,1.7102,1.8469,1.7771,0.0,2.4741,2.5002,2.5403,3.0809,3.1859,3.1934,3.2286,3.2361,3.2361,3.234,3.2562,3.2813,3.3065,3.309,3.3316,3.3847,3.4352,3.4904,3.5433,3.6031,3.6405,3.6405,3.6405,3.6405,3.6405,3.6405,3.6405,3.6405,3.6455,3.6733,3.7286,3.7839,3.8391,3.8994,3.9471,3.9697,3.9671,3.8451,3.7897,3.7897,3.7791,3.7153,3.6267,3.7153,3.7501,3.7314,3.53,3.4457,3.4292,3.3657,3.3439,3.3605,3.4495,3.4786,3.4868,3.5273,3.5387,3.5387,3.5387,3.5387,3.5387,3.5387,3.5387,3.5387,3.5387,3.5387,3.5387,3.5387,3.5387,3.5387,3.5387,3.5387,3.5387,3.5387,3.5387,3.5387,3.5387,3.5387,3.5387,3.5387,3.5387,3.5387,3.5387,3.5832,3.5956,3.5511,3.6287,3.666,3.6287,3.7032,3.7508,3.757,3.7964,3.8191,3.8191,3.8191,3.8191,3.8191,3.8191,3.8191,3.8191,3.8191,3.8191,3.8191,3.8191,3.8191,1.8063,1.8096,1.8369,1.7711,1.8358,0.0,1.9158,1.9296,2.0374,2.3712,2.4054,2.4598,2.7278,2.7781,2.7727,2.7558,2.9176,3.108,3.2839,3.309,3.3316,3.3847,3.4352,3.4904,3.5433,3.6031,3.6405,3.6405,3.6405,3.6405,3.6405,3.6405,3.6405,3.6405,3.6808,3.7287,3.7839,3.8441,3.8994,3.9546,3.9647,3.9697,3.9671,3.8451,3.7897,3.7844,3.6915,3.6402,3.6158,3.5443,3.5162,3.5135,3.4664,3.4118,3.3592,3.3464,3.3646,3.404,3.4599,3.4786,3.4868,3.5273,3.5387,3.5387,3.5387,3.5387,3.5387,3.5387,3.5387,3.5387,3.5387,3.5387,3.5387,3.5387,3.5387,3.5387,3.5387,3.5387,3.5387,3.5387,3.5387,3.5387,3.5387,3.5387,3.5387,3.5387,3.5387,3.5387,3.5387,3.5832,3.608,3.5945,3.6473,3.6908,3.7198,3.7384,3.7653,3.8026,3.8129,3.8191,3.8191,3.8191,3.8191,3.8191,3.8191,3.8191,3.8191,3.8191,3.8191,3.8191,3.8191,3.8191,1.7993,1.7743,1.8014,1.8001,1.8236,0.0,0.0,1.9584,2.0301,2.3326,2.3527,2.3728,2.5678,2.6055,2.6113,2.6304,2.8286,2.9899,3.0175,3.1884,3.319,3.3467,3.4223,3.4803,3.5056,3.5881,3.6405,3.6405,3.6405,3.6405,3.6405,3.6405,3.6531,3.6783,3.706,3.7612,3.8442,3.8743,3.917,3.9697,3.9697,3.9697,3.9645,3.787,3.7046,3.6992,3.5854,3.5002,3.4469,3.4497,3.4285,3.3933,3.3933,3.3738,3.346,3.3936,3.4247,3.4495,3.4972,3.5086,3.5128,3.5325,3.5387,3.5387,3.5387,3.5387,3.5387,3.5387,3.5387,3.5387,3.5387,3.5387,3.5387,3.5387,3.5387,3.5387,3.5387,3.5387,3.5387,3.5387,3.5387,3.5387,3.5387,3.5387,3.5387,3.5387,3.5593,3.5738,3.5738,3.637,3.6722,3.6473,3.7074,3.7488,3.7488,3.7715,3.7943,3.8171,3.8191,3.8191,3.8191,3.8191,3.8191,3.8191,3.8191,3.8191,3.8191,3.8191,3.8191,3.8191,3.8191,3.8191,1.8375,1.7933,1.8228,1.8685,1.8498,1.8722,0.0,0.0,0.0,2.3492,2.3778,2.3687,2.423,2.433,2.4481,2.4933,2.6892,2.7871,2.648,2.9478,3.1838,3.1918,3.3574,3.4555,3.4207,3.5052,3.5803,3.6355,3.5902,3.5828,3.638,3.6405,3.6632,3.7185,3.7287,3.7864,3.8894,3.8994,3.9271,3.9697,3.9697,3.9594,3.9284,3.718,3.6077,3.5827,3.4664,3.3614,3.2784,3.3869,3.3955,3.3397,3.3397,3.3522,3.377,3.4516,3.4848,3.4972,3.5293,3.5387,3.5387,3.5387,3.5387,3.5387,3.5387,3.5387,3.5387,3.5387,3.5387,3.5387,3.5387,3.5387,3.5387,3.5387,3.5387,3.5387,3.5387,3.5387,3.5387,3.5387,3.5387,3.5387,3.5387,3.5387,3.5428,3.5511,3.5862,3.6152,3.6246,3.697,3.7343,3.697,3.7674,3.8026,3.7653,3.7964,3.8191,3.8191,3.8191,3.8191,3.8191,3.8191,3.8191,3.8191,3.8191,3.8191,3.8191,3.8191,3.8191,3.8191,3.8191,3.8191,2.1335,2.1375,2.1687,1.938,2.0269,2.0886,1.7773,0.0,1.8455,1.8341,0.0,1.912,1.9635,0.0,0.0,1.9681,2.1634,2.304,2.2745,2.5319,2.7376,2.7671,3.1835,3.4081,3.2475,3.2531,3.3696,3.6229,3.4095,3.3771,3.6279,3.6405,3.6632,3.7185,3.7663,3.8216,3.8894,3.9371,3.9622,3.9697,3.9697,3.9154,3.8056,3.678,3.5663,3.4636,3.3445,3.2841,3.2739,3.3314,3.3472,3.3397,3.3397,3.3915,3.464,3.4744,3.5034,3.5355,3.5366,3.5387,3.5387,3.5387,3.5387,3.5387,3.5387,3.5387,3.5387,3.5387,3.5387,3.5387,3.5387,3.5387,3.5387,3.5387,3.5387,3.5387,3.5387,3.5387,3.5387,3.5387,3.5387,3.5387,3.5387,3.5387,3.5531,3.5976,3.6173,3.6379,3.668,3.7177,3.7467,3.7425,3.7881,3.8171,3.8142,3.815,3.8191,3.8191,3.8191,3.8191,3.8191,3.8191,3.8191,3.8191,3.8191,3.8191,3.8191,3.8191,3.8191,3.8191,3.8191,3.8191,2.0918,2.1423,2.2144,2.01,2.0574,2.0777,1.8047,1.7316,1.7239,1.7361,0.0,0.0,0.0,0.0,0.0,0.0,2.0362,2.1465,2.0445,2.3306,2.582,2.6604,0.0,0.0,3.1985,0.0,0.0,0.0,3.3796,3.342,3.6254,3.6405,3.6783,3.7638,3.7889,3.8442,3.9371,3.9572,3.9521,3.9245,3.9546,3.8903,3.7414,3.6583,3.558,3.4413,3.3218,3.2843,3.312,3.3335,3.3729,3.4205,3.4205,3.4433,3.4827,3.5045,3.5252,3.5387,3.5387,3.5387,3.5387,3.5387,3.5387,3.5387,3.5387,3.5387,3.5387,3.5387,3.5387,3.5387,3.5387,3.5387,3.5387,3.5387,3.5387,3.5387,3.5387,3.5387,3.5387,3.5387,3.5387,3.5469,3.5769,3.5573,3.5728,3.6671,3.6825,3.6949,3.7177,3.7612,3.7902,3.7902,3.8067,3.8191,3.8191,3.8191,3.8191,3.8191,3.8191,3.8191,3.8191,3.8191,3.8191,3.8191,3.8191,3.8191,3.8191,3.8191,3.8191,3.8191,3.8191,3.8191,2.175,2.2198,2.2752,2.0531,2.0362,2.0234,1.8172,1.7453,1.7239,1.7361,1.7526,0.0,0.0,0.0,1.7928,1.8154,0.0,2.0162,1.8945,2.1214,2.3386,2.4474,2.5762,0.0,0.0,0.0,0.0,0.0,0.0,3.2616,3.6229,3.6405,3.6884,3.7965,3.8015,3.8542,3.9697,3.9697,3.9446,3.8894,3.9113,3.8287,3.6609,3.6006,3.5152,3.4153,3.3265,3.3161,3.3605,3.3729,3.4185,3.4806,3.4931,3.4972,3.5013,3.5293,3.5387,3.5387,3.5387,3.5387,3.5387,3.5387,3.5387,3.5387,3.5387,3.5387,3.5387,3.5387,3.5387,3.5387,3.5387,3.5387,3.5387,3.5387,3.5387,3.5387,3.5387,3.549,3.5573,3.5573,3.5614,3.5759,3.609,3.6007,3.6225,3.7147,3.7437,3.7582,3.7674,3.7984,3.8191,3.8191,3.8191,3.8191,3.8191,3.8191,3.8191,3.8191,3.8191,3.8191,3.8191,3.8191,3.8191,3.8191,3.8191,3.8191,3.8191,3.8191,3.8191,3.8191,3.8191,3.8191,2.5463,2.5054,2.4504,2.0433,1.9918,1.9727,1.7054,1.7733,1.8632,1.7613,1.9082,2.0226,1.9146,1.8958,1.8782,1.8267,1.8254,0.0,0.0,1.8318,1.8745,1.9717,2.27,0.0,0.0,0.0,0.0,0.0,0.0,0.0,3.6103,3.6405,3.6884,3.7965,3.8015,3.8542,3.9697,3.9697,3.9446,3.8894,3.826,3.708,3.5424,3.483,3.4139,3.3435,3.3377,3.3646,3.4102,3.4558,3.4765,3.4827,3.5231,3.5366,3.5366,3.5387,3.5387,3.5387,3.5387,3.5387,3.5387,3.5387,3.5387,3.5387,3.5387,3.5387,3.5387,3.5387,3.5387,3.5387,3.5387,3.5387,3.5387,3.5387,3.5387,3.5387,3.5387,3.5769,3.608,3.608,3.6173,3.6297,3.6297,3.6825,3.7251,3.7292,3.781,3.815,3.8204,3.8171,3.8191,3.8191,3.8191,3.8191,3.8191,3.8191,3.8191,3.8191,3.8191,3.8191,3.8191,3.8191,3.8191,3.8191,3.8191,3.8191,3.8191,3.8191,3.8191,3.8191,3.8191,3.8191,0.0,0.0,2.6226,2.2299,2.176,2.1335,1.8141,1.815,1.8596,1.759,1.8844,1.9761,1.8669,1.8757,1.8832,1.8292,1.8493,1.8493,0.0,1.7663,1.7916,1.8583,2.1595,2.4001,0.0,0.0,0.0,0.0,0.0,0.0,0.0,3.6733,3.7261,3.799,3.8166,3.8741,3.9697,3.9517,3.8964,3.8042,3.7754,3.6549,3.4593,3.4397,3.3982,3.3389,3.3493,3.3914,3.4578,3.4723,3.4972,3.5211,3.5355,3.5387,3.5387,3.5387,3.5387,3.5387,3.5387,3.5387,3.5387,3.5387,3.5387,3.5387,3.5387,3.5387,3.5387,3.5387,3.5387,3.5387,3.5387,3.5387,3.5387,3.5387,3.5387,3.55,3.5811,3.5997,3.6204,3.6515,3.6618,3.671,3.7053,3.7281,3.7562,3.7852,3.808,3.8191,3.8191,3.8191,3.8191,3.8191,3.8191,3.8191,3.8191,3.8191,3.8191,3.8191,3.8191,3.8191,3.8191,3.8191,3.8191,3.8191,3.8191,3.8191,3.8191,3.8191,3.8191,3.8191,3.8191,3.8191,2.6328,2.7155,0.0,2.3949,2.3506,2.3078,1.9685,1.9706,2.017,1.9182,1.9643,2.039,2.0808,1.998,1.9283,1.9507,1.9071,1.8343,0.0,1.7437,1.7802,1.8154,2.025,2.2192,0.0,0.0,0.0,0.0,0.0,0.0,0.0,0.0,3.7364,3.7693,3.8165,3.8763,3.9543,3.9413,3.8737,3.7568,3.7109,3.5937,3.4217,3.3784,3.3563,3.356,3.3757,3.4206,3.483,3.4952,3.5169,3.5387,3.5387,3.5387,3.5387,3.5387,3.5387,3.5387,3.5387,3.5387,3.5387,3.5387,3.5387,3.5387,3.5387,3.5387,3.5428,3.5593,3.5511,3.5428,3.5625,3.5511,3.5428,3.5593,3.5635,3.579,3.6266,3.6494,3.6701,3.6991,3.7177,3.7384,3.7695,3.7736,3.7839,3.815,3.8191,3.8191,3.8191,3.8191,3.8191,3.8191,3.8191,3.8191,3.8191,3.8191,3.8191,3.8191,3.8191,3.8191,3.8191,3.8191,3.8191,3.8191,3.8191,3.8191,3.8191,3.8191,3.8191,3.8191,3.8191,3.8274]},{"header":{"parameterUnit":"m.s-1","parameterCategory":1,"la1":30.6,"la2":29.2853,"lo1":-89.7004,"lo2":-87.6739,"dx":0.0162,"dy":0.0183,"nx":112,"ny":82,"refTime":"2022-11-05T00:00:00:Z","depth":0,"parameterNumber":3,"parameterNumberName":"V-component_of_WINDS"},"data":[0.0,0.0,0.0,0.0,0.0,0.0,0.0,0.0,0.0,0.0,0.0,0.0,0.0,0.0,0.0,0.0,0.0,0.0,0.0,0.0,0.0,0.0,0.0,0.0,0.0,0.0,0.0,0.0,0.0,0.0,0.0,0.0,0.0,0.0,0.0,0.0,0.0,0.0,0.0,0.0,0.0,0.0,0.0,0.0,0.0,0.0,0.0,0.0,0.0,0.0,0.0,0.0,0.0,0.0,0.0,0.0,0.0,0.0,0.0,0.0,0.0,0.0,0.0,0.0,0.0,0.0,0.0,0.0,0.0,0.0,0.0,0.0,0.0,0.0,0.0,0.0,0.0,0.0,0.0,0.0,0.0,0.0,0.0,0.0,0.0,0.0,0.0,0.0,0.0,0.0,2.6033,2.7991,2.9219,2.9907,2.9907,2.9907,2.8427,2.4963,0.0,0.0,0.0,0.0,0.0,0.0,0.0,0.0,0.0,0.0,0.0,0.0,0.0,0.0,0.0,0.0,0.0,0.0,0.0,0.0,0.0,0.0,0.0,0.0,0.0,0.0,0.0,0.0,0.0,0.0,0.0,0.0,0.0,0.0,0.0,0.0,0.0,0.0,0.0,0.0,0.0,0.0,0.0,0.0,0.0,0.0,0.0,0.0,0.0,0.0,0.0,0.0,0.0,0.0,0.0,0.0,0.0,0.0,0.0,0.0,0.0,0.0,0.0,0.0,0.0,0.0,0.0,0.0,0.0,0.0,0.0,0.0,0.0,0.0,0.0,0.0,0.0,0.0,0.0,0.0,0.0,0.0,0.0,0.0,0.0,0.0,0.0,0.0,0.0,0.0,0.0,0.0,0.0,0.0,0.0,0.0,0.0,0.0,0.0,0.0,0.0,0.0,0.0,0.0,2.5693,3.0404,3.1092,3.1212,3.1212,3.1212,2.9567,2.5693,0.0,0.0,0.0,0.0,0.0,0.0,0.0,0.0,0.0,0.0,0.0,0.0,0.0,0.0,0.0,0.0,0.0,0.0,0.0,0.0,0.0,0.0,0.0,0.0,0.0,0.0,0.0,0.0,0.0,0.0,0.0,0.0,0.0,0.0,0.0,0.0,0.0,0.0,0.0,0.0,0.0,0.0,0.0,0.0,0.0,0.0,0.0,0.0,0.0,0.0,0.0,0.0,0.0,0.0,0.0,0.0,0.0,0.0,0.0,0.0,0.0,0.0,0.0,0.0,0.0,0.0,0.0,0.0,0.0,0.0,0.0,0.0,0.0,0.0,0.0,0.0,0.0,0.0,0.0,0.0,0.0,0.0,0.0,0.0,0.0,0.0,0.0,0.0,0.0,0.0,0.0,0.0,0.0,0.0,0.0,0.0,0.0,0.0,0.0,0.0,0.0,0.0,0.0,2.4865,2.7624,3.1036,3.1467,3.1511,3.1511,3.1511,2.9806,2.5842,2.4358,0.0,0.0,0.0,0.0,0.0,0.0,0.0,0.0,0.0,0.0,0.0,0.0,0.0,0.0,0.0,0.0,0.0,0.0,0.0,0.0,0.0,0.0,0.0,0.0,0.0,0.0,0.0,0.0,0.0,0.0,0.0,0.0,0.0,0.0,0.0,0.0,0.0,0.0,0.0,0.0,0.0,0.0,0.0,0.0,0.0,0.0,0.0,0.0,0.0,0.0,0.0,0.0,0.0,0.0,0.0,0.0,0.0,0.0,0.0,0.0,0.0,0.0,0.0,0.0,0.0,0.0,0.0,0.0,0.0,0.0,0.0,0.0,0.0,0.0,0.0,0.0,0.0,0.0,0.0,0.0,0.0,0.0,0.0,0.0,0.0,0.0,0.0,0.0,0.0,0.0,0.0,0.0,0.0,0.0,0.0,0.0,0.0,0.0,0.0,0.0,0.0,0.0,2.7811,2.9727,3.1158,3.1438,3.1511,3.1511,3.1511,2.9806,2.5842,2.4358,0.0,0.0,0.0,0.0,0.0,0.0,0.0,0.0,0.0,0.0,0.0,0.0,0.0,0.0,0.0,0.0,0.0,0.0,0.0,0.0,0.0,0.0,0.0,0.0,0.0,0.0,0.0,0.0,0.0,0.0,0.0,0.0,0.0,0.0,0.0,0.0,0.0,0.0,0.0,0.0,0.0,0.0,0.0,0.0,0.0,0.0,0.0,0.0,0.0,0.0,0.0,0.0,0.0,0.0,0.0,0.0,0.0,0.0,0.0,0.0,0.0,0.0,0.0,0.0,0.0,0.0,0.0,0.0,0.0,0.0,0.0,0.0,0.0,0.0,0.0,0.0,0.0,0.0,0.0,0.0,0.0,0.0,0.0,0.0,0.0,0.0,0.0,0.0,0.0,0.0,0.0,0.0,0.0,0.0,0.0,0.0,0.0,0.0,0.0,0.0,0.0,0.0,2.821,3.1028,3.1278,3.1438,3.1511,3.1511,3.1511,2.9806,2.5842,2.4358,0.0,0.0,0.0,0.0,0.0,0.0,0.0,0.0,0.0,0.0,0.0,0.0,0.0,0.0,0.0,0.0,0.0,0.0,0.0,0.0,0.0,0.0,0.0,0.0,0.0,0.0,0.0,0.0,0.0,0.0,0.0,0.0,0.0,0.0,0.0,0.0,0.0,0.0,0.0,0.0,0.0,0.0,0.0,0.0,0.0,0.0,0.0,0.0,0.0,0.0,0.0,0.0,0.0,0.0,0.0,0.0,0.0,0.0,0.0,0.0,0.0,0.0,0.0,0.0,0.0,0.0,0.0,0.0,0.0,0.0,0.0,0.0,0.0,0.0,0.0,0.0,0.0,0.0,0.0,0.0,0.0,0.0,0.0,0.0,0.0,0.0,0.0,0.0,0.0,0.0,0.0,0.0,0.0,0.0,0.0,0.0,0.0,0.0,0.0,0.0,0.0,0.0,2.7443,3.0307,3.15,3.2092,3.2449,3.2449,3.2495,3.0711,2.6312,0.0,0.0,0.0,0.0,0.0,0.0,0.0,0.0,0.0,0.0,0.0,0.0,0.0,0.0,0.0,0.0,0.0,0.0,0.0,0.0,0.0,0.0,0.0,0.0,0.0,0.0,0.0,0.0,0.0,0.0,0.0,0.0,0.0,0.0,0.0,0.0,0.0,0.0,0.0,0.0,0.0,0.0,0.0,0.0,0.0,0.0,0.0,0.0,0.0,0.0,0.0,0.0,0.0,0.0,0.0,0.0,0.0,0.0,0.0,0.0,0.0,0.0,0.0,0.0,0.0,0.0,0.0,0.0,0.0,0.0,0.0,0.0,0.0,0.0,0.0,0.0,0.0,0.0,0.0,0.0,0.0,0.0,0.0,0.0,0.0,0.0,0.0,0.0,0.0,0.0,0.0,0.0,0.0,0.0,0.0,0.0,0.0,0.0,0.0,0.0,0.0,0.0,2.4247,2.7894,3.0705,3.1963,3.2615,3.3018,3.3018,3.3129,3.1248,2.6599,0.0,0.0,0.0,0.0,0.0,0.0,0.0,0.0,0.0,0.0,0.0,0.0,0.0,0.0,0.0,0.0,0.0,0.0,0.0,0.0,0.0,0.0,0.0,0.0,0.0,0.0,0.0,0.0,0.0,0.0,0.0,0.0,0.0,0.0,0.0,0.0,0.0,0.0,0.0,0.0,0.0,0.0,0.0,0.0,0.0,0.0,0.0,0.0,0.0,0.0,0.0,0.0,0.0,0.0,0.0,0.0,0.0,0.0,0.0,0.0,0.0,0.0,0.0,0.0,0.0,0.0,0.0,0.0,0.0,0.0,0.0,0.0,0.0,0.0,0.0,0.0,0.0,0.0,0.0,0.0,0.0,0.0,0.0,0.0,0.0,0.0,0.0,0.0,0.0,0.0,0.0,0.0,0.0,0.0,0.0,0.0,0.0,0.0,0.0,0.0,0.0,0.0,2.5641,2.9828,3.2706,3.2706,3.2893,3.3003,3.3003,3.3143,3.1234,0.0,0.0,0.0,0.0,0.0,0.0,0.0,0.0,0.0,0.0,0.0,0.0,0.0,0.0,0.0,0.0,0.0,0.0,0.0,0.0,0.0,0.0,0.0,0.0,0.0,0.0,0.0,0.0,0.0,0.0,0.0,0.0,0.0,0.0,0.0,0.0,0.0,0.0,0.0,0.0,0.0,0.0,0.0,0.0,0.0,0.0,0.0,0.0,0.0,0.0,0.0,0.0,0.0,0.0,0.0,0.0,0.0,0.0,0.0,0.0,0.0,0.0,0.0,0.0,0.0,0.0,0.0,0.0,0.0,0.0,0.0,0.0,0.0,0.0,0.0,0.0,0.0,0.0,0.0,0.0,0.0,0.0,0.0,0.0,0.0,0.0,0.0,0.0,0.0,0.0,0.0,0.0,0.0,0.0,0.0,0.0,0.0,0.0,0.0,0.0,0.0,0.0,0.0,2.5645,3.0162,3.3262,3.3262,3.3702,3.3997,3.3997,3.426,3.2238,2.7189,0.0,0.0,0.0,0.0,0.0,0.0,0.0,0.0,0.0,0.0,0.0,0.0,0.0,0.0,0.0,0.0,0.0,0.0,0.0,0.0,0.0,0.0,0.0,0.0,0.0,0.0,0.0,0.0,0.0,0.0,0.0,0.0,0.0,0.0,0.0,0.0,0.0,0.0,0.0,0.0,0.0,0.0,0.0,0.0,0.0,0.0,0.0,0.0,0.0,0.0,0.0,0.0,0.0,0.0,0.0,0.0,0.0,0.0,0.0,0.0,0.0,0.0,0.0,0.0,0.0,0.0,0.0,0.0,0.0,0.0,0.0,0.0,0.0,0.0,0.0,0.0,0.0,0.0,0.0,0.0,0.0,0.0,0.0,0.0,0.0,0.0,0.0,0.0,0.0,0.0,0.0,0.0,0.0,0.0,0.0,0.0,0.0,0.0,0.0,0.0,0.0,0.0,2.6023,3.067,3.3864,3.3864,3.4196,3.4382,3.4382,3.4652,3.3008,2.8802,0.0,0.0,0.0,0.0,0.0,0.0,0.0,0.0,0.0,0.0,0.0,0.0,0.0,0.0,0.0,0.0,0.0,0.0,0.0,0.0,0.0,0.0,0.0,0.0,0.0,0.0,0.0,0.0,0.0,0.0,0.0,0.0,0.0,0.0,0.0,0.0,0.0,0.0,0.0,0.0,0.0,0.0,0.0,0.0,0.0,0.0,0.0,0.0,0.0,0.0,0.0,0.0,0.0,0.0,0.0,0.0,0.0,0.0,0.0,0.0,0.0,0.0,0.0,0.0,0.0,0.0,0.0,0.0,0.0,0.0,0.0,0.0,0.0,0.0,0.0,0.0,0.0,0.0,0.0,0.0,0.0,0.0,0.0,0.0,0.0,0.0,0.0,0.0,0.0,0.0,0.0,0.0,0.0,0.0,0.0,0.0,0.0,0.0,0.0,0.0,0.0,0.0,2.6733,3.1293,3.4382,3.4382,3.4382,3.4382,3.4382,3.458,3.3553,3.0862,0.0,0.0,0.0,0.0,0.0,0.0,0.0,0.0,0.0,0.0,0.0,0.0,0.0,0.0,0.0,0.0,0.0,0.0,0.0,0.0,0.0,0.0,0.0,0.0,0.0,0.0,0.0,0.0,0.0,0.0,0.0,0.0,0.0,0.0,0.0,0.0,0.0,0.0,0.0,0.0,0.0,0.0,0.0,0.0,0.0,0.0,0.0,0.0,0.0,0.0,0.0,0.0,0.0,0.0,0.0,0.0,0.0,0.0,0.0,0.0,1.9217,1.6771,0.0,0.0,0.0,0.0,0.0,0.0,0.0,0.0,0.0,0.0,0.0,0.0,0.0,0.0,0.0,0.0,0.0,0.0,0.0,0.0,0.0,0.0,0.0,0.0,0.0,0.0,0.0,0.0,0.0,0.0,0.0,0.0,0.0,0.0,0.0,0.0,0.0,0.0,0.0,0.0,2.7361,3.1539,3.4382,3.4382,3.4382,3.4382,3.4382,3.458,3.3553,3.0862,2.9751,0.0,0.0,0.0,0.0,0.0,0.0,0.0,0.0,0.0,0.0,0.0,0.0,0.0,0.0,0.0,0.0,0.0,0.0,0.0,0.0,0.0,0.0,0.0,0.0,0.0,0.0,0.0,0.0,0.0,0.0,0.0,0.0,0.0,0.0,0.0,0.0,0.0,0.0,0.0,0.0,0.0,0.0,0.0,0.0,0.0,0.0,0.0,0.0,0.0,0.0,0.0,0.0,0.0,0.0,0.0,0.0,0.0,0.0,0.0,2.1917,2.0407,0.0,0.0,0.0,0.0,0.0,0.0,0.0,0.0,0.0,0.0,0.0,0.0,0.0,0.0,0.0,0.0,0.0,0.0,0.0,0.0,0.0,0.0,0.0,0.0,0.0,0.0,0.0,0.0,0.0,0.0,0.0,0.0,0.0,0.0,0.0,0.0,0.0,0.0,0.0,0.0,2.8013,3.2367,3.5311,3.5311,3.5038,3.4881,3.4881,3.4687,3.3964,3.2576,3.1127,0.0,0.0,0.0,0.0,0.0,0.0,0.0,0.0,0.0,0.0,0.0,0.0,0.0,0.0,0.0,0.0,0.0,0.0,0.0,0.0,0.0,0.0,0.0,0.0,0.0,0.0,0.0,0.0,0.0,0.0,0.0,0.0,0.0,0.0,0.0,0.0,0.0,0.0,0.0,0.0,0.0,0.0,0.0,0.0,0.0,0.0,0.0,0.0,0.0,0.0,0.0,0.0,0.0,2.4384,2.4791,2.4273,2.482,2.5936,2.7301,2.4658,2.4513,2.5849,2.2004,0.0,0.0,0.0,0.0,0.0,0.0,0.0,0.0,0.0,0.0,0.0,0.0,0.0,0.0,0.0,0.0,0.0,0.0,0.0,0.0,0.0,0.0,0.0,0.0,2.9319,2.9856,2.7752,0.0,0.0,0.0,0.0,0.0,0.0,0.0,0.0,0.0,0.0,0.0,2.9348,3.3499,3.6315,3.6315,3.5839,3.5566,3.5566,3.5038,3.4731,3.4731,3.2793,3.1226,0.0,0.0,0.0,0.0,0.0,0.0,0.0,0.0,0.0,0.0,0.0,0.0,0.0,0.0,0.0,0.0,0.0,0.0,0.0,0.0,0.0,0.0,0.0,0.0,0.0,0.0,0.0,0.0,0.0,0.0,0.0,0.0,1.942,1.9682,0.0,0.0,0.0,0.0,0.0,0.0,0.0,0.0,0.0,0.0,0.0,0.0,0.0,2.2667,2.345,2.5781,2.6941,2.697,2.884,2.9668,2.9595,2.9697,2.9871,3.0075,2.9668,0.0,2.7347,2.6242,0.0,0.0,0.0,0.0,0.0,0.0,0.0,0.0,0.0,0.0,0.0,0.0,0.0,0.0,0.0,0.0,0.0,0.0,0.0,0.0,0.0,0.0,3.2661,3.3267,3.3599,3.3686,0.0,2.9261,2.5558,2.5239,2.4745,2.3728,0.0,0.0,0.0,0.0,0.0,0.0,3.2486,3.4864,3.6315,3.6315,3.6228,3.617,3.617,3.6112,3.6036,3.6036,3.5735,3.4566,3.2319,3.0863,0.0,0.0,0.0,0.0,0.0,0.0,0.0,0.0,0.0,0.0,0.0,0.0,0.0,0.0,0.0,0.0,0.0,0.0,0.0,0.0,0.0,0.0,0.0,0.0,0.0,0.0,0.0,0.0,0.0,1.8422,2.0378,2.1075,1.9788,1.8395,0.0,0.0,0.0,0.0,0.0,0.0,0.0,0.0,0.0,2.5127,2.5462,2.6258,2.7649,2.8782,2.9319,2.9348,3.0539,3.1119,3.1119,3.1496,3.1671,3.1671,3.1671,3.1191,3.0233,2.8144,2.6287,2.4634,0.0,0.0,0.0,0.0,2.3554,2.3961,2.5761,2.6329,2.6142,2.5446,0.0,0.0,0.0,0.0,0.0,0.0,0.0,2.6633,0.0,0.0,3.2716,3.408,3.469,3.4968,3.4968,3.3238,3.1177,2.9348,2.852,2.7039,2.3641,2.4791,0.0,0.0,0.0,3.2035,3.3761,3.5967,3.7389,3.7389,3.7052,3.6849,3.6849,3.6519,3.6315,3.6315,3.6693,3.6234,3.4758,3.3211,3.1335,0.0,0.0,0.0,0.0,0.0,0.0,0.0,0.0,0.0,0.0,0.0,0.0,0.0,0.0,0.0,0.0,0.0,0.0,0.0,0.0,0.0,0.0,0.0,0.0,0.0,0.0,0.0,0.0,2.0021,2.1627,2.2381,2.1801,2.06,0.0,0.0,0.0,0.0,0.0,0.0,2.3844,2.4532,2.5981,2.8376,2.8434,2.9203,3.0815,3.0844,3.0931,3.1105,3.1539,3.1771,3.1771,3.2264,3.2497,3.2497,3.2497,3.2497,3.2322,2.9914,2.8754,2.8289,2.6868,2.62,2.6242,2.7359,2.7562,2.762,3.0205,3.0771,3.0219,2.945,2.8841,2.7999,2.5607,0.0,0.0,0.0,0.0,2.855,3.096,3.2019,3.2861,3.4312,3.5171,3.5636,3.5636,3.5868,3.5415,0.0,3.2367,3.0844,2.701,2.8346,0.0,2.7521,3.0945,3.4184,3.5456,3.7128,3.826,3.8434,3.7912,3.7535,3.7535,3.707,3.678,3.678,3.7287,3.7358,3.6798,3.5402,3.4414,3.3939,0.0,0.0,0.0,0.0,0.0,0.0,0.0,0.0,0.0,0.0,0.0,0.0,0.0,0.0,0.0,0.0,0.0,0.0,0.0,0.0,0.0,0.0,0.0,0.0,0.0,0.0,0.0,0.0,0.0,2.3874,2.4256,0.0,0.0,0.0,0.0,2.356,2.3705,2.4866,2.7305,2.7492,2.8405,3.0379,3.0452,3.0786,3.1452,3.1452,3.1771,3.2409,3.2439,3.2439,3.2468,3.2497,3.2497,3.2497,3.2497,3.2497,3.2497,3.2322,3.1555,3.0437,3.0365,2.9929,2.945,3.0147,3.0757,3.1336,3.2119,3.238,3.2439,3.3022,3.1963,3.0408,3.0278,2.8942,0.0,0.0,3.08,3.1713,3.3703,3.4707,3.5218,3.5334,3.581,3.6257,3.6257,3.5839,3.5566,0.0,3.6007,3.5386,3.3342,0.0,3.34,3.3831,3.415,3.5473,3.858,3.8522,3.8434,3.9073,3.8551,3.8144,3.8144,3.8115,3.8115,3.8115,3.8153,3.8153,3.8115,3.7455,3.63,3.4599,3.3834,0.0,0.0,0.0,0.0,0.0,0.0,0.0,0.0,0.0,0.0,0.0,0.0,0.0,0.0,0.0,0.0,0.0,0.0,0.0,0.0,0.0,0.0,0.0,0.0,0.0,0.0,0.0,0.0,2.4629,2.5458,0.0,2.4232,2.5247,2.61,2.6345,2.749,2.8768,3.0088,3.0146,3.0669,3.1787,3.1816,3.1932,3.2148,3.2148,3.2264,3.2497,3.2948,3.3138,3.3167,3.3558,3.3715,3.3715,3.3715,3.3715,3.3715,3.3715,3.3238,3.2457,3.2457,3.2558,3.2729,3.2948,3.318,3.3396,3.3628,3.3715,3.3773,3.3993,3.3616,3.3035,3.3035,3.2861,3.279,3.3503,3.4126,3.4731,3.5427,3.5793,3.5967,3.5967,3.646,3.6936,3.6936,3.707,3.7273,3.7476,3.6867,3.5967,3.4898,3.5723,3.6188,3.52,3.6054,3.7273,3.8405,3.8725,3.8928,3.9189,3.9334,3.9421,3.9421,3.9421,3.9421,3.9421,4.0401,4.0755,4.0281,4.0545,4.0413,3.9756,3.9087,3.6209,0.0,0.0,0.0,0.0,0.0,0.0,0.0,0.0,0.0,0.0,0.0,0.0,0.0,0.0,0.0,0.0,0.0,0.0,0.0,0.0,0.0,0.0,0.0,0.0,0.0,2.3514,2.5645,2.5239,2.6707,2.7229,2.5926,2.7535,2.8667,2.8667,3.0045,3.109,3.1481,3.1713,3.2032,3.2497,3.2497,3.2613,3.2832,3.2832,3.2948,3.3135,3.3587,3.3806,3.3806,3.4225,3.4382,3.4382,3.4382,3.4382,3.4382,3.4382,3.4167,3.3806,3.3806,3.4051,3.4382,3.4382,3.4382,3.4382,3.4382,3.4382,3.4441,3.4661,3.4748,3.4777,3.498,3.5357,3.5694,3.5694,3.5996,3.6315,3.6315,3.6489,3.6635,3.6635,3.7128,3.7622,3.7622,3.7912,3.8202,3.8202,3.7535,3.6809,3.642,3.736,3.7709,3.6246,3.7273,3.8202,3.8202,3.858,3.8957,3.9189,3.9363,3.945,3.945,3.9276,3.9247,3.945,4.0501,4.0982,4.0692,4.0978,4.1277,4.1525,4.1262,3.8427,3.287,0.0,0.0,0.0,0.0,0.0,0.0,0.0,0.0,0.0,0.0,0.0,0.0,0.0,0.0,0.0,0.0,0.0,0.0,0.0,0.0,0.0,0.0,0.0,2.3044,2.4663,2.5907,2.5907,2.8129,2.9145,2.7898,2.9493,3.0627,3.0627,3.1206,3.1539,3.1568,3.2177,3.2526,3.2555,3.2555,3.2861,3.3532,3.3532,3.3806,3.4382,3.4412,3.4412,3.4441,3.4441,3.4441,3.4441,3.4441,3.4441,3.4441,3.4441,3.4441,3.4441,3.4412,3.4412,3.4412,3.4412,3.4441,3.4441,3.4441,3.4441,3.4574,3.5218,3.5421,3.5537,3.6112,3.6315,3.6326,3.6326,3.6326,3.6373,3.6373,3.682,3.7331,3.7331,3.7767,3.8202,3.8202,3.8202,3.8202,3.8202,3.8202,3.8202,3.8231,3.8202,3.7999,3.7429,3.7854,0.0,3.8202,3.8231,3.8463,3.9102,3.8609,3.8231,3.8231,3.7709,3.7622,3.8269,3.8453,3.881,3.9421,3.8794,3.8801,3.9487,4.0085,3.8879,3.5833,0.0,0.0,0.0,0.0,0.0,0.0,0.0,0.0,0.0,0.0,0.0,0.0,0.0,0.0,0.0,0.0,0.0,0.0,0.0,0.0,0.0,2.2864,2.4517,2.4384,2.6781,2.8551,2.8551,2.961,3.0205,2.9827,3.0684,3.1264,3.1264,3.1858,3.2454,3.2906,3.3109,3.3429,3.386,3.3889,3.3964,3.4138,3.4138,3.4254,3.4412,3.4881,3.5113,3.5142,3.559,3.5793,3.5793,3.5793,3.5793,3.5793,3.5793,3.5793,3.5706,3.476,3.469,3.5113,3.5113,3.5386,3.5793,3.5793,3.5793,3.5822,3.5996,3.6054,3.6083,3.6257,3.6646,3.7041,3.7041,3.7331,3.768,3.768,3.7825,3.7941,3.7941,3.8086,3.8202,3.8202,3.8202,3.8202,3.8202,3.8202,3.8347,3.8841,3.8522,3.8318,3.8638,3.8405,3.8202,3.8202,3.8609,3.8812,3.8522,3.8754,3.8928,3.8928,3.8783,3.9175,4.0283,4.1,4.1686,4.2385,4.2304,4.2061,4.1739,3.9139,3.7384,0.0,0.0,0.0,0.0,0.0,0.0,0.0,0.0,0.0,0.0,0.0,0.0,0.0,0.0,0.0,0.0,0.0,0.0,0.0,0.0,0.0,0.0,2.5388,2.6825,2.6868,2.8434,2.9711,2.9987,3.035,3.0699,3.096,3.1278,3.1626,3.1916,3.2542,3.308,3.3474,3.3748,3.4022,3.4382,3.4382,3.4528,3.4823,3.4806,3.4951,3.5195,3.559,3.5781,3.5781,3.6141,3.6315,3.6315,3.6315,3.6315,3.6315,3.6315,3.6315,0.0,0.0,0.0,0.0,0.0,3.5996,3.6315,3.6315,3.6315,3.6344,3.6635,3.6722,3.678,3.7012,3.7389,3.768,3.768,3.7941,3.8202,3.8202,3.8202,3.8202,3.8202,3.8202,3.8202,3.8202,3.8434,3.8609,3.8609,3.8812,0.0,3.9509,3.9044,3.8754,3.9131,3.9073,3.8899,3.8667,3.9189,3.9538,3.9421,3.977,4.0118,4.0379,4.0147,0.0,0.0,0.0,4.3274,4.4052,4.4137,0.0,0.0,0.0,0.0,0.0,0.0,0.0,0.0,3.6287,3.5569,0.0,0.0,0.0,0.0,0.0,0.0,0.0,0.0,0.0,0.0,0.0,0.0,0.0,0.0,0.0,0.0,2.8028,2.9624,2.9711,2.9711,2.9914,3.0539,3.0656,3.0902,3.1452,3.1626,3.1974,3.2555,3.3226,3.362,3.362,3.4109,0.0,0.0,0.0,3.4835,3.5508,3.5508,3.5781,3.6315,3.6373,3.6431,3.6431,3.6489,3.6519,3.6519,3.6519,3.6519,3.6519,3.6519,3.6519,3.6519,3.6443,3.6431,3.6431,3.6489,3.6519,3.6519,3.6519,0.0,0.0,3.7215,3.7418,3.7506,3.8057,3.8202,3.8202,3.8202,3.8202,3.8202,3.8202,3.8202,3.8202,3.8202,3.826,3.8318,3.8318,3.8841,3.9305,3.9305,3.9741,4.0147,4.0292,3.977,3.9334,3.9392,3.9857,4.0031,3.9596,4.0002,4.0525,4.1047,0.0,0.0,4.1947,4.1424,4.1448,4.2322,4.332,4.4216,4.4997,4.5063,4.5063,4.5063,4.5063,4.5646,4.691,4.691,4.691,4.6748,3.975,3.8195,0.0,0.0,0.0,0.0,0.0,0.0,0.0,0.0,0.0,0.0,0.0,0.0,0.0,0.0,0.0,2.71,2.8609,2.9798,3.0321,3.0408,3.0437,3.0583,3.1032,3.1365,3.1481,3.2483,3.3167,3.3284,3.3877,3.4225,3.4225,3.4324,3.4661,3.5189,3.5218,3.5491,3.6112,3.6141,3.617,3.6315,3.6867,0.0,3.7128,3.7622,3.7825,3.7825,3.7825,3.7825,3.7825,3.7825,3.7825,3.7796,3.7302,3.7128,3.7186,3.7651,3.7825,3.7825,3.7825,3.7825,3.7854,3.7999,3.8028,3.8057,3.8173,3.8202,0.0,3.8202,3.8202,3.8202,3.8202,3.8202,3.8202,3.8202,3.8609,3.9015,3.9015,3.9479,3.9915,3.9915,4.0031,4.0437,4.1512,4.0728,4.0118,4.0641,4.0815,4.1047,4.1482,4.1628,4.1541,4.1134,4.1105,4.1163,4.1279,4.1163,4.1941,4.3905,4.5425,4.6325,4.6471,4.6488,4.6488,4.6488,4.6488,4.6618,4.691,4.691,4.691,4.6877,4.5355,4.4998,0.0,0.0,0.0,0.0,0.0,0.0,0.0,0.0,0.0,0.0,0.0,2.3136,2.54,0.0,2.7287,2.8884,2.9697,3.0306,3.0945,3.1032,3.1032,3.1032,3.1307,3.1742,3.2425,3.3109,3.3649,3.3923,3.4225,3.4382,3.4382,3.4719,3.5055,3.5392,3.5694,3.6159,3.6809,3.6809,3.6936,3.7244,3.7593,3.7767,3.7767,3.8057,3.8202,3.8202,3.8202,3.8202,3.8202,3.8202,3.8202,3.8173,3.7883,3.7767,3.7796,3.8086,3.8202,3.8202,3.8202,3.8202,3.8202,3.8202,3.8202,3.8202,3.8202,3.8202,3.8202,3.8202,3.8202,3.8289,3.8609,3.8696,3.8783,3.9073,3.9421,3.9654,3.9654,4.0408,4.1105,4.1105,4.1599,4.215,4.2498,4.1976,4.1773,4.244,4.2557,4.2673,4.2992,4.305,4.3021,4.2992,4.2992,4.3158,4.3456,4.3902,4.5029,4.706,4.7952,4.8597,4.903,4.9048,4.9048,4.9048,4.9048,4.9048,4.9048,4.9048,4.9048,4.9048,4.8673,4.8285,0.0,0.0,0.0,0.0,0.0,0.0,0.0,2.0742,2.1828,2.3792,2.4634,2.5662,2.7854,2.8246,2.8783,3.0365,3.0699,3.096,3.1423,3.1626,3.1742,3.1858,3.1887,3.2309,3.3387,3.362,3.3894,3.4353,3.4499,3.4603,3.4603,3.5229,3.5636,3.577,3.6228,3.6809,3.7476,3.7458,3.7738,3.8202,3.8202,3.8202,3.8202,3.8202,3.8202,3.8202,3.8202,3.8202,3.8202,3.8202,3.8202,3.8202,3.8202,3.8202,3.8202,3.8202,3.8202,3.8202,3.8202,3.8202,3.8202,3.8202,3.8202,3.8202,3.8202,3.8289,3.8405,3.8405,3.8492,3.8696,3.9247,3.9363,3.9509,3.9973,4.0205,4.0292,4.0292,4.125,4.2092,4.2092,4.2934,4.3485,4.3079,4.2992,4.3166,4.3718,4.3805,4.3834,4.3979,4.3979,4.4182,4.4647,4.4727,4.4959,4.5459,4.6342,4.7437,4.8923,4.932,4.982,5.0521,5.069,5.0778,5.0778,5.0778,5.0778,5.0778,5.0927,5.0991,5.0991,5.0519,5.0001,2.1327,1.9897,1.9096,2.0596,2.0961,2.2008,0.0,2.5979,2.5878,2.8333,2.8913,2.9218,3.0118,3.0263,3.0365,3.0569,3.1032,3.1423,3.1481,3.2003,3.2613,3.3213,3.3271,3.3329,3.3503,3.3964,3.4324,3.4382,3.4939,3.5305,3.5305,3.5851,3.646,3.707,3.7157,3.7476,3.8086,3.8115,3.8144,3.8202,3.8202,3.8202,3.8202,3.8202,3.8202,3.8202,3.8202,3.8202,3.8202,3.8202,3.8202,3.8202,3.8202,3.8202,3.8202,3.8202,3.8202,3.8202,3.8202,3.8202,3.8202,3.8202,3.8202,3.8202,3.8202,3.8609,3.9102,3.9102,3.9479,3.9915,3.9973,4.0002,4.0031,4.0089,4.0554,4.0989,4.0989,4.157,4.2092,4.2092,4.2208,4.244,4.2905,4.2992,4.3042,4.3079,4.3108,4.3333,4.3921,4.3979,4.403,4.4066,4.4095,4.4124,4.4204,4.5001,4.5599,4.5806,4.722,4.8067,4.8161,4.8859,4.9238,4.9238,4.9238,4.9238,4.9238,4.9886,5.0228,5.0228,5.083,5.1024,2.4395,2.384,2.3336,2.4092,2.4881,2.578,2.712,2.7596,2.814,2.9591,3.0061,3.0278,3.0658,3.0643,3.0699,3.1061,3.1336,3.1771,3.2542,3.2906,3.3313,3.3935,3.4022,3.4022,3.4022,3.4254,3.4382,3.4382,3.5026,3.5392,3.5392,3.6344,3.7012,3.7302,3.7651,3.7941,3.8202,3.8202,3.8202,3.8202,3.8202,3.8202,3.8202,3.8202,3.8202,3.8202,3.8202,3.8202,3.8202,3.8202,3.8202,3.8202,3.8202,3.8202,3.8202,3.8202,3.8202,3.8202,3.8202,3.8202,3.8202,3.8202,3.8463,3.8783,3.8783,3.9218,3.9712,3.9712,3.9915,4.0176,4.0583,4.067,4.0786,4.1163,4.1482,4.1686,4.1686,4.2179,4.2615,4.2615,4.2934,4.3166,4.3021,4.2992,4.2876,4.2528,4.3108,4.366,4.395,4.3979,4.3979,4.3979,4.3979,4.4379,4.5389,4.5789,4.6432,4.7389,4.8522,4.9152,4.9152,4.9867,5.0293,5.0293,5.0293,5.0293,5.0293,5.0584,5.094,5.1329,5.1251,5.1639,2.5812,2.626,2.6503,2.6681,2.7841,2.8756,2.8082,2.8805,2.9776,3.0204,3.0485,3.0687,3.0851,3.0848,3.102,3.1546,3.1909,3.2447,3.3423,3.3747,3.4022,3.437,3.4467,3.4571,3.4661,3.469,3.469,3.469,3.5462,3.5927,3.5927,3.6954,3.7564,3.7564,3.797,3.8202,3.8202,3.8202,3.8202,3.8202,3.8202,3.8202,3.8202,3.8202,3.8202,3.8202,3.8202,3.8202,3.8202,3.8202,3.8202,3.8202,3.8202,3.8318,3.8492,3.8492,3.8347,3.8231,3.8405,3.8492,3.8492,3.8667,3.9044,3.945,3.945,3.9886,4.0379,4.0379,4.0495,4.0757,4.125,4.1366,4.1482,4.1976,4.2092,4.2092,4.2092,4.244,4.2731,4.2731,4.3137,4.3311,4.2839,4.2731,4.2586,4.2179,4.2876,4.3456,4.3456,4.3456,4.3456,4.3456,4.3602,4.4213,4.5435,4.593,4.6708,4.7883,4.8898,4.9461,4.9461,5.0181,5.07,5.0894,5.0894,5.0894,5.0894,5.1121,5.1348,5.162,5.1348,5.175,2.4844,2.5603,2.6764,2.7405,2.8919,3.0182,3.0026,3.0542,3.0984,3.0792,3.0777,3.0851,3.1043,3.1303,3.1589,3.1926,3.2891,3.3644,3.3674,3.4361,3.4739,3.4433,3.4685,3.5003,3.5339,3.5363,3.5363,3.5363,3.6536,3.7226,3.7226,3.7825,3.8173,3.8173,3.8202,3.8202,3.8202,3.8202,3.8202,3.8202,3.8202,3.8202,3.8202,3.8202,3.8202,3.8202,3.8202,3.8202,3.8202,3.8202,3.8202,3.8202,3.8202,3.8609,3.916,3.916,3.8754,3.8289,3.8957,3.916,3.9276,3.9857,4.006,4.006,4.006,4.0525,4.1076,4.1076,4.1541,4.2034,4.2063,4.2063,4.2063,4.2092,4.2092,4.2092,4.2092,4.2121,4.2121,4.2121,4.215,4.215,4.2121,4.2121,4.2121,4.2092,4.2121,4.215,4.215,4.215,4.215,4.215,4.2673,4.3042,4.3105,4.4472,4.5368,4.541,4.6963,4.7877,4.7877,4.8629,4.94,5.0131,5.0131,5.0131,5.0131,5.0843,5.0862,5.0196,5.0894,5.1218,2.5884,2.723,2.8713,2.9264,3.0247,3.1067,3.0937,3.1056,3.1249,3.1278,3.1117,3.1043,3.1205,3.1559,3.1997,3.2561,3.337,3.4028,3.4453,3.4668,3.4781,3.4735,3.5032,3.5314,3.5519,3.5519,3.5642,3.5985,3.6809,3.7302,3.7302,3.7883,3.8202,3.8202,3.8202,3.8202,3.8202,3.8202,3.8202,3.8202,3.8202,3.8202,3.8202,3.8202,3.8202,3.8202,3.8202,3.8463,3.887,3.887,3.9102,3.945,3.945,3.9596,3.9799,3.9799,3.9654,3.9479,3.9712,3.9799,3.9828,4.0031,4.0408,4.0757,4.0757,4.1221,4.1773,4.1773,4.1918,4.2092,4.2092,4.2092,4.2092,4.2092,4.2092,4.2092,4.2092,4.2092,4.2092,4.2092,4.2092,4.2092,4.2092,4.2092,4.2092,4.2092,4.2092,4.2092,4.2092,4.244,4.2702,4.2702,4.3282,4.4112,4.5233,4.5799,4.6559,4.7675,4.8736,4.9341,4.9341,5.0066,5.0584,5.0811,5.083,5.083,5.083,5.1089,5.1315,5.1491,5.175,5.2139,2.7303,2.862,2.979,3.0545,3.111,3.1467,3.1321,3.1336,3.1365,3.1438,3.1085,3.085,3.0979,3.1545,3.2194,3.2715,3.3929,3.4827,3.4971,3.5221,3.5335,3.5272,3.5558,3.5947,3.6382,3.6412,3.6465,3.6653,3.7372,3.7769,3.7622,3.8055,3.8258,3.8202,3.8202,3.8202,3.8202,3.8202,3.8202,3.8202,3.8202,3.8318,3.8551,3.8551,3.8667,3.887,3.887,3.9131,3.9509,3.9509,3.9741,4.0089,4.0089,4.0234,4.0466,4.0466,4.0612,4.0786,4.0525,4.0466,4.0495,4.0728,4.1105,4.1453,4.1453,4.1744,4.2092,4.2092,4.2092,4.2092,4.2092,4.2092,4.2092,4.2092,4.2092,4.2092,4.2092,4.2092,4.2092,4.2092,4.2092,4.2092,4.2092,4.2469,4.2789,4.2789,4.2963,4.2934,4.2469,4.2963,4.3362,4.3362,4.3942,4.4894,4.6265,4.6884,4.7816,4.9224,5.0061,5.0487,5.0487,5.0959,5.1315,5.1575,5.1575,5.1575,5.1575,5.1575,5.1672,5.1847,5.1847,5.2365,2.8889,2.9638,2.9997,3.1182,3.1511,3.1482,3.1336,3.1424,3.1452,3.1232,3.0698,3.028,3.0345,3.1234,3.2077,3.2408,3.4538,3.5958,3.5317,3.5942,3.636,3.5976,3.6318,3.6922,3.7836,3.7901,3.7721,3.7415,3.8253,3.8631,3.824,3.8389,3.8408,3.8202,3.8202,3.8202,3.8202,3.8202,3.8202,3.8202,3.8231,3.858,3.9189,3.9247,3.9567,4.0089,4.0089,4.0118,4.0147,4.0147,4.0176,4.0205,4.0205,4.0583,4.1163,4.1163,4.1541,4.2005,4.1366,4.1163,4.125,4.1889,4.2092,4.2092,4.2092,4.2092,4.2092,4.2092,4.2092,4.2092,4.2092,4.2092,4.2092,4.2092,4.2092,4.2092,4.2092,4.2092,4.2092,4.2092,4.2121,4.215,4.2179,4.3195,4.3979,4.3979,4.4501,4.4465,4.3195,4.3631,4.4059,4.4059,4.4625,4.5368,4.6241,4.7688,4.8963,4.9908,5.0717,5.1218,5.1218,5.1218,5.151,5.2139,5.2139,5.2139,5.2139,5.2139,5.1847,5.1251,5.1283,5.2041,2.9129,3.0283,3.1092,3.1421,3.1511,3.1496,3.1467,3.1482,3.1227,3.0241,2.9912,2.9464,2.853,3.014,3.1648,3.1735,3.3976,3.5633,3.5438,3.5926,3.6293,3.6343,3.7052,3.7677,3.802,3.8495,3.867,3.8451,3.8506,3.8519,3.8408,3.8612,3.8557,3.8202,3.8333,3.8333,3.8202,3.8202,3.8202,3.8202,3.8725,3.9044,3.9218,3.9654,3.9944,4.0089,4.0089,4.0379,4.0844,4.0844,4.1134,4.1599,4.1599,4.1686,4.1831,4.1831,4.1947,4.2063,4.1889,4.1831,4.186,4.2034,4.2092,4.2092,4.2092,4.2092,4.2092,4.2092,4.2092,4.2092,4.2092,4.2092,4.2092,4.2092,4.2092,4.2092,4.2092,4.2092,4.2092,4.2092,4.244,4.2934,4.3427,4.3776,4.3979,4.3979,4.4501,4.464,4.3834,4.4291,4.4647,4.4647,4.5836,4.6972,4.7851,4.891,4.9927,5.0826,5.1073,5.1218,5.1218,5.1218,5.1283,5.1445,5.1445,5.1445,5.1445,5.1445,5.162,5.1944,5.2527,5.3252,3.0013,3.0957,3.1511,3.1511,3.1511,3.1361,3.0807,3.0658,3.0223,2.862,2.8291,2.7872,2.6512,2.8893,3.0987,3.0717,3.3634,3.5938,3.5938,3.6393,3.6884,3.7285,3.7799,3.8276,3.8615,3.8918,3.9071,3.9053,3.8973,3.8826,3.8631,3.8741,3.8668,3.8333,3.8352,3.8296,3.8202,3.8202,3.8347,3.8638,3.9015,3.9479,4.006,4.0379,4.0699,4.0989,4.0989,4.1192,4.1541,4.1541,4.1744,4.2092,4.2092,4.2092,4.2092,4.2092,4.2092,4.2092,4.2092,4.2092,4.2092,4.2092,4.2092,4.2092,4.2092,4.2092,4.2092,4.2092,4.2092,4.2092,4.2092,4.2092,4.2092,4.2092,4.2092,4.2092,4.2092,4.2295,4.2586,4.2876,4.3195,4.3631,4.4269,4.464,4.4821,4.4821,4.5343,4.5518,4.4908,4.5133,4.5337,4.5337,4.6123,4.7003,4.7843,4.8841,4.9777,5.0647,5.1111,5.1331,5.1331,5.1256,5.1348,5.1639,5.1639,5.1782,5.2106,5.2202,5.2597,5.3311,5.3733,5.4643,3.1002,3.1511,3.1511,3.1511,3.1511,3.1152,2.9907,2.9518,2.8859,2.6764,2.6255,2.5824,2.4575,2.7427,2.9894,2.9638,3.326,3.6194,3.6464,3.7015,3.7644,3.8302,3.8499,3.8751,3.9331,3.9247,3.921,3.9373,3.9391,3.9247,3.887,3.887,3.8778,3.8567,3.8333,3.824,3.824,3.8289,3.8657,3.9228,3.9363,4.0031,4.1105,4.1192,4.1541,4.2092,4.2092,4.2092,4.2092,4.2092,4.2092,4.2092,4.2092,4.2092,4.2092,4.2092,4.2092,4.2092,4.2092,4.2092,4.2092,4.2092,4.2092,4.2092,4.2092,4.2092,4.2092,4.2092,4.2092,4.2092,4.2092,4.2092,4.2092,4.2092,4.2092,4.2121,4.2208,4.2702,4.3311,4.3979,4.4124,4.4298,4.493,4.5511,4.5917,4.5917,4.6359,4.6505,4.5998,4.5962,4.5962,4.5962,4.6046,4.6484,4.734,4.8367,4.9327,5.019,5.11,5.1573,5.1573,5.1521,5.175,5.2333,5.2371,5.276,5.3486,5.3649,5.417,5.4984,5.5062,5.6116,3.1122,3.1511,3.1511,3.1511,3.1511,3.1152,2.9907,2.9189,2.8038,2.5483,2.4496,2.389,2.3171,2.5357,2.7782,2.9338,3.2093,3.4592,3.6284,3.7015,3.7644,3.8302,3.8901,3.9272,3.9391,3.9355,3.9355,3.9391,3.9391,3.9301,3.9053,3.921,3.9137,3.876,3.8538,3.8456,3.8456,3.883,3.9169,3.9457,4.0362,4.0873,4.1105,4.1657,4.1976,4.2092,4.2092,4.2092,4.2092,4.2092,4.2092,4.2092,4.2092,4.2092,4.2092,4.2092,4.2092,4.2092,4.2092,4.2092,4.2092,4.2092,4.2092,4.2092,4.2092,4.2092,4.2092,4.2092,4.2092,4.2092,4.2092,4.2092,4.2092,4.2092,4.2092,4.2237,4.2731,4.334,4.4008,4.464,4.4756,4.4959,4.5627,4.583,4.5917,4.5917,4.5982,4.6079,4.6135,4.6158,4.6158,4.6158,4.6836,4.7649,4.8522,4.9278,5.0085,5.0959,5.1666,5.2066,5.2066,5.2624,5.2993,5.3123,5.3266,5.3721,5.4469,5.4476,5.518,5.6536,5.6936,5.761,3.1152,3.1511,3.1511,3.1511,3.1511,3.0972,2.9009,2.8051,2.6722,2.3719,2.2832,2.2423,2.1784,2.4088,2.6512,2.7842,3.1091,3.4083,3.5759,3.7105,3.8182,3.8841,3.9182,3.9391,3.9391,3.9391,3.9391,3.9391,3.9391,3.9355,3.9265,3.9247,3.909,3.8815,3.8705,3.8825,3.9178,3.9311,3.974,4.0481,4.1005,4.1401,4.1628,4.207,4.2195,4.2092,4.2092,4.2092,4.2092,4.2092,4.2092,4.2092,4.2092,4.2092,4.2092,4.2092,4.2092,4.2092,4.2092,4.2092,4.2092,4.2092,4.2092,4.2092,4.2092,4.2092,4.2092,4.2092,4.2092,4.2092,4.2092,4.2324,4.2557,4.2557,4.2818,4.3253,4.3884,4.4262,4.4669,4.5308,4.5424,4.5562,4.5965,4.6046,4.609,4.6225,4.6247,4.6291,4.6403,4.6513,4.6682,4.7003,4.7426,4.8206,4.9481,5.0282,5.1126,5.2017,5.2714,5.3302,5.3809,5.4052,5.4548,5.5297,5.5429,5.5848,5.6567,5.6688,5.7049,5.7634,5.7836,5.8037,3.1182,3.1511,3.1511,3.1511,3.1511,3.0837,2.8214,2.6973,2.5495,2.2363,2.1455,2.1186,2.0967,2.315,2.5375,2.6614,3.0117,3.3335,3.522,3.6926,3.8332,3.9302,3.9391,3.9391,3.9391,3.9391,3.9391,3.9391,3.9391,3.9391,3.9391,3.9247,3.9053,3.887,3.8988,3.9313,3.9874,3.9893,4.0432,4.1537,4.1604,4.1814,4.2175,4.231,4.2298,4.2092,4.2092,4.2092,4.2092,4.2092,4.2092,4.2092,4.2092,4.2092,4.2092,4.2092,4.2092,4.2092,4.2092,4.2092,4.2092,4.2092,4.2092,4.2092,4.2092,4.2092,4.2121,4.2266,4.2295,4.2324,4.2469,4.2847,4.3195,4.3195,4.3739,4.4298,4.4814,4.5017,4.5278,4.5846,4.5956,4.6023,4.6247,4.6291,4.6358,4.6558,4.6609,4.6631,4.6646,4.68,4.7301,4.8372,4.8267,4.8766,5.0409,5.1264,5.213,5.3064,5.3739,5.4525,5.5421,5.5463,5.6106,5.7417,5.7326,5.7629,5.8351,5.8383,5.8363,5.8351,5.8236,5.8112,3.1301,3.1511,3.1511,3.1511,3.1511,3.0837,2.8214,2.6614,2.4926,2.2263,2.0747,2.0238,2.1395,2.2363,2.3961,2.7016,2.8903,3.1254,3.4981,3.6178,3.7345,3.9182,3.9391,3.9391,3.9391,3.9391,3.9391,3.9391,3.9391,3.9391,3.9391,3.9373,3.9283,3.9071,3.9665,4.001,4.007,4.0852,4.1479,4.1952,4.2194,4.2333,4.2372,4.2392,4.2298,4.2092,4.2092,4.2092,4.2092,4.2092,4.2092,4.2092,4.2092,4.2092,4.2092,4.2092,4.2092,4.2092,4.2092,4.2092,4.2092,4.2092,4.2092,4.2092,4.2092,4.2092,4.2208,4.276,4.2905,4.3071,4.366,4.3863,4.3892,4.3892,4.4356,4.4843,4.4901,4.5395,4.5875,4.6106,4.618,4.6269,4.6513,4.6558,4.6558,4.6609,4.6609,4.6668,4.6844,4.6887,4.7839,5.0346,4.975,4.9864,5.1595,5.2212,5.2855,5.3743,5.4494,5.5254,5.5995,5.663,5.7384,5.817,5.7697,5.7831,5.8556,5.7917,5.795,5.8556,5.831,5.8186,3.1122,3.1511,3.1511,3.1511,3.1182,3.0329,2.8081,2.6243,2.4377,2.2143,2.0627,2.0118,2.1455,2.1575,2.2562,2.5854,2.7512,2.9232,3.1599,3.3889,3.5745,3.6909,3.7716,3.8524,3.9331,3.9391,3.9391,3.9391,3.9391,3.9391,3.9391,3.9391,3.9534,3.9868,4.0136,4.0662,4.1469,4.1665,4.2031,4.2595,4.2702,4.2627,4.2412,4.2648,4.2566,4.2269,4.2269,4.2269,4.2248,4.2154,4.2092,4.2092,4.2092,4.2092,4.2092,4.2092,4.2092,4.2092,4.2092,4.2092,4.2092,4.2092,4.2353,4.2557,4.2208,4.2353,4.2673,4.2934,4.3282,4.366,4.3921,4.4269,4.464,4.5046,4.5337,4.5533,4.5667,4.5886,4.6158,4.638,4.6425,4.6513,4.6734,4.6778,4.6844,4.7005,4.7026,4.707,4.7127,4.7947,4.9145,5.0715,5.0524,5.1317,5.3907,5.4195,5.46,5.5537,5.577,5.6211,5.7107,5.7404,5.7899,5.8657,5.8441,5.8481,5.8779,5.8481,5.819,5.7937,5.7837,5.7485,3.0777,3.1361,3.1511,3.1511,3.1017,2.9983,2.8034,2.6033,2.4036,2.2113,2.0627,2.0058,2.1186,2.1186,2.1864,2.4556,2.6315,2.7914,2.9608,3.2212,3.4292,3.537,3.6477,3.7584,3.8703,3.9182,3.9391,3.9391,3.9391,3.9391,3.9391,3.9601,3.99,4.0397,4.0786,4.1433,4.2381,4.2326,4.2555,4.3081,4.3021,4.287,4.2566,4.289,4.2809,4.2494,4.2433,4.2433,4.2474,4.2248,4.2236,4.2248,4.2216,4.2236,4.2248,4.2216,4.2236,4.2269,4.2269,4.2257,4.2245,4.2482,4.2811,4.3089,4.2919,4.3089,4.3311,4.3515,4.4037,4.4581,4.4581,4.4916,4.5396,4.5891,4.6046,4.6164,4.6291,4.6314,4.6403,4.6646,4.669,4.6756,4.6975,4.7019,4.7084,4.7287,4.7489,4.7687,4.7938,4.9096,5.0424,5.1773,5.1925,5.2919,5.5388,5.5685,5.6016,5.6647,5.6564,5.6875,5.7773,5.7806,5.8138,5.8899,5.8668,5.8568,5.8568,5.8336,5.7913,5.7259,5.7259,5.7014,3.0342,3.0972,3.1511,3.1511,3.1017,2.9983,2.8034,2.6033,2.4036,2.2113,2.0627,1.9908,2.0578,2.1246,2.2113,2.34,2.5285,2.75,3.0133,3.1645,3.326,3.528,3.6088,3.6746,3.7357,3.8614,3.9391,3.9391,3.9391,3.9391,3.9391,4.0038,4.0397,4.0397,4.1673,4.2381,4.241,4.2773,4.3081,4.329,4.311,4.3001,4.2981,4.3001,4.291,4.2688,4.2494,4.2514,4.2688,4.2494,4.2514,4.2668,4.2474,4.2535,4.2668,4.2474,4.2535,4.2688,4.2688,4.2546,4.255,4.3413,4.3557,4.3558,4.4415,4.4366,4.4095,4.4727,4.5343,4.5888,4.5888,4.6046,4.6173,4.6202,4.6403,4.6609,4.6609,4.6609,4.6646,4.6866,4.6909,4.6975,4.7266,4.7309,4.7309,4.7309,4.7848,4.861,4.9464,5.0176,5.158,5.4079,5.4356,5.4705,5.5525,5.6282,5.6699,5.6699,5.6699,5.7031,5.7773,5.7806,5.8138,5.8899,5.8171,5.7806,5.7806,5.7097,5.6732,5.6732,5.6732,5.7077,2.8351,2.8996,2.9415,2.8936,2.8338,2.756,2.6482,2.4717,2.2992,2.1914,2.0627,1.9908,2.0578,2.0877,2.2014,2.5147,2.6195,2.7363,2.9578,3.1779,3.3425,3.4053,3.6716,3.8554,3.8763,3.9152,3.9391,3.9391,3.9391,3.9601,4.0068,4.0726,4.1074,4.1074,4.1961,4.2601,4.301,4.313,4.325,4.329,4.325,4.315,4.3001,4.315,4.311,4.288,4.285,4.285,4.291,4.2688,4.2627,4.2688,4.2627,4.2627,4.2688,4.2627,4.2648,4.2688,4.2688,4.2648,4.2725,4.3475,4.3935,4.4373,4.5106,4.5196,4.5235,4.5881,4.6211,4.6387,4.6387,4.6425,4.6469,4.6469,4.6535,4.6624,4.6778,4.68,4.6866,4.7135,4.7149,4.7222,4.7287,4.7668,4.7967,4.7967,4.8558,4.9304,5.0171,5.1442,5.2785,5.4236,5.5339,5.6065,5.6329,5.6547,5.6699,5.6699,5.6699,5.6799,5.7064,5.7064,5.7163,5.7376,5.7163,5.7064,5.7064,5.6832,5.6699,5.6699,5.6699,5.7097,2.6836,2.7722,2.8111,2.7705,2.7106,2.6363,2.5423,2.3909,2.2433,2.1515,2.0447,1.9828,2.0258,2.0737,2.1864,2.4369,2.5596,2.7003,2.9279,3.142,3.3215,3.4472,3.7015,3.8733,3.902,3.9242,3.9391,3.9391,3.9631,3.996,4.0367,4.1283,4.1762,4.1762,4.2391,4.291,4.329,4.329,4.329,4.329,4.329,4.323,4.313,4.325,4.323,4.313,4.3021,4.3021,0.0,4.291,4.287,4.291,4.285,4.287,4.291,4.285,4.287,4.296,4.3227,4.3245,4.3362,4.4353,4.5116,4.5687,4.6102,4.6113,4.6049,4.6462,4.6609,4.6609,4.6609,4.6646,4.6712,4.6712,4.6778,4.6917,4.7019,4.704,4.7084,4.7287,4.7309,4.7369,4.7638,4.8027,4.8409,4.8648,4.953,5.0471,5.1365,5.2902,5.4239,5.5188,5.6144,5.6699,5.6699,5.6699,5.6699,5.6699,5.6699,5.6699,5.6699,5.6699,5.6699,5.6699,5.6699,5.6699,5.6699,5.6699,5.6832,5.713,5.713,5.7641,0.0,2.6764,2.7315,2.7315,2.6866,2.6033,2.4765,2.352,0.0,2.0967,2.0168,1.9729,1.9887,2.0896,2.1784,2.2054,2.4208,2.6752,2.9428,3.1017,3.3095,3.6297,3.7195,3.7793,3.8392,3.9032,3.9391,3.9391,4.0019,4.0427,4.0457,4.1703,4.241,4.247,4.301,4.329,4.329,4.329,4.329,4.329,4.329,4.329,4.329,4.329,4.329,4.329,4.311,4.315,4.329,4.311,4.315,4.327,4.3081,4.315,4.327,4.3081,4.318,4.3439,4.4087,4.4204,4.4329,4.5819,4.6749,4.7309,4.7309,4.7005,4.6675,4.6675,4.6675,4.6675,4.6675,4.6778,4.6931,4.6931,4.7106,4.7309,4.7309,4.7309,4.7309,4.7369,4.7369,4.7578,4.8259,4.8409,4.867,4.9337,5.0701,5.2023,5.3049,5.4422,5.5656,5.6603,5.6699,5.6699,5.6699,5.6699,5.6699,5.6699,5.6699,5.6699,5.6699,5.6699,5.6699,5.6699,5.6699,5.6699,5.6699,5.6766,5.713,5.7806,5.7839,5.8634,2.2543,0.0,2.4549,2.4549,2.4418,2.4099,0.0,2.2513,2.1695,2.0877,2.0168,2.0157,2.1714,2.1824,2.2692,2.5728,2.7153,2.8803,3.145,3.4247,3.6699,3.8494,3.8823,3.9002,3.9152,3.9302,3.9391,3.9391,4.0019,4.0606,4.1134,4.1961,4.2601,4.307,4.325,4.329,4.329,4.329,4.329,4.329,4.329,4.329,4.329,4.329,4.329,4.329,4.325,4.327,4.329,4.325,4.327,4.329,4.325,4.327,4.329,4.325,4.3598,4.4087,4.4237,4.4605,4.5152,4.601,4.6749,4.7309,4.7309,4.7222,4.7135,4.7135,4.7135,4.7135,4.7135,4.7179,4.7222,4.7222,4.7266,4.7309,4.7309,4.7309,4.7459,4.7967,4.8057,4.8289,4.8947,4.9434,5.0073,5.0925,5.1796,5.2925,5.4562,5.5093,5.5656,5.6603,5.6699,5.6699,5.6699,5.6699,5.6699,5.6699,5.6699,5.6699,5.6699,5.6699,5.6699,5.6699,5.6699,5.6699,5.6699,5.7263,5.7608,5.7806,5.8369,5.9131,2.1066,2.2413,2.361,2.361,2.361,2.343,2.2853,2.1944,2.1066,2.0378,1.9968,2.0127,2.1515,2.2712,2.4088,2.5914,2.8577,3.1316,3.3963,3.664,3.8584,3.9302,3.9391,3.9391,3.9391,3.9391,3.9391,3.9391,4.0307,4.1014,4.1373,4.2301,4.297,4.329,4.329,4.329,4.329,4.329,4.329,4.329,4.329,4.329,4.329,4.329,4.329,4.329,4.329,4.329,4.329,4.329,4.329,4.329,4.329,4.329,4.329,4.329,4.3728,4.4326,4.4646,4.5394,4.6292,4.6629,4.6988,4.7309,4.7309,4.7309,4.7309,4.7309,4.7309,4.7309,4.7309,4.7309,4.7309,4.7309,4.7309,4.7309,4.7309,4.7549,4.7848,4.8229,4.8558,4.8977,4.9613,5.0336,5.1113,5.1954,5.3078,5.4179,5.5158,5.5656,5.6159,5.6641,5.6699,5.6699,5.6699,5.6699,5.6699,5.6699,5.6699,5.6699,5.6699,5.6699,5.6699,5.6699,5.7031,5.7196,5.7229,5.7939,5.8469,5.8833,5.9231,5.9794,2.0638,2.2353,2.3819,2.3531,2.361,2.358,2.2853,2.1814,2.0817,2.0148,2.0007,2.0378,2.1655,2.3928,2.5663,2.577,2.973,3.3694,3.6284,3.8242,3.9391,3.9391,3.9391,3.9391,3.9391,3.9391,3.9451,3.9541,4.0696,4.1433,4.1553,4.2651,4.329,4.329,4.329,4.329,4.329,4.329,4.329,4.329,4.329,4.329,4.329,4.329,4.329,4.329,4.329,0.0,4.329,4.329,4.329,4.329,4.329,4.329,4.329,4.3409,4.3878,4.4556,4.5334,4.6352,4.7309,4.7309,4.7309,4.7309,4.7309,4.7309,4.7309,4.7309,4.7309,4.7309,4.7309,4.7309,4.7309,4.7309,4.7309,4.7339,4.7429,4.7908,4.8379,4.8536,4.9067,4.9613,5.0249,5.1128,5.1973,5.2714,5.4221,5.5353,5.5495,5.6218,5.6699,5.6699,5.6699,5.6699,5.6699,5.6699,5.6699,5.6699,5.6699,5.6699,5.6699,5.6699,5.6766,5.6865,5.7475,5.7839,5.7972,5.8701,5.9396,5.9993,6.0125,6.0523,2.1216,2.337,2.4896,2.3261,2.364,2.4126,2.2972,2.2553,2.2183,2.1525,2.1395,2.2622,2.6662,2.6422,2.6859,3.0687,3.2916,3.4907,3.6985,3.8494,3.9391,3.9391,3.9391,3.9391,3.9391,3.9391,3.9631,4.0217,4.0954,4.1643,4.2231,4.294,4.329,4.329,4.329,4.329,4.329,4.329,4.329,4.329,4.329,4.329,4.329,4.329,4.329,4.329,0.0,4.329,4.329,4.329,4.329,4.329,4.329,4.329,4.3349,4.3938,4.4566,4.5334,4.6561,4.713,4.7309,4.7309,4.7309,4.7309,4.7309,4.7309,4.7309,4.7309,4.7309,4.7309,4.7309,4.7309,4.7309,4.7309,4.7309,4.7459,4.8027,4.8229,4.8626,4.971,5.0009,5.0278,5.0936,5.1828,5.275,5.3654,5.4674,5.5575,5.6375,5.6622,5.6699,5.6699,5.6699,5.6699,5.6699,5.6699,5.6699,5.6699,5.6699,5.6699,5.6699,5.6699,5.6978,5.7627,5.774,5.8104,5.8734,5.9463,5.9893,6.0026,6.0655,6.0986,2.0447,2.2303,2.398,2.3789,2.5525,2.7141,2.6554,2.5878,2.5039,2.4029,2.3819,2.4687,2.7542,2.8457,3.0404,3.5413,3.6148,3.6626,3.8255,3.9002,3.9391,3.9391,3.9391,3.9391,3.9391,3.9391,3.966,4.0337,4.1014,4.1673,4.2351,4.297,4.329,4.329,4.329,4.329,4.329,4.329,4.329,4.329,4.329,4.329,4.329,4.329,4.329,4.329,0.0,4.329,4.329,4.329,4.329,4.329,4.329,4.3499,4.3967,4.4984,4.5583,4.5992,4.698,4.7309,4.7309,4.7309,4.7309,4.7309,4.7309,4.7309,4.7309,4.7309,4.7309,4.7309,4.7309,4.7309,4.7309,4.7309,4.7578,4.7908,4.8207,4.8835,4.9501,5.0099,5.0488,5.0847,5.1146,5.2403,5.3502,5.3934,5.5169,5.6218,5.6641,5.6699,5.6699,5.6699,5.6699,5.6699,5.6699,5.6699,5.6699,5.6699,5.6699,5.6699,5.6699,5.6699,5.7064,5.7773,5.8171,5.8767,5.9496,6.0225,6.0589,6.0622,6.0953,6.1119,2.0337,2.1734,2.346,2.4735,2.6769,2.865,2.9428,2.8453,2.7225,2.6662,2.6662,2.72,2.8723,3.112,3.4201,3.8285,3.8212,3.8063,3.9242,3.9391,3.9391,3.9391,3.9391,3.9391,3.9391,3.9391,3.972,4.0576,4.1104,4.1762,4.2571,4.304,4.329,4.329,4.329,4.329,4.329,4.329,4.329,4.329,4.329,4.329,4.329,4.329,4.329,4.329,4.329,4.329,4.329,4.329,4.329,4.3339,4.3469,4.4057,4.4895,4.5912,4.639,4.66,4.713,4.7309,4.7309,4.7309,4.7309,4.7309,4.7309,4.7309,4.7309,4.7309,4.7309,4.7309,4.7309,4.7309,4.7339,4.7489,4.7908,4.8379,4.8686,4.9501,5.0255,5.0398,5.0847,5.1206,5.1206,5.2583,5.374,5.3955,5.5365,5.6433,5.6661,5.6699,5.6699,5.6699,5.6699,5.6699,5.6699,5.6699,5.6699,5.6699,5.6699,5.6699,5.6699,5.6699,5.713,5.8038,5.8601,5.9363,6.0258,6.0821,6.1119,6.1119,6.1119,6.1119,2.2164,2.346,2.4784,2.6123,2.5693,2.577,2.8889,2.8081,2.7183,2.8949,2.9744,3.0761,3.2706,3.522,3.7088,3.7477,3.7973,3.8571,3.9302,3.9391,3.9391,3.9391,3.9391,3.9391,3.9391,3.9391,3.9948,4.1224,4.1373,4.1923,4.319,4.326,4.329,4.329,4.329,4.329,4.329,4.329,4.329,4.329,4.329,4.329,4.329,4.329,4.329,4.329,4.329,4.329,4.329,4.329,4.329,4.3349,4.3997,4.5014,4.6181,4.6271,4.6689,4.7249,4.7279,4.7309,4.7309,4.7309,4.7309,4.7309,4.7309,4.7309,4.7309,4.7309,4.7309,4.7309,4.7309,4.7309,4.7459,4.8079,4.8259,4.8626,4.98,5.0159,5.0375,5.0996,5.1176,5.1206,5.1206,5.2048,5.3007,5.3869,5.4798,5.5728,5.6603,5.6699,5.6699,5.6699,5.6699,5.6699,5.6699,5.6699,5.6699,5.6699,5.6699,5.6699,5.6699,5.6699,5.7376,5.88,5.8866,5.9595,6.102,6.1086,6.1119,6.1119,6.1119,6.1119,2.1306,2.3001,2.4814,2.5752,2.6542,2.7859,3.0731,3.112,3.1225,3.2392,3.2841,3.335,3.4532,3.6879,3.8512,3.8093,3.8571,3.9092,3.9361,3.9391,3.9391,3.9391,3.9391,3.9391,3.9391,3.978,4.0397,4.1343,4.1792,4.2391,4.323,4.329,4.329,4.329,4.329,4.329,4.329,4.329,4.329,4.329,4.329,4.329,4.329,4.329,4.329,4.329,4.329,4.329,4.329,4.329,4.3549,4.4027,4.5104,4.5852,4.636,4.6749,4.7078,4.7309,4.7309,4.7309,4.7309,4.7309,4.7309,4.7309,4.7309,4.7309,4.7309,4.7309,4.7309,4.7309,4.7309,4.7608,4.7967,4.8259,4.8895,4.962,5.0076,5.0548,5.0907,5.1146,5.1206,5.1206,5.1206,5.198,5.294,5.3848,5.4757,5.5636,5.6583,5.6699,5.6699,5.6699,5.6699,5.6699,5.6699,5.6699,5.6699,5.6699,5.6699,5.6699,5.6699,5.7163,5.7839,5.8866,5.9363,6.0092,6.1119,6.1119,6.1119,6.1119,6.1119,6.1119,2.2024,2.3452,2.5253,2.6273,2.741,2.9026,3.1854,3.2691,3.3305,3.4817,3.5116,3.5386,3.6267,3.7686,3.8691,3.8422,3.8943,3.9391,3.9391,3.9391,3.9391,3.9391,3.9391,3.9391,3.9391,4.0008,4.0666,4.1343,4.2021,4.2661,4.326,4.329,4.329,4.329,4.329,4.329,4.329,4.329,4.329,4.329,4.329,4.329,4.329,4.329,4.329,4.329,4.329,4.3409,4.3638,4.3638,4.4147,4.5014,4.5942,4.642,4.6659,4.713,4.7309,4.7309,4.7309,4.7309,4.7309,4.7309,4.7309,4.7309,4.7309,4.7309,4.7309,4.7309,4.7309,4.7369,4.7549,4.7959,4.8386,4.8805,4.9561,5.0255,5.0465,5.0877,5.1206,5.1206,5.1206,5.1206,5.1206,5.1727,5.2583,5.3805,5.4506,5.5333,5.6544,5.6699,5.6699,5.6699,5.6699,5.6699,5.6699,5.6699,5.6699,5.6699,5.6699,5.6699,5.6699,5.7177,5.7906,5.8866,5.9396,6.0125,6.1119,6.1119,6.1119,6.1119,6.1119,6.1119,2.4799,2.522,2.6349,2.8137,2.8111,2.8513,3.1779,3.2004,3.2467,3.5818,3.6523,3.6913,3.817,3.7853,3.7644,3.829,3.8943,3.9391,3.9391,3.9391,3.9391,3.9391,3.9391,3.9391,3.9421,4.0038,4.0696,4.1373,4.2032,4.2661,4.326,4.329,4.329,4.329,4.329,4.329,4.329,4.329,4.329,4.329,4.329,4.329,4.329,4.329,4.329,4.329,4.329,4.3698,4.4296,4.4296,4.5104,4.63,4.63,4.6719,4.7309,4.7309,4.7309,4.7309,4.7309,4.7309,4.7309,4.7309,4.7309,4.7309,4.7309,4.7309,4.7309,4.7309,4.7309,4.7459,4.8117,4.8319,4.8626,4.992,5.0196,5.0398,5.1056,5.1206,5.1206,5.1206,5.1206,5.1206,5.1206,5.1206,5.1842,5.3719,5.3998,5.4653,5.6486,5.6699,5.6699,5.6699,5.6699,5.6699,5.6699,5.6699,5.6699,5.6699,5.6699,5.6699,5.6699,5.6699,5.7376,5.8866,5.8899,5.9628,6.1119,6.1119,6.1119,6.1119,6.1119,6.1119,2.2633,2.4792,2.7107,2.7195,2.9847,3.2706,3.3679,3.3769,3.4412,3.7255,3.8212,3.8512,3.8439,3.8631,3.8703,3.8422,3.8943,3.9391,3.9391,3.9391,3.9391,3.9391,3.9391,3.9601,4.0068,4.0696,4.1373,4.2051,4.2671,4.31,4.329,4.329,4.329,4.329,4.329,4.329,4.329,4.329,4.329,4.329,4.329,4.329,4.329,4.329,4.329,4.329,4.329,4.3698,4.4356,4.5313,4.5942,4.636,4.6809,4.713,4.7309,4.7309,4.7309,4.7309,4.7309,4.7309,4.7309,4.7309,4.7309,4.7309,4.7309,4.7309,4.7309,4.7309,4.7309,4.7549,4.8708,4.9007,4.9217,5.0009,5.0578,5.0966,5.1146,5.1206,5.1206,5.1206,5.1206,5.1206,5.1206,5.1206,5.1842,5.3719,5.3998,5.4653,5.6486,5.6699,5.6699,5.6699,5.6699,5.6699,5.6699,5.6699,5.6699,5.6699,5.6699,5.6699,5.6699,5.7196,5.7906,5.8866,5.9396,6.0158,6.1119,6.1119,6.1119,6.1119,6.1119,6.1119,2.5387,2.758,2.9749,3.0071,3.1943,3.4069,3.5356,3.5865,3.6493,3.808,3.8721,3.896,3.8811,3.8901,3.896,3.8811,3.914,3.9391,3.9391,3.9391,3.9391,3.9391,3.9391,3.966,4.0337,4.1014,4.1673,4.2351,4.297,4.329,4.329,4.329,4.329,4.329,4.329,4.329,4.329,4.329,4.329,4.329,4.329,4.329,4.329,4.329,4.329,4.3319,4.3878,4.4476,4.5164,4.6241,4.6689,4.6719,4.716,4.7309,4.7309,4.7309,4.7309,4.7309,4.7309,4.7309,4.7309,4.7309,4.7309,4.7309,4.7309,4.7309,4.7369,4.7608,4.7698,4.7997,4.9314,4.9643,4.9823,5.0458,5.0907,5.1206,5.1206,5.1206,5.1206,5.1206,5.1206,5.1316,5.1681,5.175,5.2381,5.4253,5.484,5.5466,5.6564,5.6699,5.6699,5.6699,5.6699,5.6699,5.6699,5.6699,5.6699,5.6699,5.6699,5.6699,5.6699,5.713,5.7839,5.8866,5.933,6.0059,6.1119,6.1119,6.1119,6.1119,6.1119,6.1119,3.0416,3.176,3.3081,3.4803,3.4067,3.3738,3.6806,3.8003,3.8482,3.8482,3.8482,3.8691,3.9302,3.8901,3.8691,3.9302,3.9391,3.9391,3.9391,3.9391,3.9391,3.9391,3.9391,3.969,4.0427,4.1044,4.1703,4.244,4.3,4.329,4.329,4.329,4.329,4.329,4.329,4.329,4.329,4.329,4.329,4.329,4.329,4.329,4.329,4.329,4.3319,4.3439,4.4736,4.5693,4.636,4.7018,4.7309,4.7309,4.7309,4.7309,4.7309,4.7309,4.7309,4.7309,4.7309,4.7309,4.7309,4.7309,4.7309,4.7309,4.7309,4.7309,4.7429,4.8087,4.8319,4.8596,4.986,5.0196,5.0375,5.1026,5.1206,5.1206,5.1206,5.1206,5.1206,5.1206,5.1206,5.1503,5.2426,5.2606,5.3218,5.5014,5.6087,5.6699,5.6699,5.6699,5.6699,5.6699,5.6699,5.6699,5.6699,5.6699,5.6699,5.6699,5.6699,5.6699,5.6699,5.6699,5.7376,5.8866,5.8899,5.9628,6.1119,6.1119,6.1119,6.1119,6.1119,6.1119,2.598,2.8876,3.2003,3.2916,3.4755,3.6686,3.7913,3.8691,3.9182,3.9182,3.9182,3.9242,3.9361,3.9272,3.9242,3.9391,3.9391,3.9391,3.9391,3.9391,3.9391,3.9391,3.9391,3.987,4.1074,4.1313,4.1863,4.301,4.325,4.329,4.329,4.329,4.329,4.329,4.329,4.329,4.329,4.329,4.329,4.329,4.329,4.329,4.329,4.329,4.3609,4.4117,4.4945,4.5693,4.636,4.7018,4.7309,4.7309,4.7309,4.7309,4.7309,4.7309,4.7309,4.7309,4.7309,4.7309,4.7309,4.7309,4.7309,4.7309,4.7309,4.7309,4.7429,4.8087,4.8319,4.8596,4.986,5.0196,5.0375,5.1026,5.1206,5.1206,5.1206,5.1206,5.1206,5.1206,5.1206,5.1503,5.2426,5.2606,5.3218,5.5014,5.6087,5.6699,5.6699,5.6699,5.6699,5.6699,5.6699,5.6699,5.6699,5.6699,5.6699,5.6699,5.6699,5.6699,5.6699,5.6699,5.7376,5.8866,5.8899,5.9628,6.1119,6.1119,6.1119,6.1119,6.1119,6.1119,2.7295,2.9896,3.2362,3.4023,3.6004,3.7687,3.826,3.9002,3.9517,3.9409,3.9391,3.9391,3.9391,3.9391,3.9391,3.9391,3.9391,3.9391,3.9391,3.9391,3.9391,3.9391,3.969,4.0277,4.1313,4.1673,4.2252,4.325,4.329,4.329,4.329,4.329,4.329,4.329,4.329,4.329,4.329,4.329,4.329,4.329,4.329,4.329,4.329,4.329,4.3848,4.4796,4.5155,4.5873,4.683,4.716,4.7309,4.7309,4.7309,4.7309,4.7309,4.7309,4.7309,4.7309,4.7309,4.7309,4.7309,4.7309,4.7309,4.7309,4.7309,4.7309,4.7519,4.8498,4.8768,4.9067,5.0338,5.0697,5.0757,5.1116,5.1206,5.1206,5.1206,5.1206,5.1206,5.1206,5.1572,5.2185,5.3086,5.3998,5.4881,5.5829,5.6375,5.6699,5.6699,5.6699,5.6699,5.6699,5.6699,5.6699,5.6699,5.6699,5.6699,5.6699,5.6699,5.6865,5.721,5.721,5.774,5.8866,5.9264,5.9993,6.1119,6.1119,6.1119,6.1119,6.1119,6.1119,2.9089,3.1226,3.302,3.5938,3.7164,3.7816,3.8427,3.9115,3.9607,3.9427,3.9391,3.9391,3.9391,3.9391,3.9391,3.9391,3.9391,3.9391,3.9391,3.9391,3.9391,3.9391,4.0008,4.0666,4.1343,4.2021,4.2661,4.325,4.329,4.329,4.329,4.329,4.329,4.329,4.329,4.329,4.329,4.329,4.329,4.329,4.329,4.3349,4.3469,4.3469,4.4147,4.5304,4.5424,4.6172,4.7309,4.7309,4.7309,4.7309,4.7309,4.7309,4.7309,4.7309,4.7309,4.7309,4.7309,4.7309,4.7309,4.7309,4.7309,4.7309,4.7309,4.7369,4.7728,4.8947,4.9366,4.9726,5.09,5.1206,5.1206,5.1206,5.1206,5.1206,5.1206,5.1206,5.1246,5.1409,5.2313,5.3306,5.4105,5.5608,5.6699,5.6699,5.6699,5.6699,5.6699,5.6699,5.6699,5.6699,5.6699,5.6699,5.6699,5.6699,5.6699,5.6699,5.6699,5.7031,5.7773,5.7906,5.8336,5.9065,5.9694,6.0357,6.1119,6.1119,6.1119,6.1119,6.1119,6.1119,2.4477,2.8085,3.2527,3.634,3.7362,3.7751,3.899,3.9349,3.9427,3.9391,3.9391,3.9391,3.9391,3.9391,3.9391,3.9391,3.9391,3.9391,3.9391,3.9391,3.9391,3.9391,4.0008,4.0666,4.1343,4.2021,4.2661,4.325,4.329,4.329,4.329,4.329,4.329,4.329,4.329,4.329,4.329,4.329,4.329,4.329,4.329,4.3609,4.4177,4.4177,4.4586,4.5334,4.5912,4.66,4.7309,4.7309,4.7309,4.7309,4.7309,4.7309,4.7309,4.7309,4.7309,4.7309,4.7309,4.7309,4.7309,4.7309,4.7309,4.7309,4.7309,4.7698,4.8319,4.9097,4.9673,5.0249,5.0996,5.1206,5.1206,5.1206,5.1206,5.1206,5.1206,5.1206,5.1433,5.2245,5.3773,5.4973,5.5096,5.5988,5.6699,5.6699,5.6699,5.6699,5.6699,5.6699,5.6699,5.6699,5.6699,5.6699,5.6699,5.6699,5.6699,5.6699,5.6699,5.7031,5.7773,5.8403,5.9098,5.9827,5.996,6.0357,6.1119,6.1119,6.1119,6.1119,6.1119,6.1119,2.5495,2.8893,3.2437,3.64,3.7473,3.7884,3.911,3.9481,3.9535,3.9409,3.9391,3.9391,3.9391,3.9391,3.9391,3.9391,3.9391,3.9391,3.9391,3.9391,3.9391,3.9391,4.0337,4.1074,4.1373,4.2312,4.301,4.326,4.329,4.329,4.329,4.329,4.329,4.329,4.329,4.329,4.329,4.329,4.329,4.329,4.329,4.3668,4.4296,4.4706,4.5244,4.5882,4.6181,4.6659,4.7309,4.7309,4.7309,4.7309,4.7309,4.7309,4.7309,4.7309,4.7309,4.7309,4.7309,4.7309,4.7309,4.7309,4.7549,4.7848,4.7848,4.8349,4.9007,4.9613,5.0009,5.0345,5.1026,5.1206,5.1206,5.1206,5.1206,5.1339,5.1865,5.198,5.2403,5.3838,5.4746,5.5474,5.5988,5.6414,5.6699,5.6699,5.6699,5.6699,5.6699,5.6699,5.6699,5.6699,5.6699,5.6699,5.6699,5.6699,5.6699,5.6699,5.6699,5.7229,5.8369,5.8734,5.9429,6.0589,6.0622,6.0788,6.1119,6.1119,6.1119,6.1119,6.1119,6.1119,2.5716,2.8384,3.0823,3.5294,3.6637,3.7335,3.9008,3.9517,3.9589,3.9427,3.9391,3.9391,3.9391,3.9391,3.9391,3.9391,3.9391,3.9391,3.9391,3.9391,3.9451,3.9631,4.0696,4.1463,4.1643,4.2651,4.329,4.329,4.329,4.329,4.329,4.329,4.329,4.329,4.329,4.329,4.329,4.329,4.329,4.329,4.3469,4.3908,4.4586,4.5244,4.5933,4.654,4.654,4.6839,4.7309,4.7309,4.7309,4.7309,4.7309,4.7309,4.7309,4.7309,4.7309,4.7309,4.7309,4.7309,4.7339,4.7489,4.7878,4.8349,4.8498,4.9007,4.9681,5.0336,5.0675,5.0985,5.1721,5.1911,5.1911,5.1911,5.1911,5.2048,5.2493,5.2954,5.3687,5.5035,5.5495,5.5888,5.6583,5.6699,5.6699,5.6699,5.6699,5.6699,5.6699,5.6699,5.6699,5.6699,5.6699,5.6699,5.6699,5.6699,5.6699,5.6699,5.6898,5.7541,5.8833,5.9065,5.9794,6.1086,6.1119,6.1119,6.1119,6.1119,6.1119,6.1119,6.1119,6.1119,2.2224,2.3969,2.6368,3.2228,3.4188,3.5492,3.8673,3.9391,3.9409,3.9391,3.9391,3.9391,3.9391,3.9391,3.9391,3.9391,3.9391,3.9391,3.9391,3.9391,3.9631,4.0277,4.0965,4.1643,4.2291,4.294,4.329,4.329,4.329,4.329,4.329,4.329,4.329,4.329,4.329,4.329,4.329,4.329,4.329,4.329,4.3938,4.4616,4.5274,4.5942,4.66,4.7249,4.7249,4.7279,4.7309,4.7309,4.7309,4.7309,4.7309,4.7309,4.7309,4.7309,4.7309,4.7309,4.7309,4.7309,4.7399,4.8027,4.8289,4.8409,4.9037,4.9673,5.0342,5.1258,5.1985,5.2678,5.3611,5.3848,5.3848,5.3848,5.3848,5.3611,5.2785,5.3945,5.521,5.5292,5.6008,5.6641,5.668,5.6699,5.6699,5.6699,5.6699,5.6699,5.6699,5.6699,5.6699,5.6699,5.6699,5.6699,5.6699,5.6699,5.6699,5.6699,5.7362,5.8071,5.8866,5.9562,6.0324,6.1086,6.1119,6.1119,6.1119,6.1119,6.1119,6.1119,6.1119,6.1119,2.1854,2.3321,2.5094,2.9817,3.2452,3.4398,3.643,3.8195,3.9391,3.9391,3.9391,3.9391,3.9391,3.9391,3.9391,3.9391,3.9391,3.9391,3.9391,3.9391,3.966,4.0337,4.0984,4.1643,4.2321,4.294,4.329,4.329,4.329,4.329,4.329,4.329,4.329,4.329,4.329,4.329,4.329,4.329,4.3519,4.3938,4.4177,4.4865,4.5942,4.6181,4.6659,4.7309,4.7309,4.7309,4.7309,4.7309,4.7309,4.7374,4.7913,4.8115,4.8208,4.8708,4.8913,4.8913,4.8913,4.9212,4.9564,4.9179,4.9678,5.0352,4.9975,5.0766,5.1819,5.2147,5.2834,5.3567,5.3912,5.3998,5.3998,5.3998,5.4422,5.4757,5.4411,5.4828,5.5474,5.6067,5.6453,5.6699,5.6699,5.6699,5.6699,5.6699,5.6699,5.6699,5.6699,5.6699,5.6699,5.6699,5.6699,5.6699,5.6699,5.6699,5.6898,5.7395,5.7641,5.8336,5.9562,5.986,6.0357,6.1086,6.1119,6.1119,6.1119,6.1119,6.1119,6.1119,6.1119,6.1119,2.0687,2.1974,2.364,2.7872,2.9935,3.1822,3.534,3.7002,3.811,3.9182,3.9391,3.9391,3.9391,3.9391,3.9391,3.9391,3.9391,3.9391,3.9391,3.9391,3.972,4.0636,4.1134,4.1733,4.2631,4.304,4.329,4.329,4.329,0.0,4.329,4.329,4.329,4.329,4.329,4.329,4.329,4.3499,4.3878,4.4317,4.4745,4.5433,4.63,4.654,4.6869,4.7309,4.7309,4.7309,4.7309,4.7309,4.7309,4.7396,4.824,4.8615,4.8718,4.9487,4.9805,4.9837,5.0089,5.0489,5.0882,5.0736,5.1324,5.1992,5.1601,5.2214,5.313,5.3437,5.3976,5.4506,5.4819,5.4902,5.4902,5.4902,5.5333,5.5789,5.5789,5.5789,5.5948,5.6583,5.6699,5.6699,5.6699,5.6699,5.6699,5.6699,5.6699,5.6699,5.6699,5.6699,5.6699,5.6699,5.6699,5.6699,5.6699,5.6931,5.7296,5.7773,5.827,5.8966,5.996,6.0258,6.0622,6.1086,6.1119,6.1119,6.1119,6.1119,6.1119,6.1119,6.1119,6.1119,0.0,0.0,0.0,2.6267,2.6579,2.7758,3.5356,3.5718,3.536,3.8631,3.9272,3.9302,3.9391,3.9391,3.9391,3.9391,3.9391,3.9391,3.9391,3.9391,3.99,4.1254,4.1403,4.1893,4.319,4.329,4.329,4.329,4.329,4.329,4.329,4.329,4.329,4.329,4.329,4.329,4.3319,4.3967,4.4326,4.4356,4.5672,4.63,4.636,4.6988,4.7309,4.7309,4.7309,4.7309,4.7309,4.7309,4.7331,4.7409,4.8282,4.8656,4.8749,4.9567,4.9864,4.9979,5.0727,5.1,5.1233,5.2595,5.3049,5.3176,5.3808,5.4019,5.4211,5.5067,5.5333,5.5555,5.6453,5.6699,5.6699,5.6699,5.6699,5.6699,5.6699,5.6699,5.6699,5.6699,5.6699,5.6699,5.6699,5.6699,5.6699,5.6699,5.6699,5.6699,5.6699,5.6699,5.6699,5.6699,5.6699,5.6732,5.6732,5.7376,5.7806,5.7839,5.9198,6.0026,6.0026,6.0721,6.1119,6.1119,6.1119,6.1119,6.1119,6.1119,6.1119,6.1119,6.1119,6.1119,1.8634,0.0,0.0,0.0,0.0,0.0,2.8889,3.031,3.2047,3.5818,3.6178,3.6567,3.8943,3.9391,3.9391,3.9391,3.9391,3.9391,3.9391,3.9391,3.99,4.1254,4.1403,4.1893,4.319,4.329,4.329,0.0,4.329,4.329,4.329,4.329,4.329,4.329,4.329,4.3529,4.4027,4.4207,4.4775,4.5762,4.6121,4.654,4.704,4.7219,4.7309,4.7309,4.7309,4.7309,4.7309,4.7309,4.7666,4.8324,4.9157,4.9856,5.0531,5.1378,5.1674,5.1772,5.2492,5.3048,5.3542,5.3845,5.4256,5.4583,5.4126,5.4443,5.5005,5.5251,5.5809,5.6375,5.6641,5.6699,5.6699,5.6699,5.6699,5.6699,5.6699,5.6699,5.6699,5.6699,5.6699,5.6699,5.6699,5.6699,5.6699,5.6699,5.6699,5.6699,5.6699,5.6699,5.6699,5.6699,5.6699,5.6931,5.7442,5.7674,5.8237,5.933,5.9761,6.0258,6.0788,6.0986,6.1119,6.1119,6.1119,6.1119,6.1119,6.1119,6.1119,6.1119,6.1119,6.1119,1.9139,1.9399,2.0007,2.1225,0.0,0.0,2.8068,2.9365,3.1057,3.6088,3.6836,3.7135,3.9062,3.9391,3.9391,3.9391,3.9391,3.9391,3.9391,3.9391,3.978,4.0846,4.1224,4.1792,4.2821,4.316,4.329,4.329,4.329,4.329,4.329,4.329,4.329,4.329,4.329,4.3638,4.4296,4.4586,4.5274,4.63,4.657,4.6899,4.7309,4.7688,4.7828,4.7828,4.7828,4.804,4.8324,4.7976,4.8145,4.8738,4.9896,5.0634,5.1242,5.2382,5.2804,5.297,5.3978,5.4607,5.4996,5.5227,5.5581,5.5789,5.5271,5.5487,5.5888,5.5888,5.6277,5.6699,5.6699,5.6699,5.6699,5.6699,5.6699,5.6699,5.6699,5.6699,5.6699,5.6699,5.6699,5.6699,5.6699,5.6699,5.6699,5.6699,5.6699,5.6699,5.6699,5.6964,5.7064,5.6732,5.7263,5.7674,5.7773,5.8369,5.9065,5.996,6.0291,6.0655,6.1086,6.1119,6.1119,6.1119,6.1119,6.1119,6.1119,6.1119,6.1119,6.1119,6.1119,6.1119,2.0023,1.9977,2.0427,2.2084,2.1344,0.0,2.9518,2.9962,3.0543,3.6716,3.7926,3.8015,3.8434,3.8524,3.8524,3.8542,3.8763,3.9062,3.9361,3.9391,3.966,4.0337,4.0984,4.1643,4.2321,4.294,4.329,4.329,4.329,4.329,4.329,4.329,4.329,4.329,4.3349,4.3728,4.4386,4.5095,4.5753,4.642,4.704,4.7309,4.7331,4.8177,4.8615,4.8615,4.8697,4.9136,4.9746,4.9136,4.8872,4.9015,5.0531,5.1205,5.1503,5.2895,5.3448,5.3713,5.5137,5.5601,5.5733,5.6448,5.6699,5.6699,5.6699,5.6699,5.6699,5.6699,5.6699,5.6699,5.6699,5.6699,5.6699,5.6699,5.6699,5.6699,5.6699,5.6699,5.6699,5.6699,5.6699,5.6699,5.6699,5.6699,5.6699,5.6699,5.6699,5.6699,5.6699,5.7342,5.7541,5.6898,5.8071,5.8668,5.8071,5.9264,6.0026,6.0125,6.0755,6.1119,6.1119,6.1119,6.1119,6.1119,6.1119,6.1119,6.1119,6.1119,6.1119,6.1119,6.1119,6.1119,2.1863,2.1734,2.1964,2.1343,2.2024,0.0,2.3035,2.3175,2.4361,2.8291,2.8667,2.9282,3.2437,3.3035,3.3081,3.3171,3.4925,3.6998,3.9092,3.9391,3.966,4.0337,4.0984,4.1643,4.2321,4.294,4.329,4.329,4.329,4.329,4.329,4.329,4.329,4.329,4.3818,4.4436,4.5095,4.5762,4.642,4.713,4.7249,4.7309,4.7331,4.8177,4.8615,4.8656,4.9267,4.9647,4.9825,5.0384,5.0628,5.0647,5.097,5.1853,5.2983,5.3294,5.378,5.4409,5.5303,5.5601,5.5733,5.6448,5.6699,5.6699,5.6699,5.6699,5.6699,5.6699,5.6699,5.6699,5.6699,5.6699,5.6699,5.6699,5.6699,5.6699,5.6699,5.6699,5.6699,5.6699,5.6699,5.6699,5.6699,5.6699,5.6699,5.6699,5.6699,5.6699,5.6699,5.7342,5.774,5.7594,5.8369,5.9065,5.9529,5.9827,6.0258,6.0854,6.102,6.1119,6.1119,6.1119,6.1119,6.1119,6.1119,6.1119,6.1119,6.1119,6.1119,6.1119,6.1119,6.1119,2.2072,2.162,2.1853,2.1813,2.2024,0.0,0.0,2.3392,2.4167,2.7799,2.8038,2.8278,3.0568,3.1017,3.112,3.1521,3.3785,3.5593,3.5922,3.7956,3.9511,3.984,4.0786,4.1523,4.1871,4.2761,4.329,4.329,4.329,4.329,4.329,4.329,4.3439,4.3788,4.4117,4.4775,4.5813,4.6121,4.6629,4.7309,4.7309,4.7309,4.7352,4.8635,4.9217,4.9258,5.0092,5.0691,5.1102,5.1083,5.1554,5.2253,5.2253,5.2704,5.3482,5.4243,5.474,5.5137,5.5899,5.615,5.6216,5.66,5.6699,5.6699,5.6699,5.6699,5.6699,5.6699,5.6699,5.6699,5.6699,5.6699,5.6699,5.6699,5.6699,5.6699,5.6699,5.6699,5.6699,5.6699,5.6699,5.6699,5.6699,5.6699,5.6699,5.6699,5.7031,5.7263,5.7263,5.8204,5.8767,5.8369,5.933,5.9993,5.9993,6.0357,6.0721,6.1086,6.1119,6.1119,6.1119,6.1119,6.1119,6.1119,6.1119,6.1119,6.1119,6.1119,6.1119,6.1119,6.1119,6.1119,2.2818,2.2121,2.2384,2.2717,2.2415,2.2585,0.0,0.0,0.0,2.7966,2.8338,2.8261,2.8876,2.8996,2.9175,2.9714,3.2048,3.3215,3.1628,3.513,3.7943,3.808,4.0056,4.1272,4.0902,4.1773,4.2622,4.323,4.2692,4.2651,4.326,4.329,4.3609,4.4267,4.4436,4.5074,4.63,4.642,4.6749,4.7309,4.7309,4.7396,4.7602,4.9116,4.9884,5.0112,5.097,5.1762,5.2338,5.1782,5.2286,5.3382,5.3382,5.3581,5.3978,5.517,5.57,5.5899,5.6481,5.6699,5.6699,5.6699,5.6699,5.6699,5.6699,5.6699,5.6699,5.6699,5.6699,5.6699,5.6699,5.6699,5.6699,5.6699,5.6699,5.6699,5.6699,5.6699,5.6699,5.6699,5.6699,5.6699,5.6699,5.6699,5.6766,5.6898,5.7461,5.7925,5.8005,5.9164,5.9761,5.9164,6.0291,6.0854,6.0258,6.0755,6.1119,6.1119,6.1119,6.1119,6.1119,6.1119,6.1119,6.1119,6.1119,6.1119,6.1119,6.1119,6.1119,6.1119,6.1119,6.1119,2.6553,2.622,2.6367,2.351,2.4398,2.5002,2.1393,0.0,2.1994,2.1834,0.0,2.2812,2.3452,0.0,0.0,2.3769,2.5955,2.758,2.747,3.0308,3.2662,3.3382,3.815,4.0752,3.909,3.8942,4.0157,4.308,4.0588,4.0247,4.314,4.329,4.3609,4.4267,4.4885,4.5544,4.63,4.6869,4.7219,4.7309,4.7309,4.7709,4.849,4.9367,5.0229,5.0989,5.1871,5.2302,5.2458,5.2927,5.3243,5.3382,5.3382,5.421,5.5369,5.5535,5.5998,5.6581,5.6666,5.6699,5.6699,5.6699,5.6699,5.6699,5.6699,5.6699,5.6699,5.6699,5.6699,5.6699,5.6699,5.6699,5.6699,5.6699,5.6699,5.6699,5.6699,5.6699,5.6699,5.6699,5.6699,5.6699,5.6699,5.6699,5.6931,5.7574,5.7959,5.829,5.8701,5.9496,5.996,5.9893,6.0622,6.1086,6.0966,6.1053,6.1119,6.1119,6.1119,6.1119,6.1119,6.1119,6.1119,6.1119,6.1119,6.1119,6.1119,6.1119,6.1119,6.1119,6.1119,6.1119,2.6386,2.6783,2.7406,2.4739,2.5209,2.5345,2.1724,2.0706,2.0567,2.0668,0.0,0.0,0.0,0.0,0.0,0.0,2.432,2.5638,2.4556,2.7867,3.0805,3.1881,0.0,0.0,3.833,0.0,0.0,0.0,4.0277,3.9828,4.311,4.329,4.3788,4.4855,4.5155,4.5813,4.6869,4.716,4.71,4.6719,4.713,4.7561,4.805,4.9271,5.0287,5.114,5.2017,5.2623,5.3003,5.3283,5.3912,5.4674,5.4674,5.5038,5.5667,5.6084,5.6415,5.6699,5.6699,5.6699,5.6699,5.6699,5.6699,5.6699,5.6699,5.6699,5.6699,5.6699,5.6699,5.6699,5.6699,5.6699,5.6699,5.6699,5.6699,5.6699,5.6699,5.6699,5.6699,5.6699,5.6699,5.6832,5.7243,5.6998,5.7177,5.8614,5.8933,5.9131,5.9496,6.0191,6.0655,6.0655,6.092,6.1119,6.1119,6.1119,6.1119,6.1119,6.1119,6.1119,6.1119,6.1119,6.1119,6.1119,6.1119,6.1119,6.1119,6.1119,6.1119,6.1119,6.1119,6.1119,2.7621,2.8063,2.8571,2.5495,2.523,2.4932,2.1874,2.0846,2.0567,2.0668,2.0887,0.0,0.0,0.0,2.1365,2.1635,0.0,2.4029,2.2603,2.5338,2.7902,2.9232,3.0804,0.0,0.0,0.0,0.0,0.0,0.0,3.8871,4.308,4.329,4.3908,4.5244,4.5304,4.5933,4.7309,4.7309,4.6958,4.63,4.7237,4.7758,4.798,4.9501,5.073,5.1783,5.2404,5.3069,5.3713,5.3912,5.4641,5.5634,5.5833,5.5899,5.5965,5.6481,5.6699,5.6699,5.6699,5.6699,5.6699,5.6699,5.6699,5.6699,5.6699,5.6699,5.6699,5.6699,5.6699,5.6699,5.6699,5.6699,5.6699,5.6699,5.6699,5.6699,5.6699,5.6865,5.6998,5.6998,5.7064,5.7296,5.7826,5.7693,5.7972,5.9376,5.984,6.0072,6.0291,6.0788,6.1119,6.1119,6.1119,6.1119,6.1119,6.1119,6.1119,6.1119,6.1119,6.1119,6.1119,6.1119,6.1119,6.1119,6.1119,6.1119,6.1119,6.1119,6.1119,6.1119,6.1119,6.1119,3.2155,3.1532,3.0771,2.5374,2.4433,2.3984,2.0619,2.1274,2.2254,2.0967,2.2691,2.4077,2.2842,2.2643,2.2433,2.1794,2.1754,0.0,0.0,2.1854,2.2464,2.3891,2.7507,0.0,0.0,0.0,0.0,0.0,0.0,0.0,4.2931,4.329,4.3908,4.5244,4.5304,4.5933,4.7309,4.7309,4.6958,4.63,4.783,4.8652,4.8813,5.0383,5.1885,5.3313,5.3349,5.378,5.4508,5.5237,5.5568,5.5667,5.6382,5.6666,5.6666,5.6699,5.6699,5.6699,5.6699,5.6699,5.6699,5.6699,5.6699,5.6699,5.6699,5.6699,5.6699,5.6699,5.6699,5.6699,5.6699,5.6699,5.6699,5.6699,5.6699,5.6699,5.6699,5.7243,5.774,5.774,5.7959,5.8157,5.8157,5.8933,5.9542,5.9608,6.0436,6.1053,6.1065,6.1086,6.1119,6.1119,6.1119,6.1119,6.1119,6.1119,6.1119,6.1119,6.1119,6.1119,6.1119,6.1119,6.1119,6.1119,6.1119,6.1119,6.1119,6.1119,6.1119,6.1119,6.1119,6.1119,0.0,0.0,3.3045,2.8033,2.7264,2.6553,2.2203,2.1993,2.2385,2.0986,2.2432,2.355,2.2273,2.2403,2.2493,2.1824,2.2064,2.2064,0.0,2.1027,2.1375,2.2294,2.5937,2.8762,0.0,0.0,0.0,0.0,0.0,0.0,0.0,4.3728,4.4356,4.5274,4.5839,4.653,4.7309,4.7409,4.6954,4.5842,4.7783,4.8613,4.8497,5.1056,5.2641,5.3434,5.4059,5.4671,5.527,5.5502,5.5899,5.6349,5.6581,5.6699,5.6699,5.6699,5.6699,5.6699,5.6699,5.6699,5.6699,5.6699,5.6699,5.6699,5.6699,5.6699,5.6699,5.6699,5.6699,5.6699,5.6699,5.6699,5.6699,5.6699,5.6699,5.6812,5.7309,5.7608,5.7939,5.8436,5.8601,5.882,5.9297,5.9661,6.0038,6.0502,6.0866,6.1119,6.1119,6.1119,6.1119,6.1119,6.1119,6.1119,6.1119,6.1119,6.1119,6.1119,6.1119,6.1119,6.1119,6.1119,6.1119,6.1119,6.1119,6.1119,6.1119,6.1119,6.1119,6.1119,6.1119,6.1119,3.3661,3.4601,0.0,3.0413,2.9817,2.911,2.4472,2.4254,2.4631,2.3269,2.375,2.4653,2.527,2.413,2.3185,2.3507,2.2854,2.1884,0.0,2.0757,2.1216,2.1635,2.4159,2.6507,0.0,0.0,0.0,0.0,0.0,0.0,0.0,0.0,4.4677,4.5522,4.6246,4.6867,4.7387,4.7546,4.6939,4.5625,4.8089,4.9068,4.881,5.1837,5.3647,5.4431,5.4952,5.5547,5.6079,5.6003,5.6282,5.6699,5.6699,5.6699,5.6699,5.6699,5.6699,5.6699,5.6699,5.6699,5.6699,5.6699,5.6699,5.6699,5.6699,5.6699,5.6766,5.7031,5.6898,5.6766,5.7011,5.6898,5.6766,5.7031,5.7097,5.7276,5.8038,5.8403,5.8734,5.9198,5.9496,5.9827,6.0324,6.039,6.0556,6.1053,6.1119,6.1119,6.1119,6.1119,6.1119,6.1119,6.1119,6.1119,6.1119,6.1119,6.1119,6.1119,6.1119,6.1119,6.1119,6.1119,6.1119,6.1119,6.1119,6.1119,6.1119,6.1119,6.1119,6.1119,6.1119,6.1251]}]]